[[{"header":{"parameterUnit":"m.s-1","parameterCategory":1,"la1":30.6,"la2":28.766,"lo1":-90.7593,"lo2":-88.6598,"dy":0.0162,"dx":0.0183,"nx":116,"ny":114,"refTime":"2023-05-15T06:00:00:Z","depth":0,"parameterNumber":2,"parameterNumberName":"U-component_of_WINDS"},"data":[0.0,0.0,0.0,0.0,0.0,0.0,0.0,0.0,0.0,0.0,0.0,0.0,0.0,0.0,0.0,0.0,0.0,0.0,0.0,0.0,0.0,0.0,0.0,0.0,0.0,0.0,0.0,0.0,0.0,0.0,0.0,0.0,0.0,0.0,0.0,0.0,0.0,0.0,0.0,0.0,0.0,0.0,0.0,0.0,0.0,0.0,0.0,0.0,0.0,0.0,0.0,0.0,0.0,0.0,0.0,0.0,0.0,0.0,0.0,0.0,0.0,0.0,0.0,0.0,0.0,0.0,0.0,0.0,0.0,0.0,0.0,0.0,0.0,0.0,0.0,0.0,0.0,0.0,0.0,0.0,0.0,0.0,0.0,0.0,0.0,0.0,0.0,0.0,0.0,0.0,0.0,0.0,0.0,0.0,0.0,0.0,0.0,0.0,0.0,0.0,0.0,0.0,0.0,0.0,0.0,0.0,0.0,0.0,0.0,0.0,0.0,0.0,0.0,0.0,0.0,0.0,0.0,0.0,0.0,0.0,0.0,0.0,0.0,0.0,0.0,0.0,0.0,0.0,0.0,0.0,0.0,0.0,0.0,0.0,0.0,0.0,0.0,0.0,0.0,0.0,0.0,0.0,0.0,0.0,0.0,0.0,0.0,0.0,0.0,0.0,0.0,0.0,0.0,0.0,0.0,0.0,0.0,0.0,0.0,0.0,0.0,0.0,0.0,0.0,0.0,0.0,0.0,0.0,0.0,0.0,0.0,0.0,0.0,0.0,0.0,0.0,0.0,0.0,0.0,0.0,0.0,0.0,0.0,0.0,0.0,0.0,0.0,0.0,0.0,0.0,0.0,0.0,0.0,0.0,0.0,0.0,0.0,0.0,0.0,0.0,0.0,0.0,0.0,0.0,0.0,0.0,0.0,0.0,0.0,0.0,0.0,0.0,0.0,0.0,0.0,0.0,0.0,0.0,0.0,0.0,0.0,0.0,0.0,0.0,0.0,0.0,0.0,0.0,0.0,0.0,0.0,0.0,0.0,0.0,0.0,0.0,0.0,0.0,0.0,0.0,0.0,0.0,0.0,0.0,0.0,0.0,0.0,0.0,0.0,0.0,0.0,0.0,0.0,0.0,0.0,0.0,0.0,0.0,0.0,0.0,0.0,0.0,0.0,0.0,0.0,0.0,0.0,0.0,0.0,0.0,0.0,0.0,0.0,0.0,0.0,0.0,0.0,0.0,0.0,0.0,0.0,0.0,0.0,0.0,0.0,0.0,0.0,0.0,0.0,0.0,0.0,0.0,0.0,0.0,0.0,0.0,0.0,0.0,0.0,0.0,0.0,0.0,0.0,0.0,0.0,0.0,0.0,0.0,0.0,0.0,0.0,0.0,0.0,0.0,0.0,0.0,0.0,0.0,0.0,0.0,0.0,0.0,0.0,0.0,0.0,0.0,0.0,0.0,0.0,0.0,0.0,0.0,0.0,0.0,0.0,0.0,0.0,0.0,0.0,0.0,0.0,0.0,0.0,0.0,0.0,0.0,0.0,0.0,0.0,0.0,0.0,0.0,0.0,0.0,0.0,0.0,0.0,0.0,0.0,0.0,0.0,0.0,0.0,0.0,0.0,0.0,0.0,0.0,0.0,0.0,0.0,0.0,0.0,0.0,0.0,0.0,0.0,0.0,0.0,0.0,0.0,0.0,0.0,0.0,0.0,0.0,0.0,0.0,0.0,0.0,0.0,0.0,0.0,0.0,0.0,0.0,0.0,0.0,0.0,0.0,0.0,0.0,0.0,0.0,0.0,0.0,0.0,0.0,0.0,0.0,0.0,0.0,0.0,0.0,0.0,0.0,0.0,0.0,0.0,0.0,0.0,0.0,0.0,0.0,0.0,0.0,0.0,0.0,0.0,0.0,0.0,0.0,0.0,0.0,0.0,0.0,0.0,0.0,0.0,0.0,0.0,0.0,0.0,0.0,0.0,0.0,0.0,0.0,0.0,0.0,0.0,0.0,0.0,0.0,0.0,0.0,0.0,0.0,0.0,0.0,0.0,0.0,0.0,0.0,0.0,0.0,0.0,0.0,0.0,0.0,0.0,0.0,0.0,0.0,0.0,0.0,0.0,0.0,0.0,0.0,0.0,0.0,0.0,0.0,0.0,0.0,0.0,0.0,0.0,0.0,0.0,0.0,0.0,0.0,0.0,0.0,0.0,0.0,0.0,0.0,0.0,0.0,0.0,0.0,0.0,0.0,0.0,0.0,0.0,0.0,0.0,0.0,0.0,0.0,0.0,0.0,0.0,0.0,0.0,0.0,0.0,0.0,0.0,0.0,0.0,0.0,0.0,0.0,0.0,0.0,0.0,0.0,0.0,0.0,0.0,0.0,0.0,0.0,0.0,0.0,0.0,0.0,0.0,0.0,0.0,0.0,0.0,0.0,0.0,0.0,0.0,0.0,0.0,0.0,0.0,0.0,0.0,0.0,0.0,0.0,0.0,0.0,0.0,0.0,0.0,0.0,0.0,0.0,0.0,0.0,0.0,0.0,0.0,0.0,0.0,0.0,0.0,0.0,0.0,0.0,0.0,0.0,0.0,0.0,0.0,0.0,0.0,0.0,0.0,0.0,0.0,0.0,0.0,0.0,0.0,0.0,0.0,0.0,0.0,0.0,0.0,0.0,0.0,0.0,0.0,0.0,0.0,0.0,0.0,0.0,0.0,0.0,0.0,0.0,0.0,0.0,0.0,0.0,0.0,0.0,0.0,0.0,0.0,0.0,0.0,0.0,0.0,0.0,0.0,0.0,0.0,0.0,0.0,0.0,0.0,0.0,0.0,0.0,0.0,0.0,0.0,0.0,0.0,0.0,0.0,0.0,0.0,0.0,0.0,0.0,0.0,0.0,0.0,0.0,0.0,0.0,0.0,0.0,0.0,0.0,0.0,0.0,0.0,0.0,0.0,0.0,0.0,0.0,0.0,0.0,0.0,0.0,0.0,0.0,0.0,0.0,0.0,0.0,0.0,0.0,0.0,0.0,0.0,0.0,0.0,0.0,0.0,0.0,0.0,0.0,0.0,0.0,0.0,0.0,0.0,0.0,0.0,0.0,0.0,0.0,0.0,0.0,0.0,0.0,0.0,0.0,0.0,0.0,0.0,0.0,0.0,0.0,0.0,0.0,0.0,0.0,0.0,0.0,0.0,0.0,0.0,0.0,0.0,0.0,0.0,0.0,0.0,0.0,0.0,0.0,0.0,0.0,0.0,0.0,0.0,0.0,0.0,0.0,0.0,0.0,0.0,0.0,0.0,0.0,0.0,0.0,0.0,0.0,0.0,0.0,0.0,0.0,0.0,0.0,0.0,0.0,0.0,0.0,0.0,0.0,0.0,0.0,0.0,0.0,0.0,0.0,0.0,0.0,0.0,0.0,0.0,0.0,0.0,0.0,0.0,0.0,0.0,0.0,0.0,0.0,0.0,0.0,0.0,0.0,0.0,0.0,0.0,0.0,0.0,0.0,0.0,0.0,0.0,0.0,0.0,0.0,0.0,0.0,0.0,0.0,0.0,0.0,0.0,0.0,0.0,0.0,0.0,0.0,0.0,0.0,0.0,0.0,0.0,0.0,0.0,0.0,0.0,0.0,0.0,0.0,0.0,0.0,0.0,0.0,0.0,0.0,0.0,0.0,0.0,0.0,0.0,0.0,0.0,0.0,0.0,0.0,0.0,0.0,0.0,0.0,0.0,0.0,0.0,0.0,0.0,0.0,0.0,0.0,0.0,0.0,0.0,0.0,0.0,0.0,0.0,0.0,0.0,0.0,0.0,0.0,0.0,0.0,0.0,0.0,0.0,0.0,0.0,0.0,0.0,0.0,0.0,0.0,0.0,0.0,0.0,0.0,0.0,0.0,0.0,0.0,0.0,0.0,0.0,0.0,0.0,0.0,0.0,0.0,0.0,0.0,0.0,0.0,0.0,0.0,0.0,0.0,0.0,0.0,0.0,0.0,0.0,0.0,0.0,0.0,0.0,0.0,0.0,0.0,0.0,0.0,0.0,0.0,0.0,0.0,0.0,0.0,0.0,0.0,0.0,0.0,0.0,0.0,0.0,0.0,0.0,0.0,0.0,0.0,0.0,0.0,0.0,0.0,0.0,0.0,0.0,0.0,0.0,0.0,0.0,0.0,0.0,0.0,0.0,0.0,0.0,0.0,0.0,0.0,0.0,0.0,0.0,0.0,0.0,0.0,0.0,0.0,0.0,0.0,0.0,0.0,0.0,0.0,0.0,0.0,0.0,0.0,0.0,0.0,0.0,0.0,0.0,0.0,0.0,0.0,0.0,0.0,0.0,0.0,0.0,0.0,0.0,0.0,0.0,0.0,0.0,0.0,0.0,0.0,0.0,0.0,0.0,0.0,0.0,0.0,0.0,0.0,0.0,0.0,0.0,0.0,0.0,0.0,0.0,0.0,0.0,0.0,0.0,0.0,0.0,0.0,0.0,0.0,0.0,0.0,0.0,0.0,0.0,0.0,0.0,0.0,0.0,0.0,0.0,0.0,0.0,0.0,0.0,0.0,0.0,0.0,0.0,0.0,0.0,0.0,0.0,0.0,0.0,0.0,0.0,0.0,0.0,0.0,0.0,0.0,0.0,0.0,0.0,0.0,0.0,0.0,0.0,0.0,0.0,0.0,0.0,0.0,0.0,0.0,0.0,0.0,0.0,0.0,0.0,0.0,0.0,0.0,0.0,0.0,0.0,0.0,0.0,0.0,0.0,0.0,0.0,0.0,0.0,0.0,0.0,0.0,0.0,0.0,0.0,0.0,0.0,0.0,0.0,0.0,0.0,0.0,0.0,0.0,0.0,0.0,0.0,0.0,0.0,0.0,0.0,0.0,0.0,0.0,0.0,0.0,0.0,0.0,0.0,0.0,0.0,0.0,0.0,0.0,0.0,0.0,0.0,0.0,0.0,0.0,0.0,0.0,0.0,0.0,0.0,0.0,0.0,0.0,0.0,0.0,0.0,0.0,0.0,0.0,0.0,0.0,0.0,0.0,0.0,0.0,0.0,0.0,0.0,0.0,0.0,0.0,0.0,0.0,0.0,0.0,0.0,0.0,0.0,0.0,0.0,0.0,0.0,0.0,0.0,0.0,0.0,0.0,0.0,0.0,0.0,0.0,0.0,0.0,0.0,0.0,0.0,0.0,0.0,0.0,0.0,0.0,0.0,0.0,0.0,0.0,0.0,0.0,0.0,0.0,0.0,0.0,0.0,0.0,0.0,0.0,0.0,0.0,0.0,0.0,0.0,0.0,0.0,0.0,0.0,0.0,0.0,0.0,0.0,0.0,0.0,0.0,0.0,0.0,0.0,0.0,0.0,0.0,0.0,0.0,0.0,0.0,0.0,0.0,0.0,0.0,0.0,0.0,0.0,0.0,0.0,0.0,0.0,0.0,0.0,0.0,0.0,0.0,0.0,0.0,0.0,0.0,0.0,0.0,0.0,0.0,0.0,0.0,0.0,0.0,0.0,0.0,0.0,0.0,0.0,0.0,0.0,0.0,0.0,0.0,0.0,0.0,0.0,0.0,0.0,0.0,0.0,0.0,0.0,0.0,0.0,0.0,0.0,0.0,0.0,0.0,0.0,0.0,0.0,0.0,0.0,0.0,0.0,0.0,0.0,0.0,0.0,0.0,0.0,0.0,0.0,0.0,0.0,0.0,0.0,0.0,0.0,0.0,0.0,0.0,0.0,0.0,0.0,0.0,0.0,0.0,0.0,0.0,0.0,0.0,0.0,0.0,0.0,0.0,0.0,0.0,0.0,0.0,0.0,0.0,0.0,0.0,0.0,0.0,0.0,0.0,0.0,0.0,0.0,0.0,0.0,0.0,0.0,0.0,0.0,0.0,0.0,0.0,0.0,0.0,0.0,0.0,0.0,0.0,0.0,0.0,0.0,0.0,0.0,0.0,0.0,0.0,0.0,0.0,0.0,0.0,0.0,0.0,0.0,0.0,0.0,0.0,0.0,0.0,0.0,0.0,0.0,0.0,0.0,0.0,0.0,0.0,0.0,0.0,0.0,0.0,0.0,0.0,0.0,0.0,0.0,0.0,0.0,0.0,0.0,0.0,0.0,0.0,-3.977,-3.8024,0.0,0.0,0.0,0.0,0.0,0.0,0.0,0.0,0.0,0.0,0.0,0.0,0.0,0.0,0.0,0.0,0.0,0.0,0.0,0.0,0.0,0.0,0.0,0.0,0.0,0.0,0.0,0.0,0.0,0.0,0.0,0.0,0.0,0.0,0.0,0.0,0.0,0.0,0.0,0.0,0.0,0.0,0.0,0.0,0.0,0.0,0.0,0.0,0.0,0.0,0.0,0.0,0.0,0.0,0.0,0.0,0.0,0.0,0.0,0.0,0.0,0.0,0.0,0.0,0.0,0.0,0.0,0.0,0.0,0.0,0.0,0.0,0.0,0.0,0.0,0.0,0.0,0.0,0.0,0.0,0.0,0.0,0.0,0.0,0.0,0.0,0.0,0.0,0.0,0.0,0.0,0.0,0.0,0.0,0.0,0.0,0.0,0.0,0.0,0.0,0.0,0.0,0.0,0.0,0.0,0.0,0.0,0.0,0.0,0.0,0.0,0.0,0.0,0.0,-4.0934,-3.9952,0.0,0.0,0.0,0.0,0.0,0.0,0.0,0.0,0.0,0.0,0.0,0.0,0.0,0.0,0.0,0.0,0.0,0.0,0.0,0.0,0.0,0.0,0.0,0.0,0.0,0.0,0.0,0.0,0.0,0.0,0.0,0.0,0.0,0.0,0.0,0.0,0.0,0.0,0.0,0.0,0.0,0.0,0.0,0.0,0.0,0.0,0.0,0.0,0.0,0.0,0.0,0.0,0.0,0.0,0.0,0.0,0.0,0.0,0.0,0.0,0.0,0.0,0.0,0.0,0.0,0.0,0.0,0.0,0.0,0.0,0.0,0.0,0.0,0.0,0.0,0.0,0.0,0.0,0.0,0.0,0.0,0.0,0.0,0.0,0.0,0.0,0.0,0.0,0.0,0.0,0.0,0.0,0.0,0.0,0.0,0.0,0.0,0.0,0.0,0.0,0.0,0.0,0.0,0.0,0.0,0.0,0.0,0.0,-4.133,-4.145,-4.1558,-4.145,-4.2162,-4.3467,-4.2194,-4.2222,-4.2983,-4.0326,0.0,0.0,0.0,0.0,0.0,0.0,0.0,0.0,0.0,0.0,0.0,0.0,0.0,0.0,0.0,0.0,0.0,0.0,0.0,0.0,0.0,0.0,0.0,0.0,0.0,0.0,0.0,0.0,0.0,0.0,0.0,0.0,0.0,0.0,0.0,0.0,0.0,0.0,-3.5223,-3.5684,-3.5496,-3.4666,-3.3647,0.0,0.0,0.0,0.0,0.0,0.0,0.0,0.0,0.0,0.0,0.0,0.0,0.0,0.0,0.0,0.0,0.0,0.0,0.0,0.0,0.0,0.0,0.0,0.0,0.0,0.0,0.0,0.0,0.0,0.0,0.0,0.0,0.0,0.0,0.0,0.0,0.0,0.0,0.0,0.0,0.0,0.0,0.0,-3.5175,-3.5259,0.0,0.0,0.0,0.0,0.0,0.0,0.0,0.0,0.0,0.0,0.0,0.0,0.0,-3.8587,-3.9485,-4.099,-4.2131,-4.2898,-4.4261,-4.493,-4.4947,-4.4949,-4.5047,-4.5259,-4.506,0.0,-4.3163,-4.2737,0.0,0.0,0.0,0.0,0.0,0.0,0.0,0.0,0.0,0.0,0.0,0.0,0.0,0.0,0.0,0.0,0.0,0.0,0.0,0.0,0.0,0.0,0.0,0.0,0.0,0.0,0.0,0.0,0.0,0.0,0.0,0.0,0.0,0.0,0.0,0.0,-3.5587,-3.6637,-3.7294,-3.7534,-3.7534,-3.7275,-3.6765,-3.533,-3.3256,-3.2908,0.0,0.0,0.0,0.0,0.0,0.0,0.0,0.0,0.0,0.0,0.0,0.0,0.0,0.0,0.0,0.0,0.0,0.0,0.0,0.0,0.0,0.0,0.0,0.0,0.0,0.0,0.0,0.0,0.0,0.0,0.0,0.0,0.0,0.0,0.0,0.0,0.0,0.0,0.0,-3.3683,-3.4147,-3.4294,-3.3647,-3.2873,0.0,0.0,0.0,0.0,0.0,0.0,0.0,0.0,0.0,-3.8472,-3.9831,-4.1128,-4.2294,-4.3485,-4.4258,-4.4565,-4.5271,-4.5586,-4.5586,-4.5586,-4.5586,-4.5586,-4.5586,-4.5194,-4.4484,-4.3568,-4.2366,-4.1023,0.0,0.0,0.0,0.0,-3.9995,-4.0312,0.0,0.0,0.0,0.0,0.0,0.0,0.0,0.0,0.0,0.0,0.0,0.0,0.0,0.0,0.0,-3.3238,0.0,0.0,0.0,0.0,0.0,0.0,0.0,0.0,0.0,0.0,0.0,0.0,-3.6707,-3.7533,-3.8707,-3.8707,-3.8707,-3.8707,-3.8707,-3.711,-3.4431,-3.4431,-3.3495,0.0,0.0,0.0,0.0,0.0,0.0,0.0,0.0,0.0,0.0,0.0,0.0,0.0,0.0,0.0,0.0,0.0,0.0,0.0,0.0,0.0,0.0,0.0,0.0,0.0,0.0,0.0,0.0,0.0,0.0,0.0,0.0,0.0,0.0,0.0,0.0,0.0,0.0,-3.3699,-3.4205,-3.3955,-3.4257,-3.3891,0.0,0.0,0.0,0.0,0.0,0.0,-3.7244,-3.7887,-3.8971,-4.0604,-4.1869,-4.3166,-4.4492,-4.5117,-4.548,-4.5586,-4.5586,-4.5586,-4.5586,-4.5586,-4.5586,-4.5605,-4.5836,-4.5932,-4.5815,-4.4403,-4.3568,-4.3079,-4.1927,-4.1266,-4.1066,-4.1511,-4.175,-4.207,0.0,0.0,0.0,0.0,0.0,0.0,0.0,0.0,0.0,0.0,0.0,0.0,0.0,0.0,-3.2518,-3.5656,-3.4569,-3.3977,0.0,0.0,0.0,0.0,0.0,0.0,0.0,0.0,0.0,-3.6303,-3.7826,-3.8615,-3.8707,-3.8707,-3.8707,-3.8707,-3.8707,-3.7771,-3.6156,-3.6156,-3.5202,-3.355,0.0,0.0,0.0,0.0,0.0,0.0,0.0,0.0,0.0,0.0,0.0,0.0,0.0,0.0,0.0,0.0,0.0,0.0,0.0,0.0,0.0,0.0,0.0,0.0,0.0,0.0,0.0,0.0,0.0,0.0,0.0,0.0,0.0,0.0,0.0,0.0,0.0,0.0,0.0,-3.5749,-3.7036,0.0,0.0,0.0,0.0,-3.7031,-3.7187,-3.8258,-4.061,-4.0785,-4.1559,-4.316,-4.3179,-4.3594,-4.4492,-4.4427,-4.4795,-4.5586,-4.5586,-4.5586,-4.5586,-4.5586,-4.5586,-4.5643,-4.649,-4.6836,-4.6759,-4.5853,-4.4585,-4.3195,-4.3238,-4.2344,-4.1207,-4.2926,-4.3574,-4.3828,0.0,0.0,0.0,0.0,0.0,0.0,0.0,0.0,0.0,0.0,0.0,0.0,0.0,-2.9479,-3.1156,-3.7965,-3.8269,-3.8099,-3.808,0.0,0.0,0.0,0.0,0.0,0.0,0.0,-3.7147,-3.809,-3.8497,-3.8707,-3.8707,-3.8707,-3.8707,-3.8707,-3.8884,-3.8541,-3.7845,-3.7845,-3.6909,-3.5349,-3.478,-3.2849,0.0,0.0,0.0,0.0,0.0,0.0,0.0,0.0,0.0,0.0,0.0,0.0,0.0,0.0,0.0,0.0,0.0,0.0,0.0,0.0,0.0,0.0,0.0,0.0,0.0,0.0,0.0,0.0,0.0,0.0,0.0,0.0,0.0,0.0,0.0,0.0,0.0,-3.5896,-3.7153,0.0,-3.6762,-3.7708,-3.878,-3.9746,-4.0801,-4.1796,-4.269,-4.3276,-4.3839,-4.4416,-4.485,-4.5176,-4.5405,-4.5312,-4.5658,-4.6432,-4.6432,-4.6701,-4.7201,-4.7201,-4.7201,-4.7221,-4.7548,-4.7682,-4.7663,-4.7336,-4.6872,-4.6378,-4.6506,-4.625,-4.5923,-4.6644,-4.6967,-4.7148,0.0,0.0,0.0,0.0,0.0,0.0,0.0,0.0,0.0,0.0,0.0,-3.0876,-3.1391,-3.1199,-3.3501,-3.9679,-4.0462,-4.0485,-4.0207,0.0,0.0,0.0,0.0,0.0,0.0,-3.7589,-3.8319,-3.9264,-3.8961,-3.8844,-3.8844,-3.8732,-3.8707,-3.8707,-3.8884,-3.8855,-3.8707,-3.8707,-3.8083,-3.7055,-3.6523,-3.454,-3.171,0.0,0.0,0.0,0.0,0.0,0.0,0.0,0.0,0.0,0.0,0.0,0.0,0.0,0.0,0.0,0.0,0.0,0.0,0.0,0.0,0.0,0.0,0.0,0.0,0.0,0.0,0.0,0.0,0.0,0.0,0.0,0.0,0.0,0.0,-3.5853,-3.7605,-3.6284,-3.8082,-3.9151,-3.8478,-3.9997,-4.1423,-4.2402,-4.3516,-4.4277,-4.4551,-4.5117,-4.5449,-4.5449,-4.6153,-4.6499,-4.6403,-4.6566,-4.6902,-4.7381,-4.7334,-4.7586,-4.8105,-4.8105,-4.8105,-4.8125,-4.8413,-4.8548,-4.8567,-4.8856,-4.8971,-4.8932,-4.8493,-4.8378,-4.8524,-4.8644,-4.8775,-4.8906,0.0,0.0,0.0,0.0,0.0,0.0,0.0,0.0,0.0,0.0,-3.278,-3.4484,-2.989,-3.5472,-3.9892,-4.0712,-4.0798,-4.0762,-4.0692,-3.7634,0.0,0.0,0.0,0.0,-3.6439,-3.8842,-3.9943,-3.9622,-3.9264,-3.9125,-3.9125,-3.8844,-3.8719,-3.8719,-3.875,-3.8719,-3.8719,-3.875,-3.8719,-3.856,-3.7,-3.5929,-3.4636,0.0,0.0,0.0,0.0,0.0,0.0,0.0,0.0,0.0,0.0,0.0,0.0,0.0,0.0,0.0,0.0,0.0,0.0,0.0,0.0,0.0,0.0,0.0,0.0,0.0,0.0,0.0,0.0,0.0,0.0,0.0,0.0,0.0,-3.4734,-3.6658,-3.7962,-3.7258,-4.007,-4.178,-4.1164,-4.2646,-4.4016,-4.496,-4.5039,-4.541,-4.625,-4.6328,-4.6348,-4.6328,-4.7051,-4.7435,-4.7431,-4.8008,-4.8313,-4.8333,-4.8193,-4.8144,-4.8182,-4.8182,-4.8182,-4.824,-4.9067,-4.9433,-4.951,-5.0337,-5.0702,-5.0567,-4.898,-4.8475,-4.8602,-4.8736,-4.887,-4.8984,0.0,0.0,0.0,0.0,0.0,0.0,0.0,0.0,0.0,0.0,-3.4884,-3.8916,-3.7965,-3.9387,-4.0511,-4.0713,-4.074,-3.9906,-3.7959,0.0,0.0,0.0,0.0,0.0,-3.9444,-3.9902,-4.0042,-3.9943,-3.9622,-3.9462,-3.9462,-3.9402,-3.9352,-3.9352,-3.9614,-3.9571,-3.9377,-3.9595,-3.9427,-3.8934,-3.8295,-3.6846,-3.5091,0.0,0.0,0.0,0.0,0.0,0.0,0.0,0.0,0.0,0.0,0.0,0.0,0.0,0.0,0.0,0.0,0.0,0.0,0.0,0.0,0.0,0.0,0.0,0.0,0.0,0.0,0.0,0.0,0.0,0.0,0.0,-3.5646,-3.7527,-3.7146,-3.9212,-4.0949,-4.1379,-4.2236,-4.2999,-4.3499,-4.407,-4.4793,-4.5737,-4.5896,-4.6055,-4.6289,-4.6894,-4.7204,-4.7104,-4.7801,-4.8145,-4.8052,-4.8129,-4.8482,-4.9099,-4.9066,-4.9375,-4.999,-4.999,-4.999,-4.999,-5.024,-5.0337,-5.0356,-5.0587,-5.0702,-5.0682,-5.0435,-5.0363,-5.0421,-5.0582,-5.0682,-5.0703,0.0,0.0,0.0,0.0,0.0,0.0,0.0,0.0,0.0,0.0,-3.3843,-3.9114,-4.0995,-4.0963,-4.081,-4.0779,-3.9828,-3.8554,-3.6926,0.0,0.0,0.0,0.0,-3.8113,-4.0645,-4.0472,-4.0264,-4.0101,-3.9901,-3.9754,-3.9599,-3.9599,-3.9599,-3.9599,-3.9797,-3.9775,-3.9622,-3.9797,-3.9599,-3.9099,-3.8933,-3.7987,-3.6786,-3.7336,-3.4629,-3.0269,-2.8318,-2.9064,-3.029,-2.6197,0.0,0.0,0.0,0.0,0.0,0.0,0.0,0.0,0.0,0.0,0.0,0.0,0.0,0.0,0.0,0.0,0.0,0.0,0.0,0.0,0.0,0.0,0.0,0.0,-3.8305,-4.0269,-4.0636,-4.1651,-4.2662,-4.3508,-4.3605,-4.3991,-4.495,-4.5118,-4.5568,-4.6572,-4.6719,-4.6949,-4.7363,-4.7871,-4.8104,-4.803,-4.8736,-4.9111,-4.9095,-4.9218,-4.955,-5.0109,-5.0005,-5.0202,-5.0702,-5.0702,-5.0702,-5.0702,-5.0702,-5.0721,-5.0773,-5.0721,-5.0775,-5.0879,0.0,0.0,0.0,0.0,-5.1406,-5.1406,0.0,0.0,0.0,0.0,0.0,0.0,0.0,0.0,0.0,0.0,0.0,-3.7372,-4.0792,-4.0956,-4.0719,-4.0488,-3.837,-3.6887,0.0,0.0,0.0,-3.6889,-3.7265,-3.8466,-4.0664,-4.0707,-4.053,-4.0157,-4.0158,-3.9983,-3.9712,-3.9712,-3.9712,-3.9712,-3.9712,-3.9712,-3.9712,-3.9712,-3.951,-3.9212,-3.9238,-3.916,-3.8875,-3.7036,-3.7593,-3.8798,-3.4689,-3.5656,-3.7586,-2.894,0.0,0.0,0.0,0.0,0.0,0.0,0.0,0.0,0.0,0.0,0.0,0.0,0.0,0.0,0.0,0.0,0.0,0.0,0.0,0.0,0.0,0.0,0.0,0.0,-4.1104,-4.3528,-4.4335,-4.3835,-4.3643,-4.4355,-4.4451,-4.4804,-4.5698,-4.586,-4.6335,-4.7304,-4.7474,-4.7946,-4.8847,-4.8984,0.0,0.0,0.0,-5.0188,-5.029,-5.0705,-5.0966,-5.1063,-5.0851,-5.074,-5.0721,-5.074,-5.0758,-5.0758,-5.0758,-5.0805,-5.0903,-5.0789,-5.0874,-5.1103,-5.0972,-5.102,-5.1156,-5.1338,-5.1406,-5.1406,0.0,0.0,0.0,0.0,0.0,0.0,0.0,0.0,0.0,-3.6787,-3.8708,-3.9898,-4.0848,-4.0863,-3.9994,-3.801,-3.6694,-3.5332,0.0,0.0,-3.6405,-3.6895,-3.8941,-4.0291,-4.0767,-4.0729,-4.0667,-4.0584,-4.0481,-4.0389,-4.0336,-4.0336,-4.0336,-4.0336,-4.0336,-4.0336,-4.0336,-4.0336,-4.0157,-3.9922,-4.0138,-3.9649,-3.8748,-3.8569,-3.8939,-3.9408,-3.8524,-3.9045,-3.9853,-3.7978,-3.7444,-3.7493,-3.6991,-3.4356,0.0,0.0,0.0,0.0,0.0,0.0,0.0,0.0,0.0,0.0,0.0,0.0,0.0,0.0,0.0,0.0,0.0,0.0,0.0,-3.9928,-4.2337,-4.4374,-4.522,-4.5201,-4.5163,-4.5316,-4.5336,-4.5411,-4.5616,-4.6317,-4.6899,-4.7217,-4.7989,-4.859,-4.8886,-4.957,-4.9899,-4.9794,-5.0562,-5.0946,-5.0922,-5.1016,-5.1027,-5.0945,-5.0991,0.0,-5.0863,-5.0966,-5.1027,-5.1027,-5.1027,-5.105,-5.1072,-5.102,-5.1093,-5.118,-5.1148,-5.1225,-5.1342,-5.1386,-5.1406,-5.1406,0.0,0.0,0.0,0.0,0.0,0.0,0.0,0.0,0.0,0.0,-3.5117,-3.7721,-4.04,-4.0772,-3.965,-3.6742,-3.5154,0.0,0.0,-3.5348,-3.7417,-3.8801,-4.0109,-4.0828,-4.0908,-4.0804,-4.0641,-4.0461,-4.0477,-4.0422,-4.0285,-4.0511,-4.0596,-4.0596,-4.0648,-4.0645,-4.0645,-4.0645,-4.0488,-4.0273,-4.0414,-3.9998,-3.9339,-3.9683,-3.9899,-4.0015,-3.9699,-3.9986,-4.0497,-4.049,-4.0515,-4.0446,-4.0158,-3.7373,-3.3506,0.0,0.0,0.0,0.0,0.0,0.0,0.0,0.0,0.0,0.0,0.0,0.0,0.0,0.0,-3.5251,-3.655,0.0,-4.0462,-4.2179,-4.3866,-4.5086,-4.5528,-4.5586,-4.5586,-4.5586,-4.599,-4.624,-4.624,-4.7036,-4.7801,-4.8448,-4.8974,-4.9518,-5.0117,-5.0566,-5.0761,-5.0691,-5.1023,-5.1221,-5.126,-5.1148,-5.1074,-5.1055,-5.1074,-5.1053,-5.1004,-5.1063,-5.1094,-5.1094,-5.1094,-5.1131,-5.1167,-5.1224,-5.1221,-5.1206,-5.1271,-5.1343,-5.1406,-5.1406,-5.1406,-5.1406,0.0,0.0,0.0,0.0,0.0,0.0,0.0,0.0,0.0,0.0,-2.9292,-3.3353,-3.8468,-3.8325,-3.6791,0.0,0.0,0.0,0.0,-3.5778,-3.8465,-4.0682,-4.0828,-4.0894,-4.1001,-4.0812,-4.0565,-4.0241,-4.029,-4.0266,-4.0119,-4.0463,-4.0641,-4.0729,-4.0779,-4.0801,-4.0801,-4.0801,-4.0693,-4.0477,-4.0477,-4.0331,-4.0105,-4.0433,-4.0468,-4.0273,-3.9909,-4.0097,-4.0506,-4.0496,-4.0501,-4.0492,-4.0487,-3.819,-3.4735,-3.0899,-3.0905,0.0,0.0,0.0,0.0,0.0,0.0,0.0,0.0,-3.2262,-3.3607,-3.5545,-3.6603,-3.7834,-3.9892,-4.0931,-4.2162,-4.422,-4.5143,-4.5586,-4.5586,-4.574,-4.5836,-4.5836,-4.6471,-4.6971,-4.7124,-4.7875,-4.8755,-4.9722,-4.9955,-5.0459,-5.1347,-5.1406,-5.1406,-5.1406,-5.1296,-5.1294,-5.1406,-5.123,-5.1174,-5.1201,-5.1174,-5.1128,-5.1131,-5.1148,-5.1164,-5.1164,-5.1164,-5.1187,-5.1242,-5.1365,-5.1343,-5.1242,-5.1365,-5.1406,-5.1406,-5.1406,-5.1406,-5.1406,0.0,0.0,0.0,0.0,0.0,0.0,0.0,0.0,0.0,0.0,0.0,0.0,0.0,0.0,0.0,0.0,0.0,0.0,-3.2904,-3.7513,-4.0401,-4.0707,-4.0877,-4.0976,-4.0991,-4.0643,-4.0424,-4.0389,-3.991,-3.9869,-4.0188,-4.0235,-4.0449,-4.0777,-4.0793,-4.0801,-4.0801,-4.0801,-4.0774,-4.0766,-4.0766,-4.0738,-4.0701,-4.074,-4.0328,-3.9764,-4.0227,-4.0441,-4.051,-4.049,-4.0509,-4.0488,-4.0506,-3.8185,-3.5053,-3.2772,-3.0891,-2.8909,-2.6082,-2.716,-2.9523,-3.1224,-3.2236,-3.4026,0.0,-3.8724,-3.8707,-4.1517,-4.2758,-4.3393,-4.3682,-4.4451,-4.5105,-4.5413,-4.5528,-4.5586,-4.5586,-4.6278,-4.6759,-4.6759,-4.6836,-4.7182,-4.7894,-4.8759,-4.9412,-4.9761,-5.051,-5.1076,-5.1386,-5.1406,-5.1406,-5.1406,-5.1386,-5.1386,-5.1406,-5.1386,-5.1316,-5.1201,-5.1318,-5.1294,-5.1191,-5.1316,-5.1365,-5.1365,-5.1365,-5.1365,-5.1386,-5.1386,-5.1386,-5.1386,-5.1386,-5.1406,-5.1406,-5.1406,-5.1406,-5.1406,0.0,0.0,0.0,0.0,0.0,0.0,0.0,0.0,0.0,0.0,0.0,0.0,0.0,0.0,0.0,0.0,0.0,0.0,-3.3014,-3.7835,-4.0761,-4.0875,-4.0969,-4.1049,-4.1105,-3.9458,-3.8604,-3.8604,-3.8323,-3.8282,-3.849,-3.9973,-4.077,-4.092,-4.0996,-4.1026,-4.1026,-4.1026,-4.1026,-4.0994,-4.0443,-4.0226,-4.02,-4.0007,-4.0188,-4.0535,-4.0639,-4.0778,0.0,-4.09,-4.0908,-4.0356,-3.7191,-3.5927,-3.496,-3.163,-3.0327,-3.0115,-3.0823,-3.0953,-3.16,-3.4471,-3.6215,-3.7697,-3.9547,-4.0251,-4.1125,-4.3338,-4.447,-4.5047,-4.5047,-4.5336,-4.5586,-4.5586,-4.6028,-4.6355,-4.6355,-4.7067,-4.7798,-4.8298,-4.8355,-4.849,-4.8817,-4.9644,-5.0265,-5.0529,-5.0899,-5.1193,-5.1386,-5.1406,-5.1406,-5.1406,-5.1406,-5.1406,-5.1406,-5.1406,-5.1366,-5.132,-5.1366,-5.1366,-5.132,-5.1366,-5.1406,-5.1406,-5.1406,-5.1406,-5.1406,-5.1406,-5.1406,-5.1406,-5.1406,-5.1406,-5.1406,-5.1406,-5.1406,-5.1406,0.0,0.0,0.0,0.0,0.0,0.0,0.0,0.0,0.0,0.0,0.0,0.0,0.0,0.0,0.0,0.0,0.0,0.0,0.0,-3.7191,-4.0051,-4.0953,-3.7627,-3.579,-3.5879,-3.2699,-2.9913,-2.7579,-2.8958,-2.8887,-2.7563,-3.1073,-3.1894,-3.0484,-3.2249,-3.3036,-3.3036,-3.3036,-3.4738,-3.7385,-3.6876,-3.7455,-3.853,-3.7919,-3.8812,-4.0457,-4.0786,-3.901,0.0,-3.6515,-3.7164,-3.7285,-3.3341,-3.2455,-3.2249,-2.9136,-2.8226,-2.902,-3.2657,-3.3056,-3.3333,-3.6996,-3.9489,-4.096,-4.0668,-4.1728,-4.3158,-4.4472,-4.5218,-4.5668,-4.5668,-4.5618,-4.5682,-4.5913,-4.649,-4.699,-4.7201,-4.7952,-4.8682,-4.9317,-4.9606,-4.976,-4.976,-5.0374,-5.0851,-5.1074,-5.1122,-5.1219,-5.1386,-5.1406,-5.1406,-5.1406,-5.1406,-5.1406,-5.1406,-5.1406,-5.1406,-5.1406,-5.1406,-5.1406,-5.1406,-5.1406,-5.1406,-5.1406,-5.1406,-5.1406,-5.1406,-5.1406,-5.1406,-5.1406,-5.1406,-5.1386,-5.1344,-5.1344,-5.1366,-5.1406,0.0,0.0,0.0,0.0,0.0,0.0,0.0,0.0,0.0,0.0,0.0,0.0,0.0,0.0,0.0,0.0,0.0,0.0,0.0,-3.5493,-3.8135,-4.0875,-2.9093,-2.248,-2.248,-1.777,-1.128,-0.3071,-0.8089,-0.7963,-0.3197,-0.9136,-0.9002,-0.4013,-0.9886,-1.2499,-1.2499,-1.2499,-1.8462,-2.7973,-2.8589,-3.1528,-3.5373,-3.4086,-3.5634,-3.8707,-4.0538,0.0,0.0,-2.4718,-2.7012,-2.9825,-2.9668,-2.7822,-2.5682,-2.5561,-2.396,-2.3392,-2.8561,-3.1101,-3.3374,-3.7829,-4.1184,-4.3483,-4.378,-4.4588,-4.5408,-4.5765,-4.5828,-4.5796,-4.5796,-4.5696,-4.5874,-4.6721,-4.6894,-4.7182,-4.7952,-4.8817,-4.9375,-4.9394,-5.0144,-5.0644,-5.0644,-5.0803,-5.094,-5.1084,-5.1154,-5.1265,-5.1386,-5.1406,-5.1406,-5.1406,-5.1406,-5.1406,-5.1406,-5.1406,-5.1406,-5.1406,-5.1406,-5.1406,-5.1406,-5.1406,-5.1406,-5.1406,-5.1406,-5.1406,-5.1406,-5.1406,-5.1406,-5.1406,-5.1406,-5.132,-5.1206,-5.1206,-5.1294,-5.1406,0.0,0.0,0.0,0.0,0.0,0.0,0.0,0.0,0.0,0.0,0.0,0.0,0.0,0.0,0.0,0.0,0.0,0.0,0.0,-2.6071,-2.4283,-2.5672,-1.449,-0.8223,-0.8223,-0.5007,-0.1647,0.1775,-0.0536,-0.049,0.1687,-0.2568,-0.3238,-0.1011,-0.4253,-0.5941,-0.6396,-0.6968,-1.0114,-1.49,-1.7076,-1.9121,-2.1176,-2.4744,-2.8275,-3.0523,0.0,0.0,0.0,-2.1617,-2.0033,-1.8241,-1.6413,-1.799,-1.9824,-1.6395,-1.8849,-2.3437,-2.693,-3.1573,-3.6609,-4.1556,-4.3959,-4.5124,-4.5243,-4.55,-4.5755,-4.587,-4.4934,-4.4067,-4.4067,-4.4033,-4.4297,-4.5172,-4.679,-4.825,-4.9116,-4.9976,-5.0539,-5.0539,-5.0791,-5.0972,-5.0972,-5.0932,-5.0959,-5.1084,-5.1161,-5.1265,-5.1386,-5.132,-5.1268,-5.1268,-5.121,-5.12,-5.12,-5.12,-5.12,-5.12,-5.12,-5.12,-5.12,-5.12,-5.12,-5.12,-5.12,-5.12,-5.12,-5.12,-5.12,-5.12,-5.12,-5.1167,-5.1137,-5.1137,-5.1152,-5.12,0.0,0.0,0.0,0.0,0.0,0.0,0.0,0.0,0.0,0.0,0.0,0.0,0.0,0.0,0.0,0.0,0.0,0.0,0.0,0.0,-1.5318,-1.4354,-0.2402,0.4219,0.4199,1.0508,1.3823,1.3865,1.3811,1.4104,1.467,1.1267,1.1112,1.3529,1.0087,0.8305,0.7812,0.6146,0.226,-0.307,-0.622,-0.9001,-1.164,-1.506,-1.8521,0.0,0.0,0.0,0.0,-1.3031,-1.1545,-0.9775,-0.7368,-0.9517,-1.2436,-1.0019,-1.3053,-1.8115,-2.2271,-2.7972,-3.3961,-3.8877,-4.2309,-4.4468,-4.4468,-4.4703,-4.4995,-4.5204,-4.3483,-4.2,-4.2203,-4.2591,-4.2842,-4.2756,-4.5353,-4.771,-4.862,-4.9159,-4.9828,-5.0836,-5.0953,-5.0953,-5.0953,-5.0913,-5.0965,-5.1089,-5.1151,-5.123,-5.1285,-5.121,-5.1161,-5.1161,-5.1111,-5.1094,-5.1094,-5.1094,-5.1094,-5.1094,-5.1094,-5.1094,-5.1094,-5.1094,-5.1094,-5.1094,-5.1094,-5.1094,-5.1094,-5.1094,-5.1094,-5.1094,-5.1094,-5.1063,-5.1039,-5.1039,-5.1004,-5.0966,0.0,0.0,0.0,0.0,0.0,0.0,0.0,0.0,0.0,0.0,0.0,0.0,0.0,0.0,0.0,0.0,0.0,0.0,0.0,0.0,0.0,-0.6617,0.748,1.5215,1.5156,2.7734,3.3691,3.2383,3.363,3.4344,3.4523,3.1128,3.2582,3.7771,3.1619,2.8862,2.8632,2.5617,1.7902,0.7413,0.3955,-0.1024,-0.6226,-0.5239,0.0,0.0,0.0,0.0,0.0,0.0,-0.1919,-0.4056,-0.2484,-0.2669,-0.3872,-0.596,-0.6668,-0.8146,-1.4524,-2.033,-2.5697,-3.0007,-3.605,-4.1004,-4.1198,-4.1875,-4.2674,-4.338,-4.1188,-3.9361,-3.9899,-4.1065,-4.1442,-3.9917,-4.2988,-4.5911,-4.697,-4.6893,-4.7727,-5.0409,-5.0722,-5.0703,-5.0682,-5.0796,-5.0922,-5.1011,-5.1125,-5.1167,-5.1094,-5.1084,-5.1084,-5.1084,-5.1035,-5.1015,-5.1015,-5.0977,-5.0957,-5.0957,-5.0957,-5.0957,-5.0957,-5.0957,-5.0977,-5.1015,-5.1015,-5.1035,-5.1074,-5.1074,-5.1074,-5.1074,-5.1074,-5.1004,-5.0894,-5.0894,-5.0805,-5.074,0.0,0.0,0.0,0.0,0.0,0.0,0.0,0.0,0.0,0.0,0.0,0.0,0.0,0.0,0.0,0.0,0.0,0.0,0.0,0.0,0.0,0.0,0.0,0.0,0.0,0.0,0.0,0.0,0.0,3.3901,3.4558,3.2359,3.2474,3.4376,3.1283,2.9637,2.9092,2.7432,2.3551,1.8252,0.0,1.0913,0.7574,0.0,0.0,0.0,0.0,0.0,0.0,0.0,0.284,0.6248,0.5362,0.3194,0.167,0.5186,0.0443,-0.5758,-0.4654,-1.0726,-1.7979,-2.0435,-2.4506,-2.8634,-3.1541,-3.2403,-3.3128,-3.5236,-3.3734,-3.2301,-3.3234,-3.5362,-3.7772,-4.032,-4.4646,-4.825,-4.9802,-4.9964,-5.019,-5.0906,-5.1004,-5.0875,-5.0567,-5.0592,-5.0461,-5.0081,-5.0712,-5.1122,-5.1094,-5.1004,-5.0959,-5.0959,-5.0229,-4.9823,-4.9823,-4.9186,-4.8858,-4.8858,-4.8858,-4.8858,-4.8858,-4.8858,-4.9206,-4.9823,-4.9823,-5.019,-5.0789,-5.0789,-5.0789,-5.0789,-5.0789,-5.0773,-5.0739,-5.0739,-5.0721,-5.0702,0.0,0.0,0.0,0.0,0.0,0.0,0.0,0.0,0.0,0.0,0.0,0.0,0.0,0.0,0.0,0.0,0.0,0.0,0.0,0.0,0.0,0.0,0.0,0.0,0.0,0.0,0.0,0.0,0.0,0.0,0.0,3.2424,3.2648,3.2881,3.1674,3.0864,3.0314,2.8192,0.0,0.0,0.0,0.0,0.0,0.0,0.0,0.0,0.0,0.491,0.3487,0.0896,0.3912,0.8681,0.7957,0.6908,0.6768,1.0836,0.7605,0.3077,0.467,-0.0881,-0.7338,-0.8315,-1.3723,-1.926,-2.1493,-2.3552,-2.5697,-2.806,-2.6793,-2.5695,-2.7198,-3.1117,-3.4525,-3.5843,-4.1796,-4.6719,-4.8022,-4.8411,-4.8914,-4.9873,-4.9988,-4.9789,-4.9281,-4.9238,-4.9098,-4.8792,-4.9827,-5.0458,-5.0392,-4.999,-4.9776,-4.9776,-4.8881,-4.8391,-4.8391,-4.8041,-4.7893,-4.7893,-4.803,-4.8105,-4.8105,-4.8105,-4.8375,-4.8836,-4.8836,-4.9317,-5.0125,-5.0125,-5.0337,-5.0702,-5.0702,-5.0702,-5.0702,-5.0702,-5.0702,-5.0702,0.0,0.0,0.0,0.0,0.0,0.0,0.0,0.0,0.0,0.0,0.0,0.0,0.0,0.0,0.0,0.0,0.0,0.0,0.0,0.0,0.0,0.0,0.0,0.0,0.0,0.0,0.0,0.0,0.0,0.0,0.0,0.0,0.0,0.0,0.0,0.0,0.0,0.0,0.0,0.0,0.0,0.0,0.0,0.0,0.0,0.0,1.1982,1.111,0.7923,0.1976,0.2686,0.6254,0.7992,0.9356,1.0863,1.3746,1.4171,1.3554,1.3012,0.8595,0.4169,0.4169,-0.3149,-1.0517,-1.1303,-1.4647,-1.835,-2.0688,-1.981,-1.9252,-2.1396,-2.6891,-3.087,-3.0122,-3.7161,-4.3125,-4.4299,-4.4934,-4.5941,-4.7784,-4.8171,-4.8012,-4.7254,-4.7311,-4.7311,-4.7142,-4.8278,-4.9059,-4.9219,-4.8541,-4.8079,-4.7966,-4.7294,-4.6879,-4.6766,-4.7067,-4.7209,-4.7209,-4.7507,-4.7645,-4.7645,-4.7645,-4.7703,-4.7799,-4.7799,-4.8318,-4.9163,-4.9105,-4.9663,-5.0529,-5.0431,-5.0469,-5.0604,-5.0565,-5.0544,-5.0544,0.0,0.0,0.0,0.0,0.0,0.0,0.0,0.0,0.0,0.0,-2.1882,-2.3168,0.0,0.0,0.0,0.0,0.0,0.0,0.0,0.0,0.0,0.0,0.0,0.0,0.0,3.0742,3.0254,2.9375,2.8882,0.0,0.0,0.0,0.0,0.0,0.0,0.0,0.0,0.0,0.0,0.0,0.0,0.0,0.0,0.0,0.0,0.0,1.2713,1.1122,0.7897,0.2017,0.05,0.2558,1.0209,1.154,1.1662,1.8464,1.7729,1.5368,1.875,1.5789,1.1827,1.1827,0.7951,0.3037,-0.1748,-0.3916,-0.6109,-1.0155,-1.1466,-1.2535,-1.4963,-1.9114,-2.4312,-3.1008,-3.6038,-4.0306,-4.3761,-4.4818,-4.5131,-4.4923,-4.5988,-4.6277,-4.5221,-4.575,-4.582,-4.4846,-4.4994,-4.5877,-4.7583,-4.7437,-4.6992,-4.6267,-4.6097,-4.5719,-4.504,-4.5092,-4.5117,-4.5117,-4.5192,-4.5217,-4.5217,-4.5217,-4.5577,-4.6203,-4.6203,-4.6844,-4.7895,-4.7599,-4.8323,-4.9567,-4.8952,-4.934,-5.0159,-4.9827,-4.9719,-4.9719,0.0,0.0,0.0,0.0,0.0,0.0,0.0,-1.9788,-2.2306,-2.2303,-2.2289,-2.3168,-2.5456,-2.571,-2.571,0.0,0.0,0.0,0.0,0.0,0.0,0.0,0.0,0.0,0.0,3.0898,3.0469,2.9609,0.0,2.7674,2.6622,2.5672,2.5113,2.4883,2.4731,2.4594,2.4425,0.0,0.0,2.0321,1.9493,1.7369,0.0,0.0,0.0,0.0,0.0,0.5324,0.414,0.3766,0.3657,0.3982,0.5982,0.7942,1.0593,1.6553,1.7961,1.8226,2.0678,2.0013,1.8565,1.8565,1.5663,1.1705,0.7243,0.4119,0.0836,-0.3695,-0.5956,-0.7785,-1.0133,-1.4736,-1.9844,-2.4937,-3.1281,-3.6517,-3.9076,-4.1743,-4.3231,-4.2582,-4.3093,-4.3183,-4.2308,-4.2551,-4.2603,-4.2052,-4.1904,-4.2981,-4.5558,-4.5242,-4.458,-4.3738,-4.3719,-4.3536,-4.3169,-4.3332,-4.3393,-4.3393,-4.3578,-4.3826,-4.414,-4.414,-4.4513,-4.5191,-4.5191,-4.5748,-4.6651,-4.6497,-4.7138,-4.8162,-4.7825,-4.8283,-4.9155,-4.8947,-4.9126,-4.9504,0.0,0.0,0.0,0.0,0.0,0.0,0.0,-1.9792,-2.2321,-2.2291,-2.2303,-2.3168,-2.5456,-2.569,-2.5703,0.0,0.0,0.0,0.0,0.0,0.0,0.0,0.0,0.0,0.0,0.0,0.0,2.9609,2.8705,0.0,0.0,0.0,0.0,0.0,2.4374,2.4192,2.3961,2.266,2.1411,0.0,0.0,1.6814,0.0,0.0,0.0,0.0,0.0,0.0,0.0572,0.4259,0.6371,0.6697,0.2747,0.5012,0.9917,1.3866,1.7187,1.9698,2.0554,2.1603,2.2315,2.2315,2.0035,1.6923,1.3344,0.9579,0.5529,0.0636,-0.2085,-0.426,-0.6463,-1.1289,-1.5745,-1.844,-2.5197,-3.0814,-3.299,-3.6734,-3.9175,-3.9086,-3.9569,-3.9654,-3.8967,-3.9029,-3.9089,-3.893,-3.8755,-3.998,-4.3033,-4.2597,-4.1938,-4.1358,-4.1297,-4.1297,-4.1297,-4.1736,-4.1948,-4.1948,-4.2376,-4.2844,-4.3291,-4.3291,-4.3558,-4.3994,-4.4138,-4.458,-4.5247,-4.5284,-4.5904,-4.6814,-4.6647,-4.7136,-4.7909,-4.7822,-4.8307,-4.899,0.0,0.0,0.0,0.0,0.0,0.0,0.0,-1.979,-2.2311,-2.2295,-2.2296,-2.3168,-2.5456,-2.569,-2.5703,0.0,0.0,0.0,0.0,0.0,0.0,0.0,0.0,0.0,0.0,0.0,0.0,2.9609,2.8847,0.0,0.0,0.0,0.0,0.0,0.0,2.3596,2.3533,2.3211,0.0,0.0,0.0,0.0,0.0,0.0,0.0,0.0,0.0,0.0,0.0051,0.0496,0.421,0.836,0.6836,0.8321,1.1336,1.4374,1.63,1.7654,1.8978,1.96,1.9852,1.9852,1.9563,1.8057,1.3182,1.1254,0.878,0.3092,0.0166,-0.2041,-0.4206,-0.7203,-1.0995,-1.6056,-1.8582,-2.1733,-2.6938,-2.94,-3.1152,-3.2604,-3.4925,-3.6109,-3.5375,-3.594,-3.6084,-3.5416,-3.5359,-3.6704,-3.9748,-3.9863,-3.9795,-3.9727,-3.9727,-3.9727,-3.9727,-4.04,-4.0756,-4.0756,-4.1523,-4.1908,-4.1949,-4.1949,-4.1991,-4.2091,-4.2639,-4.3069,-4.345,-4.3634,-4.4581,-4.5846,-4.5171,-4.5638,-4.6632,-4.6276,-4.6635,-4.7316,0.0,0.0,0.0,0.0,0.0,0.0,-1.6515,-1.8448,-2.0524,-2.2086,-2.2306,-2.318,-2.5449,-2.5704,-2.6533,-2.8651,0.0,0.0,0.0,0.0,0.0,0.0,0.0,0.0,0.0,0.0,3.0176,2.8691,2.9003,0.0,0.0,0.0,0.0,0.0,0.0,2.2082,2.164,2.1796,0.0,0.0,0.0,0.0,0.0,0.0,0.0,0.0,0.0,0.0,0.0,0.0,0.1555,0.3429,0.2932,0.4789,0.7485,0.908,1.3099,1.7167,1.7873,1.9647,2.1198,2.0703,2.0061,1.8206,1.3173,1.0899,0.8387,0.3278,0.0444,-0.1605,-0.3359,-0.5748,-0.8237,-1.0785,-1.4314,-1.7477,-1.968,-2.4155,-2.7429,-2.8107,-3.0369,-3.1823,-3.1536,-3.1793,-3.2129,-3.25,-3.3125,-3.406,-3.5256,-3.6821,-3.7633,-3.7633,-3.8209,-3.8494,-3.8494,-3.8764,-3.8924,-3.8941,-3.9237,-3.9817,-4.0612,-4.0612,-4.1063,-4.1793,-4.2062,-4.223,-4.2358,-4.2447,-4.3031,-4.3894,-4.3597,-4.429,-4.5411,-4.5239,-4.57,-4.6379,0.0,0.0,0.0,0.0,0.0,-1.7369,-1.7362,-1.8456,-1.9898,-2.1679,-2.2237,-2.3042,-2.4529,-2.47,-2.6039,-2.9377,-2.8175,0.0,0.0,0.0,0.0,0.0,0.0,0.0,0.0,0.0,2.6105,2.4258,2.748,2.9149,0.0,0.0,2.405,2.1161,0.0,0.0,0.0,0.0,0.0,0.0,0.0,0.0,0.0,0.0,0.0,0.0,0.0,0.0,0.0,0.0,0.0,-0.0996,-0.0664,0.0981,0.0,0.5021,1.0022,1.5097,1.6004,1.8479,2.078,2.0669,1.9477,1.7113,1.2709,0.9985,0.7116,0.2501,0.0111,-0.1551,-0.3049,-0.5089,-0.674,-0.725,-1.081,-1.3737,-1.4412,-1.8975,-2.2526,-2.3238,-2.5252,-2.6834,-2.733,-2.8062,-2.8786,-2.9631,-3.0364,-3.0764,-3.0764,-3.3069,-3.4768,-3.567,-3.6322,-3.6828,-3.7131,-3.7338,-3.7456,-3.7456,-3.769,-3.8309,-3.9218,-3.9218,-3.9817,-4.0926,-4.1108,-4.1305,-4.1534,-4.1725,-4.2038,-4.2422,-4.2422,-4.3018,-4.3831,-4.3831,-4.434,-4.5051,0.0,0.0,0.0,0.0,0.0,0.0,-1.9355,-2.0447,-2.1207,-2.1046,-2.2105,-2.2753,-2.2373,-2.2337,-2.3531,-2.648,-2.9263,0.0,0.0,0.0,0.0,0.0,0.0,0.0,0.0,0.0,1.6978,1.5234,2.3691,2.8863,3.0854,2.941,2.6171,2.151,0.0,0.0,0.0,0.0,0.0,0.0,0.0,0.0,0.0,0.0,0.0,0.0,0.0,0.0,0.0,0.0,0.0,0.0,0.0,-0.176,0.0,0.0,0.7502,1.0408,1.3012,1.5345,1.7352,1.8764,1.7155,1.4414,1.1564,0.8843,0.5604,0.0965,-0.0555,-0.1554,-0.3007,-0.5101,-0.6588,-0.6588,-0.7889,-0.9714,-1.2087,-1.3417,-1.4989,-1.7369,-1.9304,-2.1075,-2.282,-2.5127,-2.6554,-2.6554,-2.6554,-2.6554,-2.6554,-2.8452,-3.0935,-3.3945,-3.4013,-3.4543,-3.5504,-3.6228,-3.66,-3.66,-3.7397,-3.7822,-3.7806,-3.7806,-3.8246,-3.8945,-3.9529,-4.0246,-4.0949,-4.1534,-4.1793,-4.181,-4.181,-4.181,-4.181,-4.181,-4.2349,-4.3048,0.0,0.0,0.0,0.0,0.0,0.0,0.0,-2.0703,-2.1016,-2.116,-2.2108,-2.286,-2.3079,-2.3526,-2.4585,-2.6523,-2.5671,0.0,0.0,0.0,0.0,0.0,0.0,0.0,0.0,0.0,0.0,2.0299,1.3773,1.7558,3.0895,3.0444,2.8147,2.4206,1.9509,1.5316,0.0,0.0,0.0,0.0,0.0,0.0,-0.7301,0.0,0.0,0.0,0.0,0.0,0.0,0.0,0.0,0.0,0.0,0.0,0.0,-0.0551,0.3682,0.7896,0.8714,1.0816,1.2813,1.2694,1.1075,0.8931,0.6666,0.4475,0.2231,-0.0223,-0.133,-0.2325,-0.3767,-0.5425,-0.6588,-0.6588,-0.783,-0.8871,-0.9167,-1.2741,-1.5618,-1.6399,-1.9905,-2.2393,-2.2958,-2.4441,-2.5378,-2.5378,-2.6696,-2.7602,-2.7602,-2.89,-3.0101,-3.0874,-3.2324,-3.3533,-3.4476,-3.4684,-3.516,-3.5831,-3.6085,-3.6477,-3.6964,-3.6964,-3.7658,-3.8908,-3.909,-3.963,-4.0368,-4.0546,-4.0844,-4.1161,-4.1161,-4.1446,-4.181,-4.181,-4.1952,-4.2164,0.0,0.0,0.0,0.0,0.0,0.0,0.0,-2.122,-2.162,-2.1966,-2.2642,-2.32,-2.3534,-2.4426,-2.5458,-2.6641,-2.5584,0.0,0.0,0.0,0.0,0.0,0.0,0.0,0.0,0.0,-0.9788,0.7904,1.0195,1.0039,0.7578,0.758,0.7128,0.6133,0.2284,-0.0847,0.0,0.0,0.0,0.0,0.0,0.0,-1.3975,0.0,0.0,0.0,0.0,0.0,0.0,0.0,0.0,0.0,0.0,0.0,0.0,0.0,-0.0502,0.2938,0.4677,0.6602,0.8132,0.8201,0.6519,0.464,0.3588,0.1623,-0.0424,-0.1811,-0.2505,-0.3247,-0.4681,-0.5967,-0.6887,-0.6887,-0.7929,-0.8951,-0.9428,-1.2453,-1.5095,-1.6227,-1.9584,-2.1906,-2.2168,-2.3408,-2.4125,-2.4125,-2.529,-2.6006,-2.6006,-2.7226,-2.7903,-2.7782,-3.0555,-3.2425,-3.3178,-3.3693,-3.4196,-3.4632,-3.524,-3.5718,-3.6165,-3.6165,-3.6859,-3.8044,-3.8044,-3.8509,0.0,-3.9226,-3.9595,-4.015,-4.015,-4.0556,-4.1168,-4.1168,-4.1168,-4.1168,0.0,0.0,0.0,0.0,0.0,0.0,0.0,-2.1888,-2.2797,-2.3141,-2.3459,-2.3692,-2.3714,-2.501,-2.6105,-2.6734,0.0,0.0,0.0,0.0,0.0,0.0,0.0,0.0,0.0,-2.3743,-2.057,-1.7381,0.8925,0.3853,-3.0527,-3.0527,-2.8806,-2.5703,-2.5688,-2.4467,0.0,0.0,0.0,0.0,0.0,0.0,0.0,0.0,0.0,0.0,0.0,0.0,0.0,0.0,0.0,0.0,0.0,0.0,0.0,0.0,0.0,0.0,0.0,0.2523,0.3407,0.4739,0.3245,0.1424,0.1703,-0.0218,0.0,-0.3698,-0.3946,-0.4341,-0.562,-0.664,-0.7261,-0.7312,-0.8146,-0.9589,-1.2048,-1.2687,-1.3955,-1.6872,-1.8779,-2.0036,-2.045,-2.208,-2.3086,-2.3057,-2.2771,-2.2546,-2.2546,-2.4148,-2.5071,-2.5071,-2.8875,-3.1135,-3.164,-3.297,-3.3528,-3.3165,-3.4558,-3.529,-3.537,-3.5415,-3.5819,-3.6538,-3.6584,-3.704,-3.7822,-3.7822,-3.8189,-3.8799,-3.8799,-3.9315,-4.002,-4.002,-4.007,-4.007,0.0,0.0,0.0,0.0,0.0,0.0,0.0,0.0,0.0,0.0,-2.3259,-2.3522,-2.4016,-2.5481,-2.6483,0.0,0.0,0.0,0.0,0.0,0.0,0.0,0.0,0.0,0.0,-2.7682,-2.6856,-2.6073,-1.9407,-1.985,-2.6915,-2.6919,-2.6484,-2.5697,-2.5708,0.0,0.0,0.0,0.0,0.0,0.0,0.0,0.0,0.0,0.0,0.0,-1.9783,-1.783,0.0,0.0,0.0,0.0,0.0,0.0,0.0,0.0,-0.6696,-0.532,-0.4308,0.0,-0.1138,-0.0819,-0.1265,-0.1902,0.0,0.0,0.0,0.0,0.0,0.0,-0.6395,-0.6735,-0.7127,-0.7685,-0.7944,-0.9022,-1.1635,-1.542,-1.8209,-1.8907,-2.0904,-2.146,-1.9514,-2.1303,-2.2519,-2.2207,-2.2869,-2.3267,-2.3267,-2.4443,-2.5458,-2.6212,-2.7194,-2.8445,-3.0001,-3.04,-3.1225,-3.2436,-3.2788,-3.3338,-3.3978,-3.4487,-3.5107,-3.5856,-3.6383,-3.704,-3.7822,-3.7822,-3.7921,-3.8035,-3.8035,-3.8525,-3.9193,-3.9193,-3.9558,-4.007,0.0,0.0,0.0,0.0,0.0,0.0,0.0,0.0,0.0,0.0,0.0,0.0,0.0,0.0,0.0,0.0,0.0,0.0,0.0,0.0,0.0,0.0,0.0,0.0,0.0,-2.9425,-2.8873,-2.7305,-2.8875,-2.8222,-2.5518,-2.5648,-2.5697,-2.57,-2.5699,0.0,0.0,0.0,0.0,0.0,-2.391,0.0,0.0,0.0,0.0,0.0,-2.1946,-1.9514,0.0,-1.5815,-1.4626,-1.3195,0.0,0.0,0.0,0.0,-0.8471,-0.7375,-0.7335,-0.5641,-0.3913,-0.3909,-0.3938,-0.4104,-0.4427,0.0,0.0,0.0,0.0,0.0,-0.676,-0.7455,-0.7873,-0.7756,-0.8738,-1.021,-1.2259,-1.5402,-1.7889,-1.8947,-2.0239,-2.0809,-2.0286,-2.1496,-2.2129,-2.1904,-2.223,-2.2422,-2.2422,-2.33,-2.393,-2.4438,-2.5359,-2.6747,-2.8453,-2.9193,-3.0052,-3.1183,-3.1868,-3.2679,-3.3499,-3.3858,-3.4256,-3.4668,-3.5339,-3.5876,-3.6318,-3.6644,-3.6935,-3.7263,-3.7263,-3.7732,-3.8414,-3.8799,-3.8978,-3.9172,0.0,0.0,0.0,0.0,0.0,0.0,0.0,0.0,0.0,0.0,0.0,0.0,0.0,0.0,0.0,0.0,0.0,0.0,0.0,0.0,0.0,0.0,0.0,-2.9214,-2.9221,-2.999,-2.8711,-2.5308,-2.8206,-2.8153,-2.537,-2.5558,-2.566,-2.5709,-2.569,-2.5238,0.0,0.0,-2.437,-2.4369,-2.4355,0.0,0.0,0.0,0.0,0.0,0.0,0.0,0.0,-1.5802,-1.4827,-1.3591,-1.3607,0.0,0.0,0.0,0.0,0.0,-0.8918,-0.7461,-0.5991,-0.5636,-0.5432,-0.5303,-0.5437,0.0,0.0,0.0,0.0,-0.6526,-0.7174,-0.8127,-0.8631,-0.7809,-0.9914,-1.2091,-1.3564,-1.4976,-1.6453,-1.8018,-1.8686,-1.9583,-2.1118,-2.1549,-2.1758,-2.1689,-2.1338,-2.1133,-2.1133,-2.1511,-2.1886,-2.2027,-2.3818,-2.5433,-2.693,-2.8337,-2.928,-2.9646,-3.1069,-3.2184,-3.3002,-3.3229,-3.335,-3.338,-3.4038,-3.4322,-3.4382,-3.507,-3.5743,-3.6292,-3.64,-3.6919,-3.769,-3.8342,-3.8246,-3.7978,0.0,0.0,0.0,0.0,0.0,0.0,0.0,0.0,0.0,0.0,0.0,0.0,0.0,0.0,0.0,0.0,0.0,0.0,0.0,0.0,0.0,0.0,-3.019,-3.0177,-3.0185,-3.0333,-2.8706,-2.5306,-2.5831,-2.5929,-2.5622,-2.5441,-2.5479,-2.5703,-2.5697,-2.5607,-2.5456,-2.5239,-2.5126,-2.5125,-2.5132,0.0,0.0,0.0,0.0,0.0,0.0,0.0,0.0,-1.5805,-1.5625,-1.541,-1.5408,0.0,0.0,0.0,0.0,0.0,-0.956,-0.9305,-0.9082,-0.7184,-0.6021,-0.5437,-0.5964,0.0,0.0,0.0,-0.6894,-0.7203,-0.8293,-0.7889,-0.7635,-0.8464,-1.0857,-1.333,-1.5484,-1.7863,-1.8825,-1.7197,-1.9608,-2.0543,-1.8461,-2.0071,-2.1182,-2.0801,-2.0703,-2.0664,-2.0664,-2.0751,-2.1155,-2.1952,-2.3147,-2.4227,-2.5349,-2.642,-2.7314,-2.8053,-2.9045,-2.9973,-3.0829,-3.2079,-3.2662,-3.2706,-3.3365,-3.3649,-3.3709,-3.4367,-3.4748,-3.4856,-3.5443,-3.6117,-3.6783,-3.6904,-3.7322,-3.7806,0.0,0.0,0.0,0.0,0.0,0.0,0.0,0.0,0.0,0.0,0.0,0.0,0.0,0.0,0.0,0.0,0.0,0.0,0.0,0.0,0.0,0.0,-2.9679,-2.9535,-2.7669,-2.7637,-2.6876,-2.529,-2.5376,-2.5466,-2.5596,-2.5542,-2.5583,-2.5703,-2.5693,-2.571,-2.5673,-2.5418,-2.5303,-2.5309,0.0,0.0,0.0,0.0,0.0,0.0,0.0,0.0,0.0,0.0,-1.5792,-1.5786,-1.5808,0.0,0.0,0.0,0.0,0.0,-1.0448,-1.0043,-0.9588,-0.8989,-0.8481,-0.8226,-0.8502,0.0,0.0,-0.8068,-0.7989,-0.8345,-0.9453,-0.9281,-0.9532,-1.1363,-1.1609,-1.2401,-1.4633,-1.5516,-1.6168,-1.6893,-1.8387,-1.9297,-1.922,-2.0246,-2.0791,-2.0576,-2.0566,-2.0566,-2.0566,-2.0566,-2.0789,-2.1221,-2.2702,-2.3745,-2.4181,-2.5721,-2.7162,-2.8427,-2.8298,-2.9002,-3.0343,-3.101,-3.1276,-3.138,-3.1997,-3.2552,-3.296,-3.3184,-3.3735,-3.4502,-3.4831,-3.5401,-3.6006,-3.6006,-3.6768,-3.7748,0.0,0.0,0.0,0.0,0.0,0.0,0.0,0.0,0.0,0.0,0.0,0.0,0.0,0.0,0.0,0.0,0.0,0.0,0.0,0.0,-2.6516,-2.6711,-2.8505,-2.8206,-2.5367,-2.5302,-2.529,-2.5302,-2.5406,-2.5441,-2.5456,-2.562,-2.5701,-2.5703,-2.5703,-2.5705,-2.5688,-2.5415,-2.5297,-2.5303,0.0,0.0,0.0,0.0,0.0,0.0,0.0,0.0,0.0,0.0,0.0,0.0,0.0,0.0,0.0,-1.3313,-1.2142,-1.097,-1.1035,-1.0398,-0.9805,-1.0285,-1.0181,0.0,0.0,0.0,0.0,-0.9667,-0.9377,-0.948,-1.027,-1.0755,-1.1668,-1.3865,-1.2877,-1.2572,-1.4814,-1.4364,-1.4757,-1.7293,-1.7806,-1.8676,-2.0439,-2.0566,-2.0566,-2.0566,-2.0566,-2.0566,-2.0566,-2.0566,-2.0712,-2.0934,-2.2638,-2.3588,-2.3818,-2.5581,-2.7162,-2.8427,-2.792,-2.8427,-2.969,-2.9889,-3.0011,-3.004,-3.0483,-3.1083,-3.1689,-3.1665,-3.2469,-3.3758,-3.407,-3.4748,-3.5504,-3.5504,-3.6258,-3.7175,0.0,0.0,0.0,0.0,0.0,0.0,0.0,0.0,0.0,0.0,0.0,0.0,0.0,0.0,0.0,0.0,0.0,0.0,0.0,0.0,-2.5922,-2.6666,-2.6866,-2.6427,-2.5308,-2.5297,-2.5302,-2.5303,-2.5313,-2.531,-2.5317,-2.558,-2.5703,-2.5703,-2.5693,-2.5701,-2.5683,-2.5409,-2.5305,-2.5303,-2.5303,0.0,0.0,0.0,0.0,0.0,0.0,0.0,0.0,0.0,0.0,0.0,0.0,0.0,-1.5286,-1.3677,-1.3119,-1.26,-1.0864,-1.0739,-1.104,-1.0511,-0.9252,0.0,-1.1447,-1.0437,0.0,-1.1518,-1.1152,-1.0497,-1.0552,-1.141,-1.2629,-1.4319,-1.4927,-1.6016,-1.8326,-1.853,-1.8581,-1.8855,-1.9743,-2.043,-2.0547,-2.0566,-2.0566,-2.0566,-2.0566,-2.0566,-2.0566,-2.0566,-2.1001,-2.1886,-2.2925,-2.3963,-2.4862,-2.5943,-2.6589,-2.6714,-2.7351,-2.7802,-2.792,-2.8748,-2.9066,-2.9129,-2.9107,-2.9184,-2.9303,-2.9914,-3.0694,-3.1546,-3.2825,-3.42,-3.5504,-3.5504,-3.5569,-3.5683,0.0,0.0,0.0,0.0,0.0,0.0,0.0,0.0,0.0,0.0,0.0,0.0,0.0,0.0,0.0,0.0,0.0,0.0,0.0,0.0,-2.5623,-2.5948,-2.5427,-2.5188,-2.5296,-2.5298,-2.5303,-2.5305,-2.5312,-2.5399,-2.5543,-2.5657,-2.5699,-2.5703,-2.5691,-2.5619,-2.545,-2.5344,-2.5297,-2.5303,-2.5297,-2.5298,0.0,0.0,0.0,0.0,0.0,0.0,0.0,0.0,-1.7462,-1.7051,-1.7039,-1.6471,-1.5682,-1.5017,-1.404,-1.2771,-1.0848,-1.2036,-1.3369,-1.1392,-1.066,0.0,0.0,-1.2617,-1.236,-1.1839,-1.2749,-1.3279,-1.1866,-1.4266,-1.5897,-1.4418,-1.5559,-1.7174,-1.8797,-1.9036,-1.9283,-1.9923,-2.0323,-2.0566,-2.0566,-2.0566,-2.0566,-2.0566,-2.0566,-2.0566,-2.0566,-2.0566,-2.1001,-2.1952,-2.2999,-2.3963,-2.5016,-2.6025,-2.6533,-2.6533,-2.6782,-2.7229,-2.7736,-2.8051,-2.8182,-2.8182,-2.8182,-2.8115,-2.8048,-2.7775,-2.8385,-2.9728,-3.159,-3.2274,-3.2401,-3.3377,-3.3685,-3.3685,0.0,0.0,0.0,0.0,0.0,0.0,0.0,0.0,0.0,0.0,0.0,0.0,0.0,0.0,0.0,0.0,0.0,0.0,0.0,-2.4984,-2.5059,-2.5319,-2.4608,-2.4551,-2.5273,-2.5294,-2.5297,-2.5297,-2.5381,-2.5473,-2.5584,-2.5661,-2.5703,-2.57,-2.5707,-2.5541,-2.5296,-2.5302,-2.529,-2.5293,-2.5288,-2.516,0.0,0.0,0.0,0.0,0.0,0.0,0.0,0.0,-1.8266,-1.8222,-1.7888,-1.6886,-1.5788,-1.5817,-1.4949,-1.3631,-1.1741,-1.2466,-1.3686,-1.3162,0.0,0.0,-1.376,-1.419,-1.4122,-1.3839,-1.4445,-1.478,-1.3721,-1.5945,-1.7313,-1.5463,-1.6995,-1.863,-1.9362,-1.952,-1.9766,-2.0479,-2.0566,-2.0566,-2.0566,-2.0566,-2.0566,-2.0566,-2.0566,-2.0566,-2.0566,-2.0566,-2.1001,-2.1952,-2.2702,-2.3661,-2.5016,-2.5358,-2.5721,-2.6025,-2.5721,-2.6045,-2.6854,-2.6854,-2.6693,-2.6395,-2.6395,-2.6332,-2.6176,-2.5632,-2.6332,-2.7864,-2.9929,-3.0551,-3.0463,-3.1828,-3.2441,-3.2593,0.0,0.0,0.0,0.0,0.0,0.0,0.0,0.0,0.0,0.0,0.0,0.0,0.0,0.0,0.0,0.0,0.0,0.0,0.0,-2.3929,-2.4089,-2.4946,-2.4501,-2.4563,-2.5286,-2.5303,-2.5297,-2.5297,-2.5563,-2.5564,-2.531,-2.5582,-2.5698,-2.5696,-2.5704,-2.5549,-2.5309,-2.5302,-2.5303,-2.5302,-2.5274,-2.4803,-2.3821,0.0,0.0,0.0,0.0,0.0,0.0,0.0,-1.9307,-1.9094,-1.8108,-1.6897,-1.5816,-1.5816,-1.5809,-1.541,-1.379,-1.1872,-1.145,-1.5941,0.0,0.0,-1.5646,-1.4638,-1.4174,-1.8154,-1.633,-1.445,-1.607,-1.6018,-1.6167,-1.7725,-1.9453,-2.0566,-2.0566,-2.0566,-2.0566,-2.0566,-2.0566,-2.0566,-2.0566,-2.0566,-2.0566,-2.0566,-2.0566,-2.0566,-2.0566,-2.0566,-2.1001,-2.1952,-2.2027,-2.2925,-2.4933,-2.3963,-2.3963,-2.4933,-2.3963,-2.4036,-2.5016,-2.5016,-2.4409,-2.3514,-2.3514,-2.3514,-2.3514,-2.3514,-2.4388,-2.5901,-2.7717,-2.9207,-3.0326,-3.1363,-3.2068,-3.2522,0.0,0.0,0.0,0.0,0.0,0.0,0.0,0.0,0.0,0.0,0.0,0.0,0.0,0.0,0.0,0.0,0.0,0.0,0.0,-2.4124,-2.4243,-2.469,-2.457,-2.4747,-2.5292,-2.5484,-2.5581,-2.5586,-2.5662,-2.566,-2.5582,-2.5665,-2.5598,-2.5418,-2.5421,-2.5374,-2.5309,-2.5309,-2.5312,-2.5091,-2.2727,-2.1642,-2.1356,0.0,0.0,0.0,0.0,0.0,0.0,0.0,0.0,0.0,-1.7889,-1.7536,-1.7023,-1.6074,-1.4927,-1.5219,-2.0999,-2.0084,-1.707,-1.5184,-1.5357,-1.6275,-1.7273,-1.5806,-1.5205,-1.8378,-1.7842,-1.6802,-1.6941,-1.8171,-1.8722,-1.7631,-1.9222,-2.0323,-1.9599,-1.9441,-1.9195,-1.8381,-1.831,-1.863,-1.9362,-1.8789,-1.863,-1.9441,-1.8709,-1.863,-1.9441,-1.8709,-1.9386,-2.1952,-2.1237,-2.1899,-2.3891,-2.2922,-2.2922,-2.3963,-2.2911,-2.2922,-2.3963,-2.3963,-2.3818,-2.3514,-2.3514,-2.3073,-2.2478,-2.2478,-2.2317,-2.2368,-2.4687,-2.537,-2.5279,-2.6942,-2.7698,-2.7891,0.0,0.0,0.0,0.0,0.0,0.0,0.0,0.0,0.0,0.0,0.0,0.0,0.0,0.0,0.0,0.0,0.0,0.0,0.0,0.0,-2.4303,-2.4551,-2.4648,-2.4905,-2.5293,-2.5564,-2.5707,-2.5694,-2.5698,-2.564,-2.5542,-2.5532,-2.5446,-2.5304,-2.5294,-2.5294,-2.5302,-2.5301,-2.4532,-2.3139,-2.1101,-2.0298,-2.0289,0.0,0.0,0.0,0.0,0.0,0.0,0.0,0.0,0.0,-1.7919,-1.78,-1.7542,-1.617,-1.5049,-1.5243,-1.9964,-1.9898,-1.8205,-1.6808,-1.6934,-1.7464,-1.7678,-1.7376,-1.7486,-1.8758,-1.8352,-1.7605,-1.7311,-1.7991,-1.831,-1.7388,-1.8402,-1.9027,-1.839,-1.831,-1.8069,-1.7415,-1.7342,-1.7577,-1.823,-1.7658,-1.7585,-1.831,-1.7666,-1.7585,-1.831,-1.7658,-1.8204,-2.0081,-1.9515,-1.9955,-2.1621,-2.0602,-2.0775,-2.2275,-2.0775,-2.0631,-2.178,-2.2542,-2.2702,-2.2339,-2.2339,-2.1962,-2.1441,-2.1441,-2.1078,-2.0819,-2.2647,-2.3177,-2.3147,-2.4836,-2.5644,-2.5891,0.0,0.0,0.0,0.0,0.0,0.0,0.0,0.0,0.0,0.0,0.0,0.0,0.0,0.0,0.0,0.0,0.0,0.0,0.0,0.0,-2.4303,-2.4528,-2.4802,-2.5053,-2.5309,-2.5571,-2.5701,-2.5703,-2.5709,-2.5556,-2.5303,-2.5304,-2.5294,-2.5298,-2.5302,-2.5313,-2.5283,-2.4965,-2.309,-2.0291,-2.0291,-2.0307,-2.0312,-2.0312,0.0,0.0,0.0,0.0,0.0,0.0,0.0,0.0,-1.8231,-1.786,-1.7572,-1.6344,-1.6589,-1.6651,-1.3952,-1.4611,-1.686,-1.9869,-1.8692,-1.6946,-1.7514,-1.9107,-2.0167,-1.9036,-1.7989,-1.7342,-1.7342,-1.6519,-1.6191,-1.7172,-1.7342,-1.7253,-1.718,-1.709,-1.7009,-1.7009,-1.6927,-1.6919,-1.709,-1.7009,-1.6919,-1.7172,-1.6919,-1.6919,-1.7172,-1.6919,-1.6919,-1.7163,-1.6911,-1.7349,-1.847,-1.7518,-1.8009,-1.9946,-1.7937,-1.7568,-1.878,-2.071,-2.1125,-2.0323,-2.0323,-2.0323,-2.0323,-2.0323,-2.0323,-2.0391,-2.1268,-2.1896,-2.2564,-2.387,-2.4664,-2.5216,0.0,0.0,0.0,0.0,0.0,0.0,0.0,0.0,0.0,0.0,0.0,0.0,0.0,0.0,0.0,0.0,0.0,0.0,0.0,0.0,-2.4357,-2.4716,-2.5043,-2.5301,-2.545,-2.563,-2.5696,-2.5709,-2.5691,-2.557,-2.5293,-2.5306,-2.5312,-2.5303,-2.5303,-2.5293,-2.5119,-2.2485,-2.096,-2.0291,-2.0296,-2.0304,-2.0312,-2.0312,-2.0312,0.0,0.0,0.0,0.0,0.0,0.0,0.0,-1.9052,-1.844,-1.7748,-1.745,-2.2492,-2.5934,-1.5937,-1.7404,-2.1591,-2.0818,-2.0124,-1.9707,-1.9837,-1.9599,-1.9036,-1.7908,-1.7504,-1.7342,-1.7342,-1.709,-1.7009,-1.7261,-1.7342,-1.7009,-1.6191,-1.5253,-1.4754,-1.4817,-1.3937,-1.4085,-1.5854,-1.442,-1.4085,-1.5944,-1.442,-1.4169,-1.5944,-1.4337,-1.4142,-1.5934,-1.4255,-1.4241,-1.6304,-1.5202,-1.5367,-1.6629,-1.5367,-1.5292,-1.6417,-1.7688,-1.8204,-1.798,-1.798,-1.798,-1.798,-1.798,-1.798,-1.806,-1.8204,-1.8407,-1.861,-1.9226,-1.9692,-2.0077,0.0,0.0,0.0,0.0,0.0,0.0,0.0,0.0,0.0,0.0,0.0,0.0,0.0,0.0,0.0,0.0,0.0,0.0,0.0,0.0,0.0,-2.4877,-2.516,-2.5324,-2.5411,-2.5532,-2.564,-2.5698,-2.5578,-2.5434,0.0,-2.5299,-2.5303,-2.5303,-2.5303,-2.4417,-2.2784,-2.1029,-2.0293,-2.0305,-2.0307,-2.0299,-2.0295,-2.0295,-2.0295,-2.0307,-2.0297,0.0,0.0,0.0,0.0,0.0,0.0,0.0,-1.7795,-1.7795,-2.0752,-2.3353,-2.0374,-2.1478,-2.3034,-2.1107,-2.0177,-1.9835,-1.9835,-1.8541,-1.7245,-1.6683,-1.6519,-1.6355,-1.5876,-1.5801,-1.5801,-1.5801,-1.5801,-1.5372,-1.4266,-1.3581,-1.2996,-1.251,-1.1901,-1.1975,-1.3153,-1.214,-1.1975,-1.3153,-1.214,-1.1975,-1.3153,-1.2145,-1.2043,-1.3187,-1.2008,-1.2008,-1.3187,-1.262,-1.2946,-1.3985,-1.2862,-1.2705,-1.3271,-1.6062,-1.7342,-1.7342,-1.7342,-1.7342,-1.7342,-1.7342,-1.7342,-1.7342,-1.7342,-1.7342,-1.7383,-1.7838,-1.8194,-1.8473,0.0,0.0,0.0,0.0,0.0,0.0,0.0,0.0,0.0,0.0,0.0,0.0,0.0,0.0,0.0,0.0,0.0,0.0,0.0,0.0,0.0,0.0,-2.5184,-2.5305,-2.5333,-2.543,-2.5564,-2.569,-2.5438,0.0,0.0,0.0,0.0,-2.5293,-2.5312,-2.3437,-2.0304,-2.031,-2.0304,-2.0288,-2.0175,-2.0197,-2.0298,-2.0298,-2.0241,-2.0127,-2.0125,-1.9763,-1.9287,-1.9304,0.0,0.0,0.0,0.0,-1.8021,-1.7844,-1.7005,-1.739,-2.3122,-2.3838,-2.2633,-2.1219,-1.9913,-1.9036,-1.9036,-1.7326,-1.5696,-1.5696,-1.5538,-1.5137,-1.425,-1.4088,-1.4004,-1.3822,-1.3822,-1.3385,-1.2157,-1.1815,-1.1466,-1.0697,-1.0438,-1.0351,-1.0611,-1.0438,-1.026,-1.0255,-1.026,-1.026,-1.0255,-1.0077,-0.999,-0.999,-0.9639,-0.9461,-0.9721,-0.9721,-1.0129,-1.1022,-1.0129,-0.9721,-0.9803,-1.3748,-1.5786,-1.6152,-1.6152,-1.6152,-1.6152,-1.6152,-1.6152,-1.6152,-1.6152,-1.6152,-1.6191,-1.656,-1.7055,-1.7494,0.0,0.0,0.0,0.0,0.0,0.0,0.0,0.0,0.0,0.0,0.0,0.0,0.0,0.0,0.0,0.0,0.0,0.0,-2.4716,0.0,0.0,-2.501,-2.5184,-2.5343,-2.5469,-2.5493,-2.5574,-2.5697,0.0,0.0,0.0,0.0,0.0,-2.5293,0.0,-2.3435,-2.031,-2.0296,-2.0296,-2.0249,-1.9665,-1.9788,-2.0307,-2.0307,-1.9934,-1.9441,-1.9431,-1.9371,-1.9294,-1.9303,-1.93,0.0,0.0,0.0,-1.8925,-1.8061,-1.7657,-1.7492,-1.7273,-1.9057,-2.1126,-2.1671,-2.042,-1.9036,-1.9036,-1.7326,-1.5696,-1.5696,-1.4977,-1.425,-1.4173,-1.4088,-1.3737,-1.2681,-1.2504,-1.2157,-1.0956,-1.0009,-0.9666,-1.0524,-0.9753,-0.9492,-1.0524,-0.9662,-0.9131,-0.9005,-0.9126,-0.9131,-0.9005,-0.8134,-0.7526,-0.7526,-0.5596,-0.4977,-0.6022,-0.6022,-0.6107,-0.6186,-0.6107,-0.6022,-0.6022,-0.7642,-0.9556,-1.145,-1.145,-1.145,-1.145,-1.145,-1.145,-1.145,-1.145,-1.145,-1.1541,-1.1574,-1.2435,-1.3586,0.0,0.0,0.0,0.0,0.0,0.0,0.0,0.0,0.0,0.0,0.0,0.0,0.0,0.0,0.0,-2.479,-2.4804,-2.4828,-2.4904,-2.4962,-2.5046,-2.5163,-2.5253,-2.5363,-2.5508,-2.5493,-2.5568,-2.5694,0.0,0.0,0.0,-2.531,-2.5299,0.0,0.0,0.0,-2.0291,-2.0296,-2.0299,-2.0267,-1.9992,-2.0037,-2.0308,-2.0298,-2.0117,-1.9868,-1.9855,-1.9852,-1.9861,-1.9851,-1.9847,-1.9849,-1.9862,0.0,0.0,0.0,-1.8225,-1.7523,-1.6179,-1.8923,-2.2031,-2.1356,-2.0091,-1.8798,-1.823,-1.6838,-1.5538,-1.4894,-1.388,-1.3294,-1.3997,-1.3555,-1.2942,-1.2413,-1.1724,-1.0956,-0.9836,-0.9235,-0.8798,-0.8615,-0.765,-0.7119,-0.7639,-0.6577,-0.5957,-0.5855,-0.5954,-0.5954,-0.5855,-0.5419,-0.4796,-0.4164,-0.3109,-0.2486,-0.2298,-0.2298,-0.2298,-0.2298,-0.2298,-0.2298,-0.2386,-0.3532,-0.6087,-0.9625,-0.9625,-0.9981,-1.0611,-1.0611,-1.0611,-1.0611,-1.0611,-1.0611,-1.0611,-1.0611,-1.1102,-1.1865,0.0,0.0,0.0,0.0,0.0,0.0,0.0,0.0,0.0,0.0,0.0,0.0,0.0,0.0,0.0,0.0,-2.4896,-2.4975,-2.5077,-2.5077,-2.5143,-2.5331,-2.534,-2.5391,-2.5492,-2.5516,-2.5588,0.0,0.0,0.0,-2.5391,-2.5402,-2.5372,0.0,-2.1795,-2.0293,0.0,-2.0304,-2.031,-2.0298,-2.0304,-2.0308,-2.0679,-2.4128,-2.3288,-2.0297,-2.0293,-2.0304,-2.0297,-2.0291,-2.0302,-2.0289,-2.0302,-1.9838,0.0,0.0,0.0,-1.7504,-1.6166,-1.9098,-2.2344,-2.1317,-1.9811,-1.8366,-1.7814,-1.6683,-1.5455,-1.465,-1.336,-1.2589,-1.347,-1.2681,-1.1809,-1.1466,-1.0697,-0.9749,-0.8627,-0.8185,-0.7658,-0.6782,-0.5622,-0.4912,-0.4912,-0.4105,-0.3481,-0.3126,-0.3121,-0.3031,-0.2675,-0.2405,-0.1779,-0.0888,-0.0622,0.0,0.0885,0.0885,0.0885,0.0885,0.0885,0.0885,0.0885,0.0,-0.2475,-0.6162,-0.7061,-0.7956,-0.8844,-0.9118,-0.9296,-0.9296,-0.9296,-0.9474,-0.9657,-0.9387,-0.9832,-1.0538,0.0,0.0,0.0,0.0,0.0,0.0,0.0,0.0,0.0,0.0,0.0,0.0,0.0,-2.4776,-2.4986,-2.4998,-2.5163,-2.5293,-2.5274,-2.5274,-2.5312,-2.5383,-2.5398,0.0,-2.55,-2.5559,0.0,0.0,0.0,0.0,-2.5688,-2.5686,-2.5538,-2.5156,-2.1798,-2.0301,-2.0304,0.0,-2.0304,-2.0296,-2.0307,-2.0289,-2.1703,-3.4558,-3.1484,-2.0297,-2.0295,-2.0298,-2.0298,-2.0293,-2.0296,-2.0293,-2.0289,-1.9835,-1.9307,0.0,0.0,0.0,-1.6154,-1.7846,-2.0393,-2.1982,-1.9796,-1.7472,-1.8683,-1.7245,-1.5696,-1.5621,-1.3847,-1.2328,-1.2413,-1.1466,-1.0351,-0.9235,-0.9065,-0.854,-0.7404,-0.6248,-0.5536,-0.5536,-0.4463,-0.3659,-0.3659,-0.3659,-0.3126,-0.1969,-0.1871,-0.1423,-0.0267,0.0889,0.151,0.1599,0.2761,0.3388,0.3388,0.3388,0.3388,0.3388,0.3388,0.3388,0.3388,0.3388,0.2581,0.1064,-0.2401,-0.3922,-0.4013,-0.5174,-0.5711,-0.5711,-0.5711,-0.6334,-0.7136,-0.6068,-0.7129,-0.9016,0.0,0.0,0.0,0.0,0.0,0.0,0.0,0.0,0.0,0.0,0.0,0.0,0.0,-2.4727,-2.4904,-2.4998,-2.5173,-2.5322,-2.5363,-2.5363,-2.5391,-2.5465,-2.5451,-2.5498,-2.5562,-2.5542,0.0,0.0,0.0,-2.5698,-2.5691,-2.5691,-2.4404,-2.2037,-2.0846,-2.0299,-2.0312,-2.0312,-2.0312,-2.0296,-2.0298,-2.5503,-3.3785,-3.8653,-3.7502,-3.3256,-3.3265,-2.7682,-2.0298,-2.0298,-2.0312,-2.0307,-2.0289,-1.9831,-1.9313,-1.9292,-1.8575,-1.7705,-1.7223,-1.7157,-1.7525,-1.879,-1.884,-1.8424,-1.789,-1.7261,-1.6519,-1.5861,-1.3328,-1.1209,-1.1209,-1.0265,-0.941,-0.8978,-0.8277,-0.7309,-0.616,-0.5625,-0.509,-0.4374,-0.3215,-0.2413,-0.2413,-0.1701,-0.0806,0.0447,0.0536,0.107,0.2227,0.2763,0.3296,0.4098,0.455,0.5087,0.58,0.5888,0.5888,0.5888,0.5888,0.5888,0.5797,0.5087,0.455,0.4009,0.1958,-0.0267,-0.2581,-0.3746,-0.4283,-0.4283,-0.4283,-0.4461,-0.4905,-0.5267,-0.5888,-0.6792,0.0,0.0,0.0,0.0,0.0,0.0,0.0,0.0,0.0,0.0,0.0,0.0,0.0,0.0,-2.493,-2.5088,-2.5224,-2.5322,-2.5352,-2.5383,-2.5421,-2.5508,-2.5511,-2.5561,-2.5634,0.0,0.0,0.0,0.0,0.0,0.0,-2.3998,-2.2672,-2.0305,-2.0296,-2.0308,-2.0312,-2.0312,-2.0312,-2.0296,-2.0289,-2.8401,-4.0505,-4.0505,-3.7672,-3.4302,-3.8864,-3.4728,-2.6378,-2.1825,-2.0298,-2.0298,-2.0307,-1.9836,-1.9307,-1.9301,-1.8823,-1.8219,-1.7876,-1.6988,-1.6382,-1.7287,-1.7856,-1.8132,-1.7919,-1.7542,-1.7035,-1.6335,-1.382,-1.1541,-1.0778,-0.9666,-0.8623,-0.783,-0.7041,-0.616,-0.4999,-0.4465,-0.3929,-0.3126,-0.1609,-0.0626,-0.0626,0.0537,0.1522,0.2325,0.2771,0.3395,0.4194,0.4989,0.596,0.7112,0.7112,0.7295,0.7665,0.7665,0.7489,0.7139,0.7139,0.7139,0.7051,0.6337,0.5983,0.5891,0.4283,0.2048,-0.0712,-0.187,-0.2587,-0.3037,-0.3037,-0.3215,-0.3659,-0.4018,-0.4465,-0.4919,0.0,0.0,0.0,0.0,0.0,0.0,0.0,0.0,0.0,0.0,0.0,0.0,0.0,0.0,0.0,-2.5274,-2.5303,-2.5303,-2.5293,-2.5363,-2.5428,-2.5489,-2.5561,-2.5634,-2.5703,0.0,0.0,0.0,0.0,0.0,0.0,0.0,-2.0492,-2.0309,-2.0302,-2.0302,-2.0312,-2.0312,-2.0312,-2.0307,-2.0291,-2.8398,-4.0451,-4.0069,-3.1732,-2.2014,-3.5191,-4.0169,-3.8489,-2.5321,-2.0895,-2.0831,-2.0441,-1.9845,-1.9332,-1.931,-1.9292,-1.9094,0.0,0.0,0.0,-1.7868,-1.692,-1.6374,-1.8765,-1.8175,-1.7158,-1.7288,-1.5539,-1.3387,-1.1117,-0.9749,-0.8181,-0.58,-0.5447,-0.4999,-0.3748,-0.2592,-0.179,-0.1791,0.0358,0.179,0.179,0.2858,0.357,0.3659,0.4732,0.5447,0.5447,0.7654,0.9405,1.0524,1.0611,1.0009,0.889,0.889,0.8277,0.7139,0.7139,0.7139,0.7139,0.7139,0.7139,0.6962,0.4727,0.3037,0.1789,0.0535,-0.0714,-0.1791,-0.1791,-0.2503,-0.3393,-0.2236,-0.2503,-0.357,0.0,0.0,0.0,0.0,0.0,0.0,0.0,0.0,0.0,0.0,0.0,0.0,0.0,0.0,-2.5088,-2.5274,-2.5303,-2.5331,-2.536,-2.5383,-2.5453,-2.5564,-2.5595,-2.5634,-2.5703,0.0,0.0,0.0,0.0,0.0,0.0,0.0,0.0,0.0,-2.0366,-2.0302,-2.0312,-2.0312,-2.0312,-2.0307,-2.0291,-2.8411,-3.9433,-2.9608,-2.3554,-2.0788,-2.4547,-3.2186,-3.9925,-3.6164,-3.4905,-3.3199,-2.339,-2.0171,-1.9922,-1.9447,-1.9295,-1.9239,-1.8968,0.0,0.0,0.0,0.0,0.0,-1.7074,-1.7904,-1.8315,-1.7348,-1.5996,-1.4634,-1.329,-1.145,-0.9387,-0.7011,-0.5968,-0.4999,-0.3748,-0.2592,-0.1433,-0.0628,0.009,0.0807,0.1701,0.2057,0.3038,0.4732,0.5179,0.5805,0.6605,0.8101,0.9065,0.9318,1.0183,1.0009,0.889,0.889,0.8277,0.7139,0.7139,0.7139,0.7139,0.7139,0.7139,0.7051,0.6422,0.4996,0.2948,0.0895,-0.0179,-0.0539,-0.0539,-0.0718,-0.1076,-0.1612,-0.1969,-0.2592,0.0,0.0,0.0,0.0,0.0,0.0,0.0,0.0,0.0,0.0,0.0,0.0,0.0,0.0,-2.5163,-2.5284,-2.5303,-2.5322,-2.5354,-2.5376,-2.5292,-2.5028,-2.5398,-2.5457,-2.5156,0.0,0.0,0.0,0.0,0.0,0.0,0.0,0.0,0.0,0.0,0.0,-2.0306,-2.0308,-2.0312,-2.0307,-2.0291,-2.8403,-3.963,-3.1732,-2.8717,-2.8736,-2.8731,-3.3788,-3.9651,-3.3983,-3.2076,-3.0685,-2.2793,-2.0297,-2.0222,-1.9832,-1.9524,-1.931,-1.9308,-1.8643,-1.7855,-1.7596,0.0,0.0,-1.8313,-1.9244,-1.9855,-1.9682,-1.877,-1.7443,-1.5613,-1.3516,-1.1428,-0.9497,-0.7869,-0.5866,-0.3213,-0.2236,-0.1344,-0.018,0.0449,0.1254,0.2413,0.3038,0.4107,0.5983,0.6071,0.6602,0.7753,0.854,0.9152,0.9579,1.0265,1.0009,0.889,0.889,0.8277,0.7139,0.7139,0.7139,0.7139,0.7139,0.7139,0.7051,0.6065,0.4905,0.3392,0.0986,0.0,0.0,0.0,0.0,-0.018,-0.1344,-0.179,-0.2058,0.0,0.0,0.0,0.0,0.0,0.0,0.0,0.0,0.0,0.0,0.0,0.0,0.0,0.0,0.0,0.0,-2.5303,-2.5303,-2.5303,-2.5365,-2.5071,-2.436,-2.504,-2.5119,-2.4394,0.0,0.0,0.0,0.0,0.0,0.0,0.0,0.0,0.0,0.0,0.0,-2.0307,-2.0292,-2.0304,-2.0291,-2.0302,-2.8409,-4.0509,-4.0494,-4.0501,-4.05,-4.05,-4.0505,-3.8656,-2.6597,-2.2534,-2.2291,-2.0774,-2.031,-2.0308,-2.0308,-1.9881,-1.9401,-1.9372,-1.8797,-1.8214,-1.8216,-1.7434,0.0,-2.0556,-2.0971,-2.1064,-2.2313,-2.193,-2.0471,-1.7626,-1.5393,-1.3628,-1.2367,-1.0475,-0.7591,-0.3028,-0.2234,-0.17,-0.0359,0.0717,0.1967,0.3481,0.4552,0.5714,0.6962,0.7139,0.7577,0.8627,0.8803,0.9405,1.0351,1.0524,1.0009,0.889,0.889,0.8277,0.7139,0.7139,0.7139,0.7139,0.6962,0.6962,0.6962,0.4639,0.357,0.3392,0.1165,0.009,0.0,0.0,0.0,-0.009,-0.1165,-0.17,-0.1969,-2.2344,0.0,0.0,0.0,0.0,0.0,0.0,0.0,0.0,0.0,0.0,0.0,0.0,0.0,0.0,0.0,-2.5303,-2.5303,-2.5303,-2.5313,-2.528,-2.5168,-2.4717,-2.4418,-2.4319,-2.364,0.0,0.0,0.0,0.0,0.0,0.0,0.0,0.0,0.0,0.0,-2.0307,-2.0292,-2.0293,-2.0299,-2.0288,-2.8412,-4.049,-4.0488,-4.0496,-4.0492,-4.0496,-4.0506,-4.01,-3.7456,-3.6563,-3.4668,-2.3739,-2.0291,-2.0304,-2.0298,-2.0215,-2.0037,-1.9782,-1.93,-1.8913,-1.897,-1.8372,0.0,-1.8001,-1.904,-1.9739,-1.8742,-1.8841,-1.8724,-1.7339,-1.551,-1.3722,-1.2143,-1.1669,-1.0231,-0.6573,-0.5235,-0.3824,-0.17,-0.1253,0.0179,0.3301,0.3838,0.4816,0.6959,0.7139,0.7228,0.7401,0.8364,0.8978,0.9235,1.0096,1.0009,0.889,0.889,0.8277,0.7139,0.7139,0.7139,0.7051,0.616,0.6248,0.6962,0.4639,0.357,0.3481,0.2057,0.0897,0.0,0.0,0.0,0.0,-0.0269,-0.0986,-0.1969,-2.231,0.0,0.0,0.0,0.0,0.0,0.0,0.0,0.0,0.0,0.0,0.0,0.0,0.0,-2.5203,0.0,0.0,0.0,-2.4736,-2.4697,-2.4347,-2.3533,-2.3534,-2.3381,-2.302,-2.2614,0.0,0.0,0.0,0.0,0.0,0.0,0.0,0.0,0.0,0.0,-2.0298,-2.0302,-2.0308,-2.0296,-2.0306,-2.4373,-3.1162,-3.7921,-4.0496,-4.0489,-4.0489,-4.05,-4.0487,-4.0505,-4.0507,-3.9303,-3.2505,-2.5734,-2.0302,-2.0298,-2.0302,-2.0233,-1.9966,-1.9675,-1.9465,-1.9484,-1.9065,0.0,0.0,-2.0389,-2.0894,-2.0812,-2.0581,-2.0131,-1.9194,-1.7345,-1.5618,-1.461,-1.4375,-1.3219,-0.9917,-0.7566,-0.5499,-0.3737,-0.25,-0.0625,0.2404,0.321,0.455,0.6962,0.7139,0.7139,0.7139,0.7665,0.8017,0.8017,0.8532,0.8619,0.8017,0.8017,0.7665,0.7139,0.7139,0.7139,0.7051,0.5894,0.5714,0.616,0.3749,0.2681,0.2592,0.1433,0.0539,0.0,0.0,0.0,-0.018,-0.1344,-0.2147,-0.2949,-2.231,0.0,0.0,0.0,0.0,0.0,0.0,0.0,0.0,0.0,0.0,0.0,-2.5476,-2.6001,-2.6435,-2.668,-2.6691,-2.6214,-2.512,-2.4918,-2.43,-2.3098,-2.2791,-2.2642,-2.2669,-2.1857,-2.1477,0.0,0.0,0.0,0.0,0.0,0.0,0.0,0.0,0.0,-2.0363,-2.0323,-2.0308,-2.03,-2.0289,-2.1867,-2.5367,-3.6344,-4.0496,-4.05,-4.0504,-4.0489,-4.0296,-3.8992,-3.856,-3.8317,-3.7019,-3.0891,-2.3926,-2.2633,-2.1327,-2.0255,-2.0098,-1.9943,-1.9836,-1.9836,-1.9582,-1.9787,0.0,0.0,0.0,-2.2929,-2.2279,-2.1296,-2.0587,-1.8795,-1.7331,-1.6895,-1.6637,-1.5505,-1.2702,-1.0053,-0.7659,-0.5719,-0.3923,-0.1681,0.1215,0.2867,0.4646,0.6596,0.686,0.7021,0.7136,0.7139,0.7139,0.7139,0.7139,0.7139,0.7139,0.7139,0.7139,0.7139,0.7139,0.7139,0.7051,0.5711,0.5179,0.527,0.2593,0.1612,0.1701,0.0539,0.0,0.0,0.0,-0.018,-0.0539,-0.2503,-0.357,-0.4194,-2.231,-2.231,0.0,0.0,0.0,0.0,0.0,0.0,0.0,0.0,0.0,-2.7755,-2.7971,-2.9907,-3.1336,-3.1664,-3.168,-3.0796,-2.8668,-2.7852,-2.7708,-2.8238,-2.4023,-2.3052,-2.6068,-2.2404,-2.0517,-2.0651,0.0,0.0,0.0,0.0,0.0,0.0,-3.3392,-3.2057,-2.056,-2.0383,-2.0303,-2.0295,-2.0296,-2.7489,-3.8373,-3.9917,-4.0501,-4.0511,-4.05,-4.0489,-3.9569,-3.3571,-3.155,-3.0509,-2.4487,-2.9783,-3.7032,-3.1012,-2.5005,-2.0293,-2.0276,-2.0115,-1.9983,-1.9983,-1.985,-1.9738,-1.9769,0.0,-1.9643,-1.9448,0.0,-1.8689,-1.8477,0.0,0.0,-1.6068,-1.6072,-1.5697,-1.4372,-1.35,-1.1193,-0.658,-0.6265,-0.4725,-0.0238,0.2765,0.4762,0.5505,0.6074,0.6586,0.7112,0.7139,0.7139,0.7139,0.7139,0.7139,0.7139,0.7139,0.7139,0.7139,0.7139,0.7139,0.7051,0.4816,0.4374,0.5181,0.1702,0.0807,0.1701,0.0539,0.0,0.0,0.0,-0.0628,-0.1612,-0.1879,-0.3395,-0.527,-2.2479,-2.2649,-2.2994,0.0,0.0,0.0,0.0,-2.5131,0.0,0.0,-2.6611,-2.7342,-2.7669,-2.8608,-2.9693,-3.0877,-3.0988,-3.0179,-2.8236,-2.7797,-2.6737,-2.4793,-2.2639,-2.1963,-2.2967,-2.122,-2.036,-2.0434,-2.0424,0.0,0.0,0.0,0.0,0.0,-2.6659,-3.0482,-3.2018,-2.3918,-2.0464,-2.1177,-2.9197,-3.583,-4.0877,-4.0595,-4.0501,-4.0511,-4.0504,-4.0489,-4.0065,-3.7233,-3.2779,-2.8402,-2.8211,-2.8427,-2.8733,-2.849,-2.456,-2.0306,-2.0301,-2.1662,-2.2604,-2.0668,-2.154,-2.2338,-2.0236,-1.9691,-1.9582,-1.9425,0.0,0.0,0.0,0.0,0.0,0.0,-1.77,-1.7423,-1.5515,-1.5888,-1.4817,-1.0742,-0.8815,-0.6106,-0.1915,0.1219,0.3336,0.4255,0.5261,0.6193,0.7037,0.7139,0.7139,0.7139,0.7139,0.7139,0.7139,0.7139,0.7139,0.7139,0.7139,0.6782,0.6071,0.4372,0.3482,0.3218,0.0987,-0.009,-0.0358,-0.0806,-0.1433,-0.2057,-0.2057,-0.1969,-0.1879,-0.2592,-0.3929,-0.5536,-2.3105,-2.3325,-2.3769,-2.4013,-2.4585,-2.524,-2.5895,-2.634,-2.6612,-2.6612,-2.7181,-2.7698,-2.7998,-2.9232,-3.0583,-3.1977,-3.2713,-3.2317,-3.048,-2.9352,-2.8008,-2.6301,-2.341,-2.2447,-2.3735,-2.1696,-2.0535,-2.0366,0.0,0.0,0.0,0.0,0.0,0.0,-2.0605,-2.8261,-4.0542,-3.05,-2.6253,-2.6785,-3.3041,-3.7822,-4.1139,-4.0674,-4.0526,-4.0545,-4.0519,-4.0489,-4.0354,-3.9431,-3.4754,-2.9736,-3.2124,-2.8785,-2.4536,-2.7196,-2.6119,-2.3707,-2.2157,-2.3504,-2.4538,-2.1147,-2.2064,-2.3132,-2.0664,-2.0028,-1.9955,-1.9916,-1.9758,0.0,0.0,0.0,-1.9142,-1.8701,0.0,-1.881,-1.6815,-1.7581,-1.708,-1.3591,-1.0499,-0.7424,-0.4244,-0.1488,0.083,0.2473,0.3605,0.487,0.6508,0.6334,0.6425,0.7051,0.6786,0.6786,0.7139,0.7139,0.7139,0.7139,0.7139,0.6517,0.5359,0.4105,0.2948,0.1701,0.0539,-0.0718,-0.179,-0.179,-0.2503,-0.357,-0.357,-0.3304,-0.2861,-0.3749,-0.4821,-0.5983,-2.4455,-2.4455,-2.4472,-2.4472,-2.4773,-2.524,-2.5895,-2.634,-2.6612,-2.6612,-2.8631,-3.0081,-3.0105,-3.433,-3.7312,-3.7608,-3.9825,-4.0269,-3.7986,-3.432,-3.3994,-3.7985,-2.8262,-2.5813,-3.2352,-2.5255,-2.1092,-2.0299,0.0,0.0,0.0,0.0,0.0,0.0,-2.0604,-2.8262,-4.1172,-4.0723,-4.0547,-3.9414,-2.6465,-2.9267,-4.1144,-4.068,-4.0585,-4.0667,-4.0545,-4.0489,-3.9988,-3.6757,-3.5455,-3.4686,-3.1513,-3.1815,-3.2994,-3.1051,-3.1949,-3.2357,-2.6838,-2.542,-2.4651,-2.1171,-2.0379,-2.0435,-2.0409,-2.0379,-2.0342,-2.0216,-2.0179,-2.0134,-1.9992,-1.9969,-1.9856,-1.9511,-1.948,0.0,0.0,-1.8467,-1.7177,-1.361,-1.0989,-0.8903,-0.7464,-0.5314,-0.2884,-0.0077,0.0701,0.2357,0.5333,0.4374,0.4727,0.7051,0.6071,0.5983,0.7051,0.7139,0.7139,0.7139,0.7139,0.6517,0.5359,0.4105,0.2948,0.1701,0.0539,-0.0718,-0.179,-0.179,-0.2503,-0.357,-0.357,-0.4283,-0.527,-0.5359,-0.6071,-0.7051,-2.5947,-2.5947,-2.5795,-2.5304,-2.5722,-2.6371,-2.7156,-2.7551,-2.8329,-2.9845,-3.1052,-3.2324,-3.3744,-3.568,-3.7359,-3.8525,-3.9398,-3.9333,-3.8037,-3.4802,-3.3658,-3.5323,-2.786,-2.5534,-2.9506,-2.4832,-2.2053,-2.144,-2.0666,0.0,0.0,0.0,0.0,0.0,-2.0594,-2.3181,-2.8164,-3.7324,-4.1191,-4.0781,-3.6113,-3.5194,-3.6946,-3.9862,-4.0855,-4.0692,-4.0662,-4.0588,-4.0315,-3.9181,-3.7334,-3.5699,-3.6757,-3.5572,-3.3812,-3.3887,-3.3953,-3.3258,-2.9863,-3.0589,-3.0948,-2.5236,-2.5473,-2.5929,-2.1437,-2.041,-2.0383,-2.0346,-2.0322,-2.0313,-2.0274,-2.0254,-2.0203,-2.0,-1.9958,-1.9799,0.0,-1.9077,-1.8478,-1.7181,-1.4533,-1.2208,-1.071,-0.8714,-0.6373,-0.3557,-0.2516,-0.0514,0.2841,0.2668,0.3115,0.4727,0.4372,0.4372,0.4816,0.4816,0.4816,0.4816,0.4816,0.4194,0.304,0.2592,0.1791,0.0628,0.018,-0.0718,-0.1879,-0.2681,-0.366,-0.491,-0.5622,-0.6157,-0.6428,-0.5714,-0.616,-0.7139,-2.6657,-2.6691,-2.6539,-2.6065,-2.6614,-2.7303,-2.7811,-2.8183,-2.9215,-3.1494,-3.2154,-3.3259,-3.5423,-3.6919,-3.8192,-3.9217,-4.0085,-3.99,-3.8227,-3.6322,-3.5375,-3.5639,-3.0693,-2.9277,-3.2144,-2.75,-2.4428,-2.316,-2.1835,-2.0869,0.0,0.0,0.0,0.0,-2.0575,-2.0603,-2.1503,-3.5331,-4.119,-4.1206,-4.1191,-3.9414,-3.709,-4.0068,-4.0281,-3.915,-4.0325,-4.066,-4.0574,-4.0574,-3.9105,-3.7656,-3.9865,-3.8575,-3.6419,-3.7275,-3.7026,-3.5911,-3.3275,-3.4152,-3.4495,-2.8844,-2.9067,-2.9195,-2.3578,-2.2274,-2.2274,-2.2274,-2.1316,-2.1218,-2.3684,-2.2138,-2.0834,-2.1943,-2.1089,-2.021,0.0,-1.9676,-1.9468,-1.9295,-1.7052,-1.5243,-1.4482,-1.1864,-0.9598,-0.8087,-0.5769,-0.3154,-0.0265,-0.0089,0.08,0.2939,0.2585,0.2764,0.357,0.357,0.357,0.357,0.357,0.2948,0.179,0.179,0.1165,0.0,-0.0449,-0.1344,-0.2503,-0.3749,-0.491,-0.6071,-0.6782,-0.7139,-0.7051,-0.6776,-0.7129,-0.7753,-2.6742,-2.681,-2.681,-2.681,-2.74,-2.7886,-2.7922,-2.8264,-2.9341,-3.1667,-3.2229,-3.3244,-3.549,-3.83,-4.0033,-4.0065,-4.2176,-4.2194,-3.9148,-3.8984,-3.9138,-3.9413,-3.6507,-3.6464,-3.9927,-3.2872,-2.7961,-2.5543,-2.3784,-2.2102,0.0,0.0,0.0,0.0,-2.051,-2.0581,-2.1504,-3.5343,-4.1206,-4.1199,-4.1208,-4.1094,-4.0957,-4.1133,-3.8998,-3.6337,-3.9623,-4.0752,-4.0715,-4.0715,-4.0623,-4.0545,-4.0667,-4.0715,-4.0751,-4.0939,-4.0996,-4.0297,-3.7036,-3.6161,-3.5341,-3.1903,-3.1062,-3.0167,-2.6738,-2.5957,-2.5957,-2.5957,-2.3379,-2.3066,-2.9453,-2.5273,-2.1835,-2.4852,-2.2621,-2.0482,-2.0406,-2.0246,-2.0031,-1.9843,-1.8599,-1.7956,-1.8507,-1.489,-1.2709,-1.3235,-0.9108,-0.5762,-0.3849,-0.3712,-0.2039,0.1421,0.0445,0.098,0.3301,0.3392,0.3392,0.3392,0.3392,0.286,0.1701,0.1611,0.0986,-0.018,-0.1344,-0.2592,-0.3746,-0.4996,-0.6157,-0.7224,-0.7228,-0.7316,-0.7489,-0.854,-0.8978,-0.8978,-2.8399,-2.8399,-2.8399,-2.8399,-2.7889,-2.7648,-2.8192,-2.9537,-3.1394,-3.394,-3.5643,-3.7514,-3.9878,-4.1243,-4.2141,-4.2527,-4.313,-4.3149,-4.2304,-4.0221,-4.0131,-4.2656,-3.7478,-3.6245,-3.9908,-3.3242,-2.9497,-2.9087,-2.6111,-2.4436,-2.4023,0.0,0.0,0.0,-2.0361,-2.0454,-2.1506,-3.5341,-4.1191,-4.1208,-4.1191,-3.9648,-3.7617,-4.0215,-3.9023,-3.6401,-3.9743,-4.0864,-4.077,-4.077,-4.0752,-4.0733,-4.0761,-4.077,-4.0805,-4.0955,-4.0996,-4.0828,-4.0055,-3.9843,-3.9003,-3.5527,-3.4667,-3.3769,-3.0332,-2.957,-2.957,-2.957,-2.8867,-2.8008,-2.7187,-2.5586,-2.3848,-2.2167,-2.1113,-2.0484,-2.0487,-2.0382,-2.0308,-2.0259,-2.1596,-2.126,-1.8025,-1.7946,-1.7047,-1.448,-1.3302,-1.1085,-0.7572,-0.5741,-0.4078,-0.2311,-0.1606,-0.1072,-0.0447,0.0448,0.0897,0.0897,0.0897,0.0718,0.0449,-0.0448,-0.1074,-0.1433,-0.2592,-0.3831,-0.4972,-0.6125,-0.7358,-0.8495,-0.9387,-1.026,-1.0773,-0.9405,-0.9405,-1.0183,-2.8938,-2.9011,-2.9011,-2.9011,-2.9419,-2.9765,-2.9868,-3.0394,-3.1894,-3.5018,-3.6478,-3.8121,-4.0495,-4.193,-4.2826,-4.3124,-4.3356,-4.2892,-4.1479,-4.1112,-4.1163,-4.1644,-3.9686,-3.9671,-4.1961,-3.6958,-3.3764,-3.2628,-2.7704,-2.5312,-2.5293,0.0,0.0,0.0,-2.2481,-2.1778,-2.1357,-3.3117,-3.8131,-3.8359,-4.0327,-3.9978,0.0,-4.0449,-3.998,-3.8515,-4.0402,-4.0996,-4.0902,-4.0902,-4.0857,-4.0809,-4.087,-4.0902,-4.0914,-4.1052,-4.1082,-4.1103,-4.1171,-4.1191,-4.0723,-3.8769,-3.8262,-3.7363,-3.3926,-3.3125,-3.3125,-3.3125,-3.1934,-3.1211,-3.2285,-2.8769,-2.457,-2.1152,-2.0541,-2.0508,-2.0508,-2.0422,-2.0375,-2.0442,-2.1605,-2.1368,-1.8707,-2.0687,-2.073,-1.738,-1.5898,-1.3687,-1.0256,-0.8463,-0.6642,-0.4772,-0.4361,-0.3653,-0.2592,-0.1879,-0.1612,-0.1612,-0.1612,-0.1612,-0.1612,-0.2236,-0.2592,-0.2681,-0.4362,-0.5505,-0.6201,-0.7964,-0.9018,-0.9625,-1.0366,-1.1327,-1.218,-1.089,-1.0794,-1.1381,-2.9188,-2.9279,-2.9279,-2.9279,-3.1418,-3.2969,-3.2538,-3.1865,-3.2633,-3.5924,-3.6549,-3.7514,-3.964,-4.1493,-4.2655,-4.2788,-4.3214,-4.2304,-3.9515,-4.1937,-4.2249,-3.946,-4.2273,-4.4136,-4.4501,-4.1457,-3.8404,-3.5412,-2.9021,-2.5704,0.0,0.0,0.0,0.0,-2.5294,-2.4281,-2.3083,-3.0812,-3.45,-3.5484,-3.9426,-4.1077,-4.1171,-4.1191,-4.1191,-4.1191,-4.1191,-4.1126,-4.1026,-4.1026,-4.0955,-4.087,-4.0992,-4.1026,-4.1052,-4.1171,-4.1191,-4.1191,-4.1191,-4.1191,-4.1191,-4.1191,-4.1191,-4.041,-3.7363,-3.668,-3.668,-3.668,-3.4316,-3.3945,-3.9492,-3.2773,-2.5254,-2.1836,-2.1595,-2.1856,-2.1856,-2.1737,-2.1532,-2.1206,-2.1268,0.0,-1.9953,-2.2566,-2.3141,-2.026,-1.7456,-1.4884,-1.2538,-1.1349,-0.9527,-0.6972,-0.7301,-0.6464,-0.4273,-0.4096,-0.4007,-0.4007,-0.3922,-0.392,-0.4007,-0.4011,-0.4099,-0.445,-0.6731,-0.7865,-0.8214,-1.0398,-1.137,-1.1477,-1.1521,-1.206,-1.2936,-1.2936,-1.2912,-1.2881,-3.0723,-3.0801,-3.0801,-3.0801,-3.271,-3.4601,-3.5756,-3.7065,-3.8264,-3.9242,-3.991,-4.0823,-4.2158,-4.2108,-4.2324,-4.3286,-4.3444,-4.3259,-4.269,-4.3185,-4.324,-4.2671,-4.3235,-4.3758,-4.4106,-4.0859,-3.7812,-3.5011,-3.1042,-2.7796,0.0,0.0,0.0,-2.5303,-2.531,-2.8196,-3.3096,-3.3729,-3.6207,-3.974,-4.0647,-4.1,-4.1052,-4.1151,-4.1191,-4.1191,-4.1191,-4.1171,-4.1151,-4.1151,-4.115,-4.1128,-4.1151,-4.1151,-4.1171,-4.1191,-4.1191,-4.1191,-4.1191,-4.1191,-4.1191,-4.1191,-4.1191,-4.1035,-4.043,-4.0293,-4.0293,-4.0293,-3.9805,-3.8887,-3.7226,-3.3125,-2.8848,-2.5371,-2.7163,-2.901,-2.901,-2.8925,-2.7839,-2.5039,-2.6895,-2.6252,-2.0754,-2.1862,-2.1931,-1.947,-1.8418,-1.725,-1.579,-1.3504,-1.1881,-1.1145,-1.0314,-0.9289,-0.7861,-0.688,-0.6433,-0.6433,-0.5489,-0.5489,-0.6433,-0.6461,-0.6994,-0.8036,-1.0348,-1.1895,-1.2849,-1.4178,-1.5253,-1.6148,-1.6156,-1.6286,-1.6384,-1.6384,-1.6461,-1.6162,-3.1151,-3.119,-3.1562,-3.2696,-3.4776,-3.6891,-3.8785,-4.0866,-4.1784,-4.0605,-4.0759,-4.1037,-4.1178,-4.1635,-4.2123,-4.2598,-4.2903,-4.3214,-4.3479,-4.3497,-4.3497,-4.3497,-4.3497,-4.3646,-4.3986,-4.243,-3.9376,-3.4905,-3.3272,-3.0032,0.0,-2.5303,-2.5303,-2.5332,-2.6251,-2.8509,-3.1794,-3.3897,-3.6077,-3.8315,-4.0163,-4.095,-4.1,-4.115,-4.1191,-4.1191,-4.1191,-4.1191,-4.1191,-4.1191,-4.1191,-4.1191,-4.1191,-4.1191,-4.1191,-4.1191,-4.1191,-4.1191,-4.1191,-4.1191,-4.1191,-4.1191,-4.1191,-4.1191,-4.1191,-4.1191,-4.1191,-4.1191,-4.1191,-4.0137,-3.6641,-3.3203,-3.0331,-2.8582,-2.8188,-2.87,-3.0397,-3.0658,-3.0033,-2.8392,-2.7905,-2.6475,-2.3357,-2.2026,-2.1243,-2.1042,-2.0128,-1.9527,-1.9352,-1.6826,-1.4987,-1.4221,-1.4024,-1.3131,-1.1437,-1.0313,-0.9714,-0.9714,-0.9117,-0.9207,-0.9714,-1.0318,-1.0921,-1.1521,-1.322,-1.4248,-1.4961,-1.6605,-1.7565,-1.8102,-1.8671,-1.8843,-1.8811,-1.828,-1.8403,-1.8626,-3.158,-3.1623,-3.227,-3.4313,-3.6551,-3.8689,-4.0639,-4.2879,-4.369,-4.1866,-4.1452,-4.1088,-4.044,-4.1397,-4.2068,-4.2008,-4.244,-4.2939,-4.3444,-4.3497,-4.3497,-4.3497,-4.3497,-4.3612,-4.3881,-4.3893,-4.1241,-3.5757,-3.5097,-3.1784,-2.5998,-2.5513,-2.5687,-2.6428,-2.7451,-2.8695,-3.0298,-3.3944,-3.5963,-3.6958,-3.9673,-4.0843,-4.0964,-4.1105,-4.1171,-4.1191,-4.1191,-4.1191,-4.1191,-4.1191,-4.1191,-4.1191,-4.1191,-4.1191,-4.1191,-4.1191,-4.1191,-4.1191,-4.1191,-4.1191,-4.1191,-4.1191,-4.1191,-4.1191,-4.1191,-4.1171,-4.1171,-4.1191,-4.1171,-4.0096,-3.6619,-3.435,-3.2741,-3.1945,-3.0141,-2.9732,-3.2369,-3.278,-3.2525,-3.1761,-2.9303,-2.7391,-2.6743,-2.4113,-2.2958,-2.4135,-2.2306,-2.1483,-2.2251,-2.0035,-1.8305,-1.7309,-1.7451,-1.6599,-1.4735,-1.4206,-1.3931,-1.3931,-1.3675,-1.3515,-1.3625,-1.4496,-1.4907,-1.5018,-1.6338,-1.7202,-1.7696,-1.9147,-2.0031,-2.037,-2.0983,-2.1221,-2.1138,-2.0391,-2.0476,-2.082,-3.2767,-3.3006,-3.3486,-3.4952,-3.7061,-3.8882,-3.9851,-4.1948,-4.3639,-4.4181,-4.3593,-4.3061,-4.2852,-4.2396,-4.2251,-4.2609,-4.2673,-4.2939,-4.3444,-4.3497,-4.3497,-4.3497,-4.3497,-4.3513,-4.3548,-4.3548,-4.1912,-3.8618,-3.581,-3.2315,-2.8245,-2.6244,-2.6937,-2.986,-2.8516,-3.1306,-3.6983,-3.5944,-3.7266,-4.0087,-4.0532,-4.0742,-4.0824,-4.0964,-4.1082,-4.1191,-4.1191,-4.1191,-4.1191,-4.1191,-4.1191,-4.1191,-4.1191,-4.1191,-4.1191,-4.1191,-4.1191,-4.1191,-4.1191,-4.1191,-4.1191,-4.1191,-4.1191,-4.1191,-4.1191,-4.1105,-4.1052,-4.1171,-4.1103,-3.9966,-3.6547,-3.8082,-3.892,-3.5973,-3.7683,-3.9533,-3.996,-4.0028,-3.8834,-3.5597,-3.5103,-3.3746,-3.0534,-2.9961,-2.9557,-2.8921,-2.4986,-2.2751,-2.3167,-2.2105,-2.1342,-2.1021,-1.9715,-1.8439,-1.729,-1.8769,-1.9552,-1.9542,-1.8413,-1.7987,-1.8206,-1.8136,-1.8153,-1.8452,-2.0466,-2.2273,-2.3893,-2.334,-2.3996,-2.5318,-2.4647,-2.4401,-2.4354,-2.4294,-2.3768,-2.3027,-3.4358,-3.4466,-3.5086,-3.6969,-3.8018,-3.9186,-4.0893,-4.2353,-4.3443,-4.3756,-4.3984,-4.3749,-4.2757,-4.2416,-4.2063,-4.164,-4.1937,-4.2244,-4.2483,-4.3105,-4.3375,-4.3014,-4.3339,-4.3497,-4.3497,-4.3497,-4.2014,-3.9017,-3.5783,-3.2568,-2.9368,-2.8567,-2.9685,-3.2435,-3.3492,-3.5091,-3.7053,-3.8063,-3.9258,-4.0519,-4.0649,-4.0752,-4.0809,-4.0955,-4.108,-4.1191,-4.1191,-4.1191,-4.1191,-4.1191,-4.1191,-4.1191,-4.1191,-4.1191,-4.1191,-4.1191,-4.1191,-4.1191,-4.1191,-4.1191,-4.1191,-4.1191,-4.1191,-4.1191,-4.1191,-4.1151,-4.1105,-4.1082,-4.0964,-4.0461,-3.9091,-3.824,-3.7984,-3.8707,-3.8206,-3.843,-4.041,-4.0781,-4.0302,-3.893,-3.7027,-3.5295,-3.3944,-3.2031,-3.0657,-3.0129,-2.8224,-2.6341,-2.4722,-2.6034,-2.5939,-2.3947,-2.4533,-2.4366,-2.3299,-2.2958,-2.2767,-2.2767,-2.2234,-2.2099,-2.2174,-2.2806,-2.3138,-2.3228,-2.4072,-2.485,-2.5612,-2.5802,-2.6286,-2.6937,-2.7207,-2.7336,-2.7265,-2.6624,-2.5856,-2.4966,-3.5385,-3.5716,-3.6523,-3.8482,-3.8841,-3.9454,-4.1306,-4.2395,-4.2986,-4.3246,-4.3863,-4.3741,-4.2422,-4.2286,-4.1903,-4.0995,-4.1313,-4.1621,-4.181,-4.2562,-4.2921,-4.2711,-4.305,-4.3339,-4.3497,-4.3497,-4.2459,-4.0325,-3.7118,-3.4391,-3.2165,-3.1385,-3.2458,-3.5135,-3.702,-3.7819,-3.7889,-3.9717,-4.0489,-4.0504,-4.0596,-4.069,-4.0809,-4.0908,-4.1052,-4.1191,-4.1191,-4.1191,-4.1191,-4.1191,-4.1191,-4.1191,-4.1191,-4.1191,-4.1191,-4.1191,-4.1191,-4.1191,-4.1191,-4.1191,-4.1191,-4.1191,-4.1171,-4.115,-4.1191,-4.1125,-4.1035,-4.0928,-4.089,-4.085,-4.0801,-3.8808,-3.7938,-4.0343,-3.8694,-3.7923,-4.024,-4.0649,-4.0339,-3.9355,-3.7156,-3.5772,-3.5857,-3.3749,-3.2303,-3.2136,-3.2718,-3.1594,-2.8099,-2.9779,-2.9839,-2.752,-2.8465,-2.8595,-2.7692,-2.6952,-2.6375,-2.6067,-2.6281,-2.5975,-2.532,-2.6135,-2.6693,-2.6932,-2.6943,-2.7079,-2.7383,-2.7777,-2.82,-2.8744,-2.9195,-2.9406,-2.9261,-2.8298,-2.7407,-2.6359,-3.5525,-3.6663,-3.7785,-3.9163,-3.9379,-3.9707,-4.0554,-4.1478,-4.2316,-4.3185,-4.3354,-4.3149,-4.2371,-4.2286,-4.1903,-4.0995,-4.0903,-4.1178,-4.175,-4.1793,-4.2062,-4.2655,-4.2711,-4.2939,-4.3497,-4.3497,-4.3461,-4.3442,-4.0406,-3.8489,-3.7553,-3.4563,-3.4974,-3.8229,-3.7735,-3.8899,-4.1207,-4.0715,-4.0489,-4.0489,-4.0504,-4.0616,-4.0801,-4.0801,-4.0964,-4.1191,-4.1191,-4.1191,-4.1191,-4.1191,-4.1191,-4.1191,-4.1191,-4.1191,-4.1191,-4.1191,-4.1191,-4.1191,-4.1191,-4.1191,-4.1191,-4.1191,-4.1103,-4.1049,-4.1171,-4.0941,-4.0703,-4.0703,-4.0867,-4.0959,-4.0816,-4.0704,-4.0671,-4.0777,-4.0602,-4.0506,-4.068,-4.0692,-3.9424,-3.5977,-3.5697,-3.58,-3.58,-3.5825,-3.5873,-3.5937,-3.8878,-3.86,-3.3852,-3.3013,-3.2505,-3.2124,-3.0683,-2.9617,-2.9086,-3.0814,-3.1102,-2.9935,-3.0601,-2.9731,-2.7485,-2.7499,-2.8021,-2.8939,-2.8944,-2.9421,-3.0193,-2.9349,-2.9956,-3.1394,-3.0615,-3.025,-3.0191,-2.932,-2.8454,-2.727,-3.7056,-3.8038,-3.8873,-3.9305,-3.9424,-3.9481,-3.9809,-4.0569,-4.1041,-4.0895,-4.1841,-4.2102,-4.0912,-4.1261,-4.1239,-4.0404,-4.0703,-4.0827,-4.0642,-4.1375,-4.1707,-4.149,-4.2262,-4.2788,-4.2939,-4.3321,-4.3497,-4.3497,-4.0344,-3.8773,-3.8681,-3.7328,-3.807,-4.0555,-4.0236,-4.0115,-4.0157,-4.0398,-4.0489,-4.0489,-4.0489,-4.059,-4.0742,-4.0788,-4.0914,-4.108,-4.1171,-4.1191,-4.1191,-4.1191,-4.1149,-4.108,-4.1171,-4.1191,-4.1191,-4.1191,-4.1191,-4.1191,-4.1191,-4.1191,-4.1191,-4.1191,-4.1171,-4.115,-4.1191,-4.1046,-4.087,-4.0779,-4.0821,-4.0857,-4.0801,-4.0762,-4.0715,-4.0721,-4.0604,-4.0519,-4.0559,-4.0574,-4.0183,-3.9168,-3.9141,-3.9213,-3.9213,-3.9387,-3.8511,-3.6113,-3.688,-3.5702,-3.166,-3.5109,-3.5925,-3.3161,-3.4005,-3.4259,-3.3862,-3.3972,-3.3681,-3.2923,-3.3128,-3.2678,-3.1688,-3.1688,-3.1596,-3.1447,-3.1422,-3.1308,-3.1071,-3.0812,-3.1026,-3.1452,-3.1202,-3.1142,-3.1025,-3.0206,-2.9704,-2.9048,-3.6646,-3.7829,-3.8782,-3.8782,-3.9104,-3.9334,-3.9065,-3.9734,-4.0055,-3.9439,-4.0562,-4.1106,-4.0199,-4.0481,-4.0595,-4.0121,-4.0417,-4.0449,-4.0121,-4.0767,-4.1059,-4.0903,-4.1853,-4.248,-4.2711,-4.3214,-4.3497,-4.3497,-4.1479,-4.0462,-4.0362,-3.9984,-4.0226,-4.0985,-4.1052,-4.0555,-3.9645,-4.0248,-4.0489,-4.0489,-4.0489,-4.0588,-4.0703,-4.0742,-4.087,-4.1019,-4.1082,-4.1126,-4.1126,-4.1126,-4.1046,-4.0955,-4.108,-4.1126,-4.1128,-4.1191,-4.1191,-4.1191,-4.1149,-4.1151,-4.1171,-4.1077,-4.1052,-4.1049,-4.1031,-4.0974,-4.0914,-4.0877,-4.087,-4.087,-4.087,-4.084,-4.08,-4.0752,-4.0665,-4.0597,-4.0568,-4.0604,-4.0159,-3.8897,-3.885,-3.8894,-3.8846,-3.906,-3.8797,-3.7815,-3.7733,-3.6719,-3.4381,-3.6492,-3.7182,-3.5904,-3.7146,-3.7594,-3.7113,-3.6716,-3.6112,-3.536,-3.4996,-3.4681,-3.4506,-3.4267,-3.3908,-3.3505,-3.3333,-3.3003,-3.2561,-3.2324,-3.2294,-3.2279,-3.2013,-3.1895,-3.1762,-3.0717,-3.0058,-2.9468,-3.4664,-3.6411,-3.7829,-3.7829,-3.8664,-3.9125,-3.8497,-3.9062,-3.9292,-3.8611,-3.9365,-3.9956,-3.9962,-3.9976,-4.002,-4.0087,-4.007,-4.007,-4.007,-4.007,-4.0336,-4.081,-4.1446,-4.2062,-4.2616,-4.3214,-4.3461,-4.3406,-4.3406,-4.3002,-4.2213,-4.2158,-4.1332,-3.9913,-4.048,-4.0292,-3.9645,-4.0248,-4.0489,-4.0489,-4.0489,-4.0568,-4.068,-4.0692,-4.0818,-4.0983,-4.0988,-4.0988,-4.0988,-4.0988,-4.0902,-4.0828,-4.0955,-4.0992,-4.1,-4.1151,-4.1191,-4.1171,-4.1052,-4.1103,-4.1149,-4.0883,-4.0816,-4.0796,-4.0718,-4.0762,-4.085,-4.0959,-4.0996,-4.1,-4.1,-4.1019,-4.0959,-4.0824,-4.0801,-4.0779,-4.0718,-4.0771,-3.9558,-3.626,-3.6045,-3.6119,-3.597,-3.6138,-3.7429,-4.0252,-4.0467,-4.0446,-4.0379,-3.7127,-3.6659,-3.9736,-3.9814,-3.9521,-3.8894,-3.8887,-3.8302,-3.7199,-3.6247,-3.5919,-3.6232,-3.5591,-3.5256,-3.5182,-3.4707,-3.4416,-3.4275,-3.3829,-3.3587,-3.3501,-3.2817,-3.257,-3.2324,-3.0863,-2.9769,-2.8799,-3.4664,-3.6411,-3.7829,-3.7829,-3.8267,-3.8571,-3.8407,-3.8151,-3.7729,-3.7095,-3.7683,-3.8204,-3.8341,-3.886,-3.9437,-4.007,-4.007,-4.007,-4.007,-4.007,-4.0171,-4.0286,-4.1241,-4.1853,-4.2021,-4.2977,-4.3185,-4.258,-4.258,-4.2176,-4.1387,-4.0763,-4.0249,-3.9895,-3.9907,-3.9788,-3.9645,-4.0248,-4.0489,-4.0489,-4.0489,-4.0519,-4.0559,-4.0655,-4.0729,-4.0772,-4.0828,-4.085,-4.085,-4.085,-4.0779,-4.0752,-4.0939,-4.0925,-4.0883,-4.1128,-4.1191,-4.1191,-4.1151,-4.1171,-4.1171,-4.1126,-4.1026,-4.0902,-4.074,-4.0824,-4.0925,-4.0864,-4.1019,-4.115,-4.115,-4.1077,-4.0992,-4.0959,-4.0864,-4.0793,-4.0779,-4.0785,-4.0493,-3.9645,-3.9676,-3.9725,-3.9571,-3.979,-3.9133,-3.7206,-3.712,-3.7128,-3.7107,-3.6249,-3.7084,-4.0004,-4.0111,-3.996,-3.964,-3.9584,-3.9152,-3.8386,-3.7789,-3.7551,-3.7609,-3.7455,-3.6988,-3.6221,-3.613,-3.5371,-3.4287,-3.4182,-3.3606,-3.2805,-3.2643,-3.2248,-3.1614,-3.0644,-3.0148,-2.9675,-3.354,-3.4673,-3.5579,-3.5579,-3.6589,-3.7219,-3.6855,-3.6906,-3.6761,-3.6118,-3.6715,-3.7203,-3.7251,-3.7962,-3.8596,-3.8995,-3.9679,-4.007,-4.007,-4.007,-4.007,-4.007,-4.0938,-4.1402,-4.1402,-4.2523,-4.2866,-4.2304,-4.1937,-4.135,-4.0543,-4.0102,-3.9698,-3.9344,-3.9376,-3.9364,-3.9414,-4.0062,-4.0321,-4.0339,-4.0457,-4.0489,-4.0504,-4.0568,-4.0649,-4.0703,-4.0732,-4.0752,-4.0752,-4.0752,-4.0688,-4.0642,-4.0855,-4.0864,-4.0857,-4.1126,-4.1191,-4.1191,-4.1128,-4.115,-4.1191,-4.1126,-4.1019,-4.0896,-4.0859,-4.0877,-4.092,-4.0964,-4.1052,-4.1128,-4.1191,-4.1149,-4.1082,-4.1082,-3.9696,-3.9141,-4.0674,-3.956,-3.9146,-4.0634,-4.0964,-4.1,-4.0816,-4.1049,-4.0345,-3.8297,-3.8232,-3.8266,-3.8209,-3.8156,-3.8866,-4.043,-4.0447,-4.0389,-4.0267,-4.0262,-3.9999,-3.9527,-3.9214,-3.9,-3.8871,-3.8809,-3.8401,-3.7729,-3.7538,-3.6723,-3.5608,-3.5366,-3.4743,-3.3906,-3.3307,-3.281,-3.2309,-3.1275,-3.0059,-2.8772,-3.2089,-3.2571,-3.3013,-3.3169,-3.4646,-3.5739,-3.5273,-3.5872,-3.6133,-3.5579,-3.607,-3.6508,-3.6615,-3.7219,-3.769,-3.7806,-3.9102,-3.9901,-3.9901,-3.9901,-3.9952,-4.007,-4.0607,-4.0903,-4.0903,-4.1955,-4.2304,-4.1937,-4.1258,-4.0506,-3.9717,-3.9717,-3.935,-3.8689,-3.8971,-3.9099,-3.9133,-3.9819,-4.0101,-4.012,-4.0389,-4.0489,-4.0489,-4.0489,-4.0574,-4.0667,-4.0667,-4.0667,-4.0667,-4.0667,-4.0582,-4.0545,-4.0743,-4.0785,-4.0836,-4.1126,-4.1191,-4.115,-4.1055,-4.1105,-4.1171,-4.1026,-4.0914,-4.0857,-4.0955,-4.0908,-4.0883,-4.1126,-4.1101,-4.1055,-4.1171,-4.1191,-4.1035,-4.0508,-3.8379,-3.7596,-3.9917,-3.8256,-3.7805,-4.0545,-4.1055,-4.1105,-4.0877,-4.1077,-4.1105,-4.0877,-4.0959,-4.0988,-4.0864,-4.085,-4.0827,-4.0838,-4.0762,-4.0757,-4.0742,-4.0799,-4.071,-4.0466,-4.0331,-4.0153,-3.9927,-3.9764,-3.9491,-3.9149,-3.8617,-3.7936,-3.7153,-3.6643,-3.5983,-3.5182,-3.4043,-3.3496,-3.3157,-3.1968,-2.9811,-2.746,-3.1524,-3.23,-3.3234,-3.4039,-3.4721,-3.5386,-3.6126,-3.5932,-3.5624,-3.5519,-3.5619,-3.5894,-3.6554,-3.6722,-3.704,-3.7748,-3.8596,-3.9086,-3.9086,-3.9086,-3.9385,-4.007,-4.0607,-4.0903,-4.0903,-4.1368,-4.1161,-4.0267,-4.0139,-3.9662,-3.8891,-3.8891,-3.8817,-3.8689,-3.8971,-3.9099,-3.9133,-3.9819,-4.0101,-4.012,-4.0389,-4.0489,-4.0489,-4.0489,-4.0519,-4.0515,-4.0515,-4.0515,-4.0515,-4.0515,-4.0519,-4.0545,-4.0743,-4.0752,-4.0772,-4.1101,-4.1126,-4.1052,-4.1149,-4.1171,-4.1171,-4.1026,-4.0988,-4.093,-4.0857,-4.0908,-4.0988,-4.1023,-4.1103,-4.1171,-4.1191,-4.1191,-4.0234,-3.7285,-3.8828,-3.9551,-3.7128,-3.8867,-4.0585,-4.1071,-4.1171,-4.1171,-4.1149,-4.1171,-4.1171,-4.1149,-4.1151,-4.1151,-4.1149,-4.1026,-4.0972,-4.0968,-4.0961,-4.0952,-4.0957,-4.0968,-4.0889,-4.0729,-4.066,-4.0604,-4.0559,-4.0192,-3.9827,-3.9491,-3.871,-3.7958,-3.7153,-3.6643,-3.5442,-3.3884,-3.3697,-3.2879,-3.182,-3.1584,-2.9834,-2.7386,-3.0972,-3.1105,-3.1423,-3.1859,-3.2482,-3.3093,-3.3536,-3.4229,-3.4691,-3.4691,-3.5133,-3.5619,-3.5943,-3.6384,-3.6722,-3.7144,-3.7847,-3.8469,-3.8854,-3.9315,-3.9714,-4.007,-3.9944,-3.9834,-3.9735,-3.9427,-3.9381,-3.9465,-3.9046,-3.878,-3.8707,-3.8707,-3.8707,-3.8707,-3.8815,-3.8865,-3.8923,-3.9571,-3.9819,-3.9861,-4.0319,-4.0489,-4.0489,-4.0489,-4.0489,-4.0489,-4.0489,-4.0489,-4.0489,-4.0489,-4.0489,-4.053,-4.0699,-4.0752,-4.0799,-4.1023,-4.1103,-4.1126,-4.1171,-4.1191,-4.1191,-4.1126,-4.1105,-4.1082,-4.1026,-4.1055,-4.1105,-4.1105,-4.1151,-4.1191,-4.1191,-4.1191,-4.0664,-3.9062,-3.8574,-3.8496,-3.8769,-3.8531,-3.9055,-4.0976,-4.1149,-4.1126,-4.1191,-4.1191,-4.1191,-4.1191,-4.1191,-4.1191,-4.1191,-4.1149,-4.1105,-4.1105,-4.1049,-4.0996,-4.0996,-4.0999,-4.0964,-4.0908,-4.0762,-4.0703,-4.0692,-4.0281,-3.9927,-3.9578,-3.8754,-3.7925,-3.7126,-3.6224,-3.5202,-3.4082,-3.3344,-3.268,-3.1912,-3.0534,-2.8668,-2.6474,-3.0419,-3.008,-2.9869,-3.0075,-3.0908,-3.1609,-3.1815,-3.3241,-3.4327,-3.4327,-3.4986,-3.5504,-3.5504,-3.6006,-3.6337,-3.6337,-3.6899,-3.7607,-3.8335,-3.8968,-3.9463,-3.9817,-3.914,-3.8615,-3.8452,-3.7836,-3.794,-3.8831,-3.82,-3.8183,-3.8707,-3.8707,-3.8707,-3.8707,-3.8707,-3.8707,-3.875,-3.9352,-3.9599,-3.9645,-4.0266,-4.0489,-4.0489,-4.0489,-4.0489,-4.0489,-4.0489,-4.0489,-4.0489,-4.0489,-4.0489,-4.0515,-4.0674,-4.0742,-4.0805,-4.0955,-4.1082,-4.1191,-4.1191,-4.1171,-4.1151,-4.1191,-4.1191,-4.1191,-4.1191,-4.1191,-4.1191,-4.1191,-4.1191,-4.1191,-4.1191,-4.1191,-4.0937,-4.0096,-3.8396,-3.7809,-3.966,-3.8264,-3.8057,-4.0769,-4.1023,-4.0992,-4.1103,-4.1105,-4.1126,-4.115,-4.1126,-4.1126,-4.115,-4.115,-4.1171,-4.1191,-4.1103,-4.1035,-4.1004,-4.1006,-4.0988,-4.0955,-4.0781,-4.0703,-4.0692,-4.0206,-3.9849,-3.9532,-3.8667,-3.7765,-3.6845,-3.5836,-3.4887,-3.4041,-3.3008,-3.2225,-3.1485,-2.954,-2.7346,-2.5111,-2.9854,-2.9817,-3.0075,-3.097,-3.1888,-3.282,-3.3671,-3.4691,-3.5359,-3.5359,-3.5424,-3.5504,-3.5504,-3.5569,-3.5554,-3.5554,-3.5707,-3.6068,-3.6814,-3.6947,-3.7653,-3.9039,-3.8379,-3.7865,-3.7586,-3.7517,-3.7637,-3.7984,-3.7929,-3.8183,-3.8707,-3.8707,-3.8707,-3.8707,-3.8707,-3.8707,-3.875,-3.9352,-3.9599,-3.9645,-4.0266,-4.0489,-4.0489,-4.0489,-4.0489,-4.0489,-4.0489,-4.0489,-4.0489,-4.0489,-4.0489,-4.0515,-4.0674,-4.0703,-4.0751,-4.0939,-4.1082,-4.1191,-4.1191,-4.1105,-4.103,-4.1171,-4.1191,-4.1191,-4.1191,-4.1191,-4.1191,-4.1191,-4.1191,-4.1191,-4.1191,-4.1191,-4.0116,-3.6827,-3.8733,-3.9575,-3.6521,-3.8622,-4.0536,-4.0804,-4.0816,-4.0816,-4.0824,-4.0824,-4.0877,-4.1016,-4.0908,-4.0877,-4.1019,-4.1,-4.1077,-4.1191,-4.1191,-4.113,-4.1007,-4.1,-4.095,-4.0809,-4.0731,-4.0703,-4.068,-3.9964,-3.9608,-3.9542,-3.8433,-3.7273,-3.614,-3.5626,-3.4357,-3.274,-3.2622,-3.1141,-2.9054,-2.8848,-2.6549,-2.3335,-2.9624,-2.9792,-2.9934,-3.0279,-3.0633,-3.0996,-3.1355,-3.2191,-3.3045,-3.3616,-3.4192,-3.4839,-3.5424,-3.5894,-3.5997,-3.5584,-3.6029,-3.6317,-3.6165,-3.6111,-3.6588,-3.7601,-3.7364,-3.6915,-3.6324,-3.6638,-3.7044,-3.747,-3.7755,-3.8183,-3.8707,-3.8707,-3.8707,-3.8707,-3.8707,-3.8803,-3.899,-3.9408,-3.9731,-3.9943,-4.0336,-4.0489,-4.0489,-4.0489,-4.0489,-4.0489,-4.0489,-4.0489,-4.0489,-4.0489,-4.0489,-4.0504,-4.0559,-4.0653,-4.0816,-4.1049,-4.1103,-4.1082,-4.1171,-4.1151,-4.1149,-4.1191,-4.1191,-4.1191,-4.1191,-4.1191,-4.1191,-4.1191,-4.1128,-4.108,-4.108,-4.1019,-4.0515,-3.9156,-4.0033,-4.039,-3.9062,-3.9946,-4.0752,-4.0793,-4.0752,-4.0752,-4.0793,-4.0801,-4.0816,-4.087,-4.0824,-4.0816,-4.087,-4.087,-4.0908,-4.0955,-4.0955,-4.0964,-4.0996,-4.092,-4.0828,-4.0742,-4.063,-4.0491,-4.0309,-3.9814,-3.9336,-3.8785,-3.7404,-3.636,-3.5573,-3.423,-3.3218,-3.243,-3.0862,-2.9656,-2.8525,-2.6257,-2.407,-2.1797,-2.8978,-2.9509,-2.9792,-2.9792,-2.982,-2.991,-3.019,-3.1044,-3.1888,-3.2522,-3.3449,-3.4172,-3.472,-3.5483,-3.5677,-3.5002,-3.5241,-3.5354,-3.5102,-3.5259,-3.5658,-3.64,-3.6198,-3.5946,-3.5639,-3.6139,-3.658,-3.696,-3.7433,-3.7946,-3.8465,-3.8465,-3.8546,-3.8707,-3.8707,-3.8844,-3.9125,-3.9462,-3.9797,-4.012,-4.0389,-4.0489,-4.0489,-4.0489,-4.0489,-4.0489,-4.0489,-4.0489,-4.0489,-4.0489,-4.0489,-4.0489,-4.0489,-4.0641,-4.0831,-4.1077,-4.1103,-4.108,-4.1171,-4.1191,-4.1191,-4.1191,-4.1191,-4.1191,-4.1191,-4.1171,-4.1149,-4.1149,-4.1026,-4.095,-4.095,-4.0864,-4.0785,-4.077,-4.0761,-4.0752,-4.0713,-4.0672,-4.0648,-4.0692,-4.0672,-4.0667,-4.0692,-4.0703,-4.0723,-4.0761,-4.0733,-4.0723,-4.0761,-4.0761,-4.0779,-4.0801,-4.0558,-4.0576,-4.089,-4.0805,-4.0591,-4.0254,-4.0162,-3.9893,-3.947,-3.9128,-3.8666,-3.8095,-3.6934,-3.5915,-3.4927,-3.3068,-3.1928,-3.1158,-2.8479,-2.7053,-2.6244,-2.3322,-2.0988,-1.8688,-2.769,-2.8773,-2.9792,-2.9792,-2.977,-3.0103,-3.104,-3.196,-3.2593,-3.2593,-3.338,-3.3797,-3.3125,-3.3932,-3.4203,-3.3544,-3.2886,-3.2762,-3.3434,-3.414,-3.4894,-3.556,-3.4941,-3.4941,-3.5577,-3.6139,-3.6374,-3.6374,-3.696,-3.7433,-3.7893,-3.7893,-3.8183,-3.8707,-3.8707,-3.8844,-3.9125,-3.9438,-3.9797,-4.012,-4.0389,-4.0489,-4.0489,-4.0489,-4.0489,-4.0489,-4.0489,-4.0489,-4.0489,-4.0489,-4.0489,-4.0489,-4.0504,-4.0653,-4.0836,-4.0959,-4.1082,-4.1191,-4.1191,-4.1191,-4.1191,-4.1191,-4.1191,-4.1191,-4.1191,-4.1103,-4.0996,-4.0996,-4.0883,-4.0801,-4.0801,-4.0793,-4.0779,-4.0707,-4.0692,-4.0642,-4.0519,-4.0489,-4.0489,-4.0489,-4.0489,-4.0489,-4.0489,-4.0489,-4.0545,-4.068,-4.0554,-4.0526,-4.066,-4.0692,-4.0721,-4.0785,-3.9992,-3.9942,-4.0672,-4.0672,-4.0204,-3.9301,-3.9296,-3.8861,-3.8078,-3.7756,-3.759,-3.7572,-3.7308,-3.6092,-3.414,-3.2335,-3.0439,-2.8444,-2.5518,-2.327,-2.1553,-2.045,-1.7429,-1.3602,-2.8966,-2.9509,-2.9792,-2.9792,-2.982,-2.991,-3.019,-3.0419,-3.0846,-3.1536,-3.2022,-3.2537,-3.3016,-3.3534,-3.3529,-3.2871,-3.2632,-3.2581,-3.2857,-3.257,-3.2955,-3.4137,-3.4911,-3.5424,-3.5577,-3.6139,-3.6374,-3.6374,-3.7268,-3.7755,-3.7893,-3.83,-3.8546,-3.8707,-3.8707,-3.8844,-3.9125,-3.9231,-3.9576,-4.0101,-4.0177,-4.0339,-4.0489,-4.0489,-4.0489,-4.0489,-4.0489,-4.0489,-4.0489,-4.0489,-4.0489,-4.0519,-4.061,-4.0712,-4.0836,-4.0959,-4.1082,-4.1191,-4.1191,-4.1191,-4.1191,-4.1191,-4.1191,-4.1191,-4.1191,-4.1103,-4.0996,-4.0996,-4.0855,-4.0731,-4.0731,-4.0641,-4.059,-4.0554,-4.0559,-4.0342,-3.9755,-3.9654,-3.9448,-3.8883,-3.8812,-3.8952,-3.9265,-3.9307,-3.9482,-3.9908,-3.9545,-3.9185,-3.8889,-3.8889,-3.8877,-3.8898,-3.8671,-3.8658,-3.8889,-3.8916,-3.9045,-3.9276,-3.8738,-3.8203,-3.7755,-3.7661,-3.7047,-3.6021,-3.5431,-3.3622,-3.1057,-3.0078,-2.8076,-2.5479,-2.3329,-2.1713,-2.0213,-1.6867,-1.4398,-1.211,-2.7176,-2.8541,-2.9792,-2.9792,-2.9792,-2.9792,-2.9792,-2.9591,-2.9656,-3.0209,-3.0538,-3.0911,-3.1221,-3.1804,-3.1849,-3.1148,-3.109,-3.1516,-3.2563,-3.1849,-3.2084,-3.3531,-3.464,-3.5207,-3.5207,-3.5994,-3.6308,-3.6097,-3.7117,-3.7614,-3.7649,-3.815,-3.8515,-3.8707,-3.8707,-3.8844,-3.9125,-3.9238,-3.9599,-4.0101,-4.0213,-4.0356,-4.0489,-4.0489,-4.0489,-4.0489,-4.0489,-4.0489,-4.0489,-4.0489,-4.0489,-4.0519,-4.0615,-4.0696,-4.077,-4.0896,-4.1019,-4.1128,-4.1191,-4.1191,-4.1191,-4.1191,-4.1191,-4.1191,-4.1128,-4.1023,-4.0908,-4.0896,-4.0742,-4.0623,-4.0623,-4.0466,-4.0283,-4.006,-3.991,-3.9591,-3.8908,-3.8812,-3.8635,-3.818,-3.8102,-3.821,-3.8497,-3.8507,-3.8535,-3.8627,-3.8293,-3.7888,-3.7301,-3.7268,-3.7268,-3.7268,-3.6967,-3.695,-3.7268,-3.6663,-3.6898,-3.7897,-3.7434,-3.6786,-3.6029,-3.6029,-3.513,-3.3551,-3.3128,-3.1073,-2.7973,-2.6867,-2.5158,-2.2988,-1.9371,-1.7813,-1.7096,-1.2711,-0.9498,-0.6987,-2.4106,-2.7027,-2.9829,-2.9792,-2.9792,-2.9779,-2.9716,-2.9264,-2.8913,-2.8863,-2.9184,-2.9161,-2.8539,-2.9306,-2.9661,-2.9044,-2.9066,-3.009,-3.2367,-3.1788,-3.1952,-3.3427,-3.4137,-3.4528,-3.4576,-3.5742,-3.6097,-3.5622,-3.6643,-3.7152,-3.7152,-3.7614,-3.8117,-3.8627,-3.8627,-3.8796,-3.909,-3.9432,-3.9754,-4.0081,-4.0356,-4.0473,-4.0489,-4.0489,-4.0489,-4.0489,-4.0489,-4.0489,-4.0489,-4.0489,-4.0489,-4.0504,-4.0519,-4.061,-4.0729,-4.0805,-4.0914,-4.103,-4.1171,-4.1191,-4.1191,-4.1191,-4.1151,-4.111,-4.1023,-4.0896,-4.077,-4.0676,-4.0549,-4.0438,-4.0367,-4.0157,-3.9806,-3.9274,-3.8945,-3.8554,-3.8059,-3.793,-3.7849,-3.7804,-3.7735,-3.7703,-3.7767,-3.7799,-3.7548,-3.6895,-3.6843,-3.6524,-3.5814,-3.5612,-3.5539,-3.5539,-3.4592,-3.4455,-3.529,-3.3756,-3.3862,-3.5703,-3.5468,-3.4666,-3.3322,-3.3176,-3.2107,-3.0458,-3.0342,-2.8233,-2.4677,-2.2856,-2.1507,-1.9992,-1.4124,-1.2266,-1.2373,-0.8018,-0.3577,0.0348,-2.8458,-2.9138,-2.9816,-2.9764,-2.9792,-2.9628,-2.905,-2.89,-2.8775,-2.8348,-2.8518,-2.8631,-2.8499,-2.894,-2.914,-2.9016,-2.9628,-3.051,-3.1682,-3.1552,-3.1864,-3.2788,-3.3443,-3.4087,-3.4576,-3.5374,-3.5694,-3.5622,-3.6249,-3.6563,-3.6563,-3.7097,-3.7614,-3.8065,-3.8065,-3.8346,-3.8803,-3.909,-3.9389,-3.9754,-4.0062,-4.0321,-4.0489,-4.0489,-4.0489,-4.0489,-4.0489,-4.0489,-4.0489,-4.0489,-4.0489,-4.0519,-4.0623,-4.0721,-4.0805,-4.092,-4.1052,-4.1151,-4.1191,-4.1191,-4.1171,-4.1077,-4.0847,-4.0719,-4.0949,-4.0867,-4.0645,-4.0381,-4.0238,-3.9985,-3.9284,-3.912,-3.8932,-3.8442,-3.8298,-3.7997,-3.7255,-3.664,-3.6063,-3.5426,-3.4889,-3.4731,-3.5081,-3.5522,-3.5505,-3.4958,-3.4914,-3.4676,-3.4167,-3.2711,-3.1941,-3.1941,-2.956,-2.8797,-2.9806,-2.8645,-3.0402,-3.5002,-3.29,-3.1717,-3.1371,-2.9923,-2.8768,-2.787,-2.698,-2.4061,-1.9672,-1.8355,-1.5378,-1.1394,-1.003,-0.794,-0.54,-0.26,0.026,0.3358,-2.6588,-2.8354,-2.9783,-2.9829,-2.9324,-2.8886,-2.8474,-2.825,-2.8047,-2.7758,-2.7615,-2.7575,-2.7575,-2.7708,-2.7986,-2.8363,-2.8427,-2.9002,-3.0208,-3.063,-3.1028,-3.1492,-3.2833,-3.3582,-3.3633,-3.4592,-3.5253,-3.5622,-3.6139,-3.6374,-3.6416,-3.7173,-3.7649,-3.7893,-3.8183,-3.8433,-3.8719,-3.9144,-3.9438,-3.9645,-4.0101,-4.0372,-4.0489,-4.0489,-4.0489,-4.0489,-4.0489,-4.0489,-4.0489,-4.0489,-4.053,-4.061,-4.0667,-4.0742,-4.0836,-4.0959,-4.1052,-4.1126,-4.1171,-4.1047,-4.0859,-4.0783,-4.0451,-4.0256,-4.0538,-4.0442,-4.0191,-3.9966,-3.9669,-3.934,-3.888,-3.8232,-3.7584,-3.7076,-3.6589,-3.6063,-3.5436,-3.5004,-3.4595,-3.4153,-3.3836,-3.3703,-3.3957,-3.2942,-3.2044,-3.1413,-3.0618,-2.9827,-2.9252,-2.8825,-2.8291,-2.7781,-2.5199,-2.3851,-2.3885,-2.2221,-2.2873,-2.5759,-2.6315,-2.6401,-2.6019,-2.3431,-2.154,-2.0321,-1.9806,-1.6389,-1.1144,-1.1087,-0.8474,-0.4362,-0.279,-0.1613,-0.0425,0.3509,0.6427,0.8981,-2.4121,-2.7238,-2.9774,-2.9819,-2.8874,-2.8014,-2.7829,-2.7516,-2.7256,-2.7155,-2.6753,-2.6533,-2.6533,-2.6533,-2.685,-2.7604,-2.7095,-2.7351,-2.8876,-2.9685,-3.017,-3.048,-3.2384,-3.3287,-3.2949,-3.4037,-3.4894,-3.5424,-3.6011,-3.6291,-3.6416,-3.7268,-3.7755,-3.7911,-3.8382,-3.864,-3.8803,-3.9377,-3.9622,-3.9735,-4.0283,-4.0489,-4.0489,-4.0489,-4.0489,-4.0504,-4.0534,-4.0545,-4.0554,-4.053,-4.0623,-4.0718,-4.0751,-4.079,-4.0864,-4.0992,-4.1026,-4.1038,-4.1074,-4.0808,-4.0482,-4.0402,-4.0034,-3.9776,-3.9982,-3.9795,-3.9593,-3.943,-3.8973,-3.8516,-3.8287,-3.7234,-3.6199,-3.5547,-3.4743,-3.4023,-3.3668,-3.3495,-3.3308,-3.3003,-3.2384,-3.1951,-3.1765,-2.9552,-2.785,-2.7292,-2.5921,-2.4614,-2.3572,-2.4119,-2.3805,-2.2462,-2.006,-1.8485,-1.7758,-1.5238,-1.3958,-1.4009,-1.6578,-1.8455,-1.9404,-1.5835,-1.3451,-1.1935,-1.1294,-0.7858,-0.2654,-0.3103,-0.1414,0.1806,0.478,0.5147,0.4541,0.9623,1.294,1.5183,-2.8162,-2.9364,-2.9763,-2.9758,-2.8863,-2.7767,-2.683,-2.703,-2.7105,-2.6697,-2.6584,-2.6533,-2.6533,-2.6533,-2.685,-2.7604,-2.7604,-2.792,-2.8939,-2.9799,-3.0511,-3.1157,-3.2195,-3.3251,-3.4333,-3.4528,-3.4624,-3.4736,-3.5391,-3.5941,-3.6416,-3.6522,-3.7097,-3.7893,-3.798,-3.84,-3.9063,-3.9438,-3.9775,-4.0062,-4.0372,-4.0489,-4.0489,-4.0489,-4.0489,-4.0519,-4.0636,-4.071,-4.0761,-4.0696,-4.0731,-4.0813,-4.0914,-4.0979,-4.0996,-4.1128,-4.1171,-4.1093,-4.071,-4.0551,-4.0402,-3.9999,-3.9621,-3.9354,-3.9264,-3.9095,-3.8872,-3.8615,-3.8149,-3.7379,-3.6087,-3.5677,-3.5183,-3.4072,-3.3772,-3.3652,-3.3582,-3.3093,-3.2118,-3.0499,-2.7574,-2.5314,-2.4354,-2.3918,-2.3653,-2.3549,-2.328,-2.2231,-2.0103,-1.8583,-1.6818,-1.4617,-1.1851,-1.0709,-1.1508,-0.8217,-0.6505,-0.6474,-0.303,-0.5755,-1.3969,-0.9828,-0.7862,-0.7473,-0.4421,-0.1501,0.1341,0.3028,0.5262,0.765,0.9074,1.0684,1.2566,1.5338,1.7692,1.9587,-2.5644,-2.8093,-2.977,-2.9806,-2.7436,-2.5408,-2.4881,-2.5022,-2.5098,-2.4874,-2.4838,-2.5063,-2.5594,-2.6164,-2.6658,-2.6973,-2.704,-2.7162,-2.7604,-2.8743,-2.9406,-2.9282,-3.0454,-3.1456,-3.2158,-3.2578,-3.2982,-3.3495,-3.4544,-3.5374,-3.5941,-3.5899,-3.6271,-3.7097,-3.7396,-3.7957,-3.8728,-3.9029,-3.9509,-4.012,-4.0389,-4.0489,-4.0489,-4.0489,-4.0425,-4.0302,-4.0395,-4.0571,-4.0793,-4.0781,-4.084,-4.092,-4.0988,-4.1052,-4.1126,-4.1171,-4.1191,-4.109,-4.0623,-4.0148,-3.9665,-3.9205,-3.8599,-3.8118,-3.8053,-3.7451,-3.7041,-3.7467,-3.6594,-3.5583,-3.4906,-3.4283,-3.332,-3.1723,-3.1135,-3.0338,-2.8708,-2.8181,-2.7461,-2.6074,-2.4462,-2.329,-2.282,-2.1314,-1.9834,-1.8488,-1.7458,-1.5874,-1.348,-1.3159,-1.1647,-0.8642,-0.6111,-0.4034,-0.2573,0.0263,0.1674,0.165,0.4402,0.238,-0.3719,-0.0527,0.0866,0.102,0.3219,0.5829,0.8625,0.959,1.1769,1.4529,1.5005,1.6469,1.8451,1.891,2.0352,2.2125]},{"header":{"parameterUnit":"m.s-1","parameterCategory":1,"la1":30.6,"la2":28.766,"lo1":-90.7593,"lo2":-88.6598,"dy":0.0162,"dx":0.0183,"nx":116,"ny":114,"refTime":"2023-05-15T06:00:00:Z","depth":0,"parameterNumber":3,"parameterNumberName":"V-component_of_WINDS"},"data":[0.0,0.0,0.0,0.0,0.0,0.0,0.0,0.0,0.0,0.0,0.0,0.0,0.0,0.0,0.0,0.0,0.0,0.0,0.0,0.0,0.0,0.0,0.0,0.0,0.0,0.0,0.0,0.0,0.0,0.0,0.0,0.0,0.0,0.0,0.0,0.0,0.0,0.0,0.0,0.0,0.0,0.0,0.0,0.0,0.0,0.0,0.0,0.0,0.0,0.0,0.0,0.0,0.0,0.0,0.0,0.0,0.0,0.0,0.0,0.0,0.0,0.0,0.0,0.0,0.0,0.0,0.0,0.0,0.0,0.0,0.0,0.0,0.0,0.0,0.0,0.0,0.0,0.0,0.0,0.0,0.0,0.0,0.0,0.0,0.0,0.0,0.0,0.0,0.0,0.0,0.0,0.0,0.0,0.0,0.0,0.0,0.0,0.0,0.0,0.0,0.0,0.0,0.0,0.0,0.0,0.0,0.0,0.0,0.0,0.0,0.0,0.0,0.0,0.0,0.0,0.0,0.0,0.0,0.0,0.0,0.0,0.0,0.0,0.0,0.0,0.0,0.0,0.0,0.0,0.0,0.0,0.0,0.0,0.0,0.0,0.0,0.0,0.0,0.0,0.0,0.0,0.0,0.0,0.0,0.0,0.0,0.0,0.0,0.0,0.0,0.0,0.0,0.0,0.0,0.0,0.0,0.0,0.0,0.0,0.0,0.0,0.0,0.0,0.0,0.0,0.0,0.0,0.0,0.0,0.0,0.0,0.0,0.0,0.0,0.0,0.0,0.0,0.0,0.0,0.0,0.0,0.0,0.0,0.0,0.0,0.0,0.0,0.0,0.0,0.0,0.0,0.0,0.0,0.0,0.0,0.0,0.0,0.0,0.0,0.0,0.0,0.0,0.0,0.0,0.0,0.0,0.0,0.0,0.0,0.0,0.0,0.0,0.0,0.0,0.0,0.0,0.0,0.0,0.0,0.0,0.0,0.0,0.0,0.0,0.0,0.0,0.0,0.0,0.0,0.0,0.0,0.0,0.0,0.0,0.0,0.0,0.0,0.0,0.0,0.0,0.0,0.0,0.0,0.0,0.0,0.0,0.0,0.0,0.0,0.0,0.0,0.0,0.0,0.0,0.0,0.0,0.0,0.0,0.0,0.0,0.0,0.0,0.0,0.0,0.0,0.0,0.0,0.0,0.0,0.0,0.0,0.0,0.0,0.0,0.0,0.0,0.0,0.0,0.0,0.0,0.0,0.0,0.0,0.0,0.0,0.0,0.0,0.0,0.0,0.0,0.0,0.0,0.0,0.0,0.0,0.0,0.0,0.0,0.0,0.0,0.0,0.0,0.0,0.0,0.0,0.0,0.0,0.0,0.0,0.0,0.0,0.0,0.0,0.0,0.0,0.0,0.0,0.0,0.0,0.0,0.0,0.0,0.0,0.0,0.0,0.0,0.0,0.0,0.0,0.0,0.0,0.0,0.0,0.0,0.0,0.0,0.0,0.0,0.0,0.0,0.0,0.0,0.0,0.0,0.0,0.0,0.0,0.0,0.0,0.0,0.0,0.0,0.0,0.0,0.0,0.0,0.0,0.0,0.0,0.0,0.0,0.0,0.0,0.0,0.0,0.0,0.0,0.0,0.0,0.0,0.0,0.0,0.0,0.0,0.0,0.0,0.0,0.0,0.0,0.0,0.0,0.0,0.0,0.0,0.0,0.0,0.0,0.0,0.0,0.0,0.0,0.0,0.0,0.0,0.0,0.0,0.0,0.0,0.0,0.0,0.0,0.0,0.0,0.0,0.0,0.0,0.0,0.0,0.0,0.0,0.0,0.0,0.0,0.0,0.0,0.0,0.0,0.0,0.0,0.0,0.0,0.0,0.0,0.0,0.0,0.0,0.0,0.0,0.0,0.0,0.0,0.0,0.0,0.0,0.0,0.0,0.0,0.0,0.0,0.0,0.0,0.0,0.0,0.0,0.0,0.0,0.0,0.0,0.0,0.0,0.0,0.0,0.0,0.0,0.0,0.0,0.0,0.0,0.0,0.0,0.0,0.0,0.0,0.0,0.0,0.0,0.0,0.0,0.0,0.0,0.0,0.0,0.0,0.0,0.0,0.0,0.0,0.0,0.0,0.0,0.0,0.0,0.0,0.0,0.0,0.0,0.0,0.0,0.0,0.0,0.0,0.0,0.0,0.0,0.0,0.0,0.0,0.0,0.0,0.0,0.0,0.0,0.0,0.0,0.0,0.0,0.0,0.0,0.0,0.0,0.0,0.0,0.0,0.0,0.0,0.0,0.0,0.0,0.0,0.0,0.0,0.0,0.0,0.0,0.0,0.0,0.0,0.0,0.0,0.0,0.0,0.0,0.0,0.0,0.0,0.0,0.0,0.0,0.0,0.0,0.0,0.0,0.0,0.0,0.0,0.0,0.0,0.0,0.0,0.0,0.0,0.0,0.0,0.0,0.0,0.0,0.0,0.0,0.0,0.0,0.0,0.0,0.0,0.0,0.0,0.0,0.0,0.0,0.0,0.0,0.0,0.0,0.0,0.0,0.0,0.0,0.0,0.0,0.0,0.0,0.0,0.0,0.0,0.0,0.0,0.0,0.0,0.0,0.0,0.0,0.0,0.0,0.0,0.0,0.0,0.0,0.0,0.0,0.0,0.0,0.0,0.0,0.0,0.0,0.0,0.0,0.0,0.0,0.0,0.0,0.0,0.0,0.0,0.0,0.0,0.0,0.0,0.0,0.0,0.0,0.0,0.0,0.0,0.0,0.0,0.0,0.0,0.0,0.0,0.0,0.0,0.0,0.0,0.0,0.0,0.0,0.0,0.0,0.0,0.0,0.0,0.0,0.0,0.0,0.0,0.0,0.0,0.0,0.0,0.0,0.0,0.0,0.0,0.0,0.0,0.0,0.0,0.0,0.0,0.0,0.0,0.0,0.0,0.0,0.0,0.0,0.0,0.0,0.0,0.0,0.0,0.0,0.0,0.0,0.0,0.0,0.0,0.0,0.0,0.0,0.0,0.0,0.0,0.0,0.0,0.0,0.0,0.0,0.0,0.0,0.0,0.0,0.0,0.0,0.0,0.0,0.0,0.0,0.0,0.0,0.0,0.0,0.0,0.0,0.0,0.0,0.0,0.0,0.0,0.0,0.0,0.0,0.0,0.0,0.0,0.0,0.0,0.0,0.0,0.0,0.0,0.0,0.0,0.0,0.0,0.0,0.0,0.0,0.0,0.0,0.0,0.0,0.0,0.0,0.0,0.0,0.0,0.0,0.0,0.0,0.0,0.0,0.0,0.0,0.0,0.0,0.0,0.0,0.0,0.0,0.0,0.0,0.0,0.0,0.0,0.0,0.0,0.0,0.0,0.0,0.0,0.0,0.0,0.0,0.0,0.0,0.0,0.0,0.0,0.0,0.0,0.0,0.0,0.0,0.0,0.0,0.0,0.0,0.0,0.0,0.0,0.0,0.0,0.0,0.0,0.0,0.0,0.0,0.0,0.0,0.0,0.0,0.0,0.0,0.0,0.0,0.0,0.0,0.0,0.0,0.0,0.0,0.0,0.0,0.0,0.0,0.0,0.0,0.0,0.0,0.0,0.0,0.0,0.0,0.0,0.0,0.0,0.0,0.0,0.0,0.0,0.0,0.0,0.0,0.0,0.0,0.0,0.0,0.0,0.0,0.0,0.0,0.0,0.0,0.0,0.0,0.0,0.0,0.0,0.0,0.0,0.0,0.0,0.0,0.0,0.0,0.0,0.0,0.0,0.0,0.0,0.0,0.0,0.0,0.0,0.0,0.0,0.0,0.0,0.0,0.0,0.0,0.0,0.0,0.0,0.0,0.0,0.0,0.0,0.0,0.0,0.0,0.0,0.0,0.0,0.0,0.0,0.0,0.0,0.0,0.0,0.0,0.0,0.0,0.0,0.0,0.0,0.0,0.0,0.0,0.0,0.0,0.0,0.0,0.0,0.0,0.0,0.0,0.0,0.0,0.0,0.0,0.0,0.0,0.0,0.0,0.0,0.0,0.0,0.0,0.0,0.0,0.0,0.0,0.0,0.0,0.0,0.0,0.0,0.0,0.0,0.0,0.0,0.0,0.0,0.0,0.0,0.0,0.0,0.0,0.0,0.0,0.0,0.0,0.0,0.0,0.0,0.0,0.0,0.0,0.0,0.0,0.0,0.0,0.0,0.0,0.0,0.0,0.0,0.0,0.0,0.0,0.0,0.0,0.0,0.0,0.0,0.0,0.0,0.0,0.0,0.0,0.0,0.0,0.0,0.0,0.0,0.0,0.0,0.0,0.0,0.0,0.0,0.0,0.0,0.0,0.0,0.0,0.0,0.0,0.0,0.0,0.0,0.0,0.0,0.0,0.0,0.0,0.0,0.0,0.0,0.0,0.0,0.0,0.0,0.0,0.0,0.0,0.0,0.0,0.0,0.0,0.0,0.0,0.0,0.0,0.0,0.0,0.0,0.0,0.0,0.0,0.0,0.0,0.0,0.0,0.0,0.0,0.0,0.0,0.0,0.0,0.0,0.0,0.0,0.0,0.0,0.0,0.0,0.0,0.0,0.0,0.0,0.0,0.0,0.0,0.0,0.0,0.0,0.0,0.0,0.0,0.0,0.0,0.0,0.0,0.0,0.0,0.0,0.0,0.0,0.0,0.0,0.0,0.0,0.0,0.0,0.0,0.0,0.0,0.0,0.0,0.0,0.0,0.0,0.0,0.0,0.0,0.0,0.0,0.0,0.0,0.0,0.0,0.0,0.0,0.0,0.0,0.0,0.0,0.0,0.0,0.0,0.0,0.0,0.0,0.0,0.0,0.0,0.0,0.0,0.0,0.0,0.0,0.0,0.0,0.0,0.0,0.0,0.0,0.0,0.0,0.0,0.0,0.0,0.0,0.0,0.0,0.0,0.0,0.0,0.0,0.0,0.0,0.0,0.0,0.0,0.0,0.0,0.0,0.0,0.0,0.0,0.0,0.0,0.0,0.0,0.0,0.0,0.0,0.0,0.0,0.0,0.0,0.0,0.0,0.0,0.0,0.0,0.0,0.0,0.0,0.0,0.0,0.0,0.0,0.0,0.0,0.0,0.0,0.0,0.0,0.0,0.0,0.0,0.0,0.0,0.0,0.0,0.0,0.0,0.0,0.0,0.0,0.0,0.0,0.0,0.0,0.0,0.0,0.0,0.0,0.0,0.0,0.0,0.0,0.0,0.0,0.0,0.0,0.0,0.0,0.0,0.0,0.0,0.0,0.0,0.0,0.0,0.0,0.0,0.0,0.0,0.0,0.0,0.0,0.0,0.0,0.0,0.0,0.0,0.0,0.0,0.0,0.0,0.0,0.0,0.0,0.0,0.0,0.0,0.0,0.0,0.0,0.0,0.0,0.0,0.0,0.0,0.0,0.0,0.0,0.0,0.0,0.0,0.0,0.0,0.0,0.0,0.0,0.0,0.0,0.0,0.0,0.0,0.0,0.0,0.0,0.0,0.0,0.0,0.0,0.0,0.0,0.0,0.0,0.0,0.0,0.0,0.0,0.0,0.0,0.0,0.0,0.0,0.0,0.0,0.0,0.0,0.0,0.0,0.0,0.0,0.0,0.0,0.0,0.0,0.0,0.0,0.0,0.0,0.0,0.0,0.0,0.0,0.0,0.0,0.0,0.0,0.0,0.0,0.0,0.0,0.0,0.0,0.0,0.0,0.0,0.0,0.0,0.0,0.0,0.0,0.0,0.0,0.0,0.0,0.0,0.0,0.0,0.0,0.0,0.0,0.0,0.0,0.0,0.0,0.0,0.0,0.0,0.0,0.0,0.0,0.0,0.0,0.0,0.0,0.0,0.0,0.0,0.0,0.0,0.0,0.0,0.0,0.0,0.0,0.0,0.0,0.0,0.0,0.0,0.0,0.0,0.0,0.0,0.0,0.0,0.0,0.0,0.0,0.0,0.0,0.0,0.0,0.0,0.0,0.0,0.0,0.0,0.0,0.0,0.0,0.0,0.0,0.0,0.0,0.0,0.0,0.0,0.0,0.0,0.0,0.0,0.0,0.0,0.0,0.0,0.0,0.0,0.0,0.0,0.0,0.0,0.0,0.0,0.0,0.0,0.0,0.0,-0.4092,-0.2492,0.0,0.0,0.0,0.0,0.0,0.0,0.0,0.0,0.0,0.0,0.0,0.0,0.0,0.0,0.0,0.0,0.0,0.0,0.0,0.0,0.0,0.0,0.0,0.0,0.0,0.0,0.0,0.0,0.0,0.0,0.0,0.0,0.0,0.0,0.0,0.0,0.0,0.0,0.0,0.0,0.0,0.0,0.0,0.0,0.0,0.0,0.0,0.0,0.0,0.0,0.0,0.0,0.0,0.0,0.0,0.0,0.0,0.0,0.0,0.0,0.0,0.0,0.0,0.0,0.0,0.0,0.0,0.0,0.0,0.0,0.0,0.0,0.0,0.0,0.0,0.0,0.0,0.0,0.0,0.0,0.0,0.0,0.0,0.0,0.0,0.0,0.0,0.0,0.0,0.0,0.0,0.0,0.0,0.0,0.0,0.0,0.0,0.0,0.0,0.0,0.0,0.0,0.0,0.0,0.0,0.0,0.0,0.0,0.0,0.0,0.0,0.0,0.0,0.0,-0.4935,-0.3847,0.0,0.0,0.0,0.0,0.0,0.0,0.0,0.0,0.0,0.0,0.0,0.0,0.0,0.0,0.0,0.0,0.0,0.0,0.0,0.0,0.0,0.0,0.0,0.0,0.0,0.0,0.0,0.0,0.0,0.0,0.0,0.0,0.0,0.0,0.0,0.0,0.0,0.0,0.0,0.0,0.0,0.0,0.0,0.0,0.0,0.0,0.0,0.0,0.0,0.0,0.0,0.0,0.0,0.0,0.0,0.0,0.0,0.0,0.0,0.0,0.0,0.0,0.0,0.0,0.0,0.0,0.0,0.0,0.0,0.0,0.0,0.0,0.0,0.0,0.0,0.0,0.0,0.0,0.0,0.0,0.0,0.0,0.0,0.0,0.0,0.0,0.0,0.0,0.0,0.0,0.0,0.0,0.0,0.0,0.0,0.0,0.0,0.0,0.0,0.0,0.0,0.0,0.0,0.0,0.0,0.0,0.0,0.0,-0.6361,-0.6844,-0.6026,-0.6844,-0.7434,-0.7567,-0.5555,-0.5184,-0.585,-0.3617,0.0,0.0,0.0,0.0,0.0,0.0,0.0,0.0,0.0,0.0,0.0,0.0,0.0,0.0,0.0,0.0,0.0,0.0,0.0,0.0,0.0,0.0,0.0,0.0,0.0,0.0,0.0,0.0,0.0,0.0,0.0,0.0,0.0,0.0,0.0,0.0,0.0,0.0,-1.459,-1.3698,-1.3804,-1.4804,-1.3169,0.0,0.0,0.0,0.0,0.0,0.0,0.0,0.0,0.0,0.0,0.0,0.0,0.0,0.0,0.0,0.0,0.0,0.0,0.0,0.0,0.0,0.0,0.0,0.0,0.0,0.0,0.0,0.0,0.0,0.0,0.0,0.0,0.0,0.0,0.0,0.0,0.0,0.0,0.0,0.0,0.0,0.0,0.0,-0.5886,-0.4955,0.0,0.0,0.0,0.0,0.0,0.0,0.0,0.0,0.0,0.0,0.0,0.0,0.0,-0.3546,-0.3802,-0.5124,-0.5734,-0.5743,-0.7208,-0.7821,-0.7723,-0.7825,-0.7943,-0.798,-0.7641,0.0,-0.597,-0.5626,0.0,0.0,0.0,0.0,0.0,0.0,0.0,0.0,0.0,0.0,0.0,0.0,0.0,0.0,0.0,0.0,0.0,0.0,0.0,0.0,0.0,0.0,0.0,0.0,0.0,0.0,0.0,0.0,0.0,0.0,0.0,0.0,0.0,0.0,0.0,0.0,-1.2953,-1.3607,-1.4409,-1.394,-1.394,-1.4402,-1.3654,-1.2859,-1.2104,-1.1977,0.0,0.0,0.0,0.0,0.0,0.0,0.0,0.0,0.0,0.0,0.0,0.0,0.0,0.0,0.0,0.0,0.0,0.0,0.0,0.0,0.0,0.0,0.0,0.0,0.0,0.0,0.0,0.0,0.0,0.0,0.0,0.0,0.0,0.0,0.0,0.0,0.0,0.0,0.0,-0.4659,-0.4723,-0.3302,-0.3092,-0.2515,0.0,0.0,0.0,0.0,0.0,0.0,0.0,0.0,0.0,-0.2522,-0.2698,-0.3417,-0.4912,-0.5628,-0.6319,-0.7158,-0.7677,-0.8038,-0.8038,-0.8038,-0.8038,-0.8038,-0.8038,-0.7664,-0.7046,-0.6317,-0.5296,-0.4131,0.0,0.0,0.0,0.0,-0.0611,0.0,0.0,0.0,0.0,0.0,0.0,0.0,0.0,0.0,0.0,0.0,0.0,0.0,0.0,0.0,0.0,-1.3768,0.0,0.0,0.0,0.0,0.0,0.0,0.0,0.0,0.0,0.0,0.0,0.0,-1.336,-1.3661,-1.4088,-1.4088,-1.4088,-1.4088,-1.4088,-1.3507,-1.2532,-1.2532,-1.2191,0.0,0.0,0.0,0.0,0.0,0.0,0.0,0.0,0.0,0.0,0.0,0.0,0.0,0.0,0.0,0.0,0.0,0.0,0.0,0.0,0.0,0.0,0.0,0.0,0.0,0.0,0.0,0.0,0.0,0.0,0.0,0.0,0.0,0.0,0.0,0.0,0.0,0.0,-0.3914,-0.4124,-0.2449,-0.2847,-0.2519,0.0,0.0,0.0,0.0,0.0,0.0,-0.0406,-0.0496,-0.102,-0.2217,-0.2653,-0.3871,-0.5759,-0.624,-0.7,-0.8038,-0.8038,-0.8038,-0.8038,-0.8038,-0.8038,-0.8041,-0.8082,-0.8099,-0.7975,-0.6934,-0.6317,-0.5863,-0.4499,-0.3157,-0.1973,-0.1631,-0.082,0.0,0.0,0.0,0.0,0.0,0.0,0.0,0.0,0.0,0.0,0.0,0.0,0.0,0.0,0.0,-1.1675,-1.0901,-0.975,-0.9104,0.0,0.0,0.0,0.0,0.0,0.0,0.0,0.0,0.0,-1.3213,-1.3768,-1.4055,-1.4088,-1.4088,-1.4088,-1.4088,-1.4088,-1.3748,-1.316,-1.316,-1.2812,-1.2211,0.0,0.0,0.0,0.0,0.0,0.0,0.0,0.0,0.0,0.0,0.0,0.0,0.0,0.0,0.0,0.0,0.0,0.0,0.0,0.0,0.0,0.0,0.0,0.0,0.0,0.0,0.0,0.0,0.0,0.0,0.0,0.0,0.0,0.0,0.0,0.0,0.0,0.0,0.0,-0.3679,-0.3566,0.0,0.0,0.0,0.0,0.0,0.0,-0.0501,-0.1684,-0.1692,-0.2269,-0.3492,-0.4729,-0.5546,-0.5759,-0.7036,-0.7798,-0.8038,-0.8038,-0.8038,-0.8038,-0.8038,-0.8038,-0.8048,-0.8197,-0.8258,-0.8245,-0.7982,-0.7161,-0.5879,-0.4545,-0.3147,-0.1889,-0.0562,-0.0095,0.0,0.0,0.0,0.0,0.0,0.0,0.0,0.0,0.0,0.0,0.0,0.0,0.0,0.0,-1.2971,-1.2194,-1.1698,-0.9986,-0.8796,-0.8617,0.0,0.0,0.0,0.0,0.0,0.0,0.0,-1.1891,-1.2652,-1.3633,-1.4088,-1.4088,-1.4088,-1.4088,-1.4088,-1.3294,-1.3271,-1.3774,-1.3774,-1.3434,-1.2866,-1.2659,-1.1794,0.0,0.0,0.0,0.0,0.0,0.0,0.0,0.0,0.0,0.0,0.0,0.0,0.0,0.0,0.0,0.0,0.0,0.0,0.0,0.0,0.0,0.0,0.0,0.0,0.0,0.0,0.0,0.0,0.0,0.0,0.0,0.0,0.0,0.0,0.0,0.0,0.0,-0.3773,-0.4315,0.0,-0.2007,-0.1399,-0.0846,-0.0087,0.0,-0.0182,-0.0652,-0.0661,-0.0861,-0.126,-0.2547,-0.3754,-0.4672,-0.5965,-0.7129,-0.8187,-0.8187,-0.8235,-0.8323,-0.8323,-0.8323,-0.8326,-0.8384,-0.8408,-0.8404,-0.8347,-0.8054,-0.7449,-0.602,-0.4657,-0.3211,-0.1833,-0.0717,0.0,0.0,0.0,0.0,0.0,0.0,0.0,0.0,0.0,0.0,0.0,0.0,-1.2475,-1.2763,-1.1587,-1.0724,-1.0539,-0.8416,-0.7048,-0.6819,0.0,0.0,0.0,0.0,0.0,0.0,-0.9809,-1.0988,-1.1724,-1.2942,-1.347,-1.347,-1.3906,-1.4088,-1.4088,-1.3294,-1.3379,-1.4088,-1.4088,-1.3861,-1.3487,-1.3293,-1.2401,-1.1151,0.0,0.0,0.0,0.0,0.0,0.0,0.0,0.0,0.0,0.0,0.0,0.0,0.0,0.0,0.0,0.0,0.0,0.0,0.0,0.0,0.0,0.0,0.0,0.0,0.0,0.0,0.0,0.0,0.0,0.0,0.0,0.0,0.0,0.0,-0.4164,-0.4951,-0.3814,-0.476,-0.4547,-0.2101,-0.1834,-0.1356,-0.0093,0.0,0.0,0.0,0.0,0.0,0.0,-0.1309,-0.2437,-0.3347,-0.5203,-0.6592,-0.761,-0.8133,-0.8391,-0.8482,-0.8482,-0.8482,-0.8486,-0.8537,-0.856,-0.8564,-0.8615,-0.8635,-0.8518,-0.6923,-0.5512,-0.4032,-0.2549,-0.1171,0.0,0.0,0.0,0.0,0.0,0.0,0.0,0.0,0.0,0.0,0.0,-0.94,-0.9401,-0.964,-0.8108,-0.7034,-0.6996,-0.4919,-0.3566,-0.3471,-0.3458,0.0,0.0,0.0,0.0,-0.8078,-0.8611,-0.9405,-1.0524,-1.1724,-1.2242,-1.2242,-1.347,-1.3997,-1.3997,-1.3913,-1.3997,-1.3997,-1.3913,-1.3997,-1.4035,-1.3467,-1.2635,-1.1589,0.0,0.0,0.0,0.0,0.0,0.0,0.0,0.0,0.0,0.0,0.0,0.0,0.0,0.0,0.0,0.0,0.0,0.0,0.0,0.0,0.0,0.0,0.0,0.0,0.0,0.0,0.0,0.0,0.0,0.0,0.0,0.0,0.0,-0.3804,-0.4663,-0.5082,-0.408,-0.492,-0.476,-0.2337,-0.2048,-0.1537,-0.0196,0.0,0.0,0.0,0.0,0.0,-0.0101,-0.1335,-0.2071,-0.2175,-0.494,-0.6361,-0.6363,-0.7849,-0.8489,-0.8496,-0.8496,-0.8496,-0.8506,-0.8652,-0.8716,-0.873,-0.8876,-0.894,-0.8689,-0.7102,-0.5523,-0.4039,-0.2661,-0.128,0.0,0.0,0.0,0.0,0.0,0.0,0.0,0.0,0.0,0.0,0.0,-0.9266,-0.9164,-0.9027,-0.7924,-0.6416,-0.4639,-0.3117,-0.2091,-0.1491,0.0,0.0,0.0,0.0,0.0,-0.6159,-0.7937,-0.9061,-0.9405,-1.0524,-1.1037,-1.1037,-1.1391,-1.1563,-1.1563,-1.0707,-1.0788,-1.1477,-1.0702,-1.1305,-1.2838,-1.3561,-1.332,-1.2426,0.0,0.0,0.0,0.0,0.0,0.0,0.0,0.0,0.0,0.0,0.0,0.0,0.0,0.0,0.0,0.0,0.0,0.0,0.0,0.0,0.0,0.0,0.0,0.0,0.0,0.0,0.0,0.0,0.0,0.0,0.0,-0.501,-0.6028,-0.5138,-0.6123,-0.6761,-0.6554,-0.6879,-0.6426,-0.486,-0.3856,-0.2838,-0.1497,-0.0501,0.0,0.0,0.0,-0.0515,-0.1542,-0.2924,-0.4106,-0.5263,-0.6978,-0.7896,-0.7996,-0.8431,-0.8706,-0.8815,-0.8815,-0.8815,-0.8815,-0.8859,-0.8876,-0.8879,-0.892,-0.894,-0.8595,-0.6081,-0.4739,-0.4079,-0.1545,-0.0332,0.0,0.0,0.0,0.0,0.0,0.0,0.0,0.0,0.0,0.0,0.0,-0.8125,-0.7692,-0.7413,-0.6305,-0.465,-0.2226,-0.113,-0.0168,0.0725,0.0,0.0,0.0,0.0,-0.3586,-0.5351,-0.6773,-0.7918,-0.889,-0.9579,-1.0096,-1.0611,-1.0611,-1.0611,-1.0611,-0.9923,-1.0009,-1.0524,-0.9923,-1.0611,-1.2328,-1.3027,-1.308,-1.2487,-1.1682,-1.0587,-0.9544,-0.9544,-0.8747,-0.7763,-0.7698,0.0,0.0,0.0,0.0,0.0,0.0,0.0,0.0,0.0,0.0,0.0,0.0,0.0,0.0,0.0,0.0,0.0,0.0,0.0,0.0,0.0,0.0,0.0,0.0,-0.5981,-0.6919,-0.6618,-0.7063,-0.7522,-0.7672,-0.7689,-0.7164,-0.6018,-0.5141,-0.3987,-0.2135,-0.1325,-0.0615,0.0,0.0,-0.042,-0.1258,-0.2661,-0.3542,-0.3756,-0.637,-0.7516,-0.6931,-0.8144,-0.8852,-0.894,-0.894,-0.894,-0.894,-0.894,-0.8602,-0.8042,-0.8602,-0.8156,-0.6924,0.0,0.0,0.0,0.0,0.0,0.0,0.0,0.0,0.0,0.0,0.0,0.0,0.0,0.0,0.0,0.0,0.0,-0.5752,-0.528,-0.4214,-0.258,0.0,0.0837,0.1852,0.0,0.0,0.0,0.0644,0.0163,-0.1511,-0.4723,-0.5179,-0.6419,-0.8536,-0.8627,-0.9231,-1.0178,-1.0178,-1.0178,-1.0178,-1.0178,-1.0178,-1.0178,-1.0178,-1.0864,-1.1895,-1.1809,-1.2066,-1.2257,-1.0358,-0.9635,-0.9404,-0.7849,-0.7254,-0.7051,-0.635,0.0,0.0,0.0,0.0,0.0,0.0,0.0,0.0,0.0,0.0,0.0,0.0,0.0,0.0,0.0,0.0,0.0,0.0,0.0,0.0,0.0,0.0,0.0,0.0,-0.6786,-0.7675,-0.7818,-0.7729,-0.7695,-0.7821,-0.7838,-0.7397,-0.6321,-0.6139,-0.4972,-0.2376,-0.2073,-0.1465,-0.0107,0.0,0.0,0.0,0.0,-0.1643,-0.0549,-0.4436,-0.5919,-0.4804,-0.726,-0.8491,-0.8602,-0.8491,-0.838,-0.838,-0.838,-0.7706,-0.6589,-0.7817,-0.6811,-0.4359,-0.5695,-0.525,-0.3689,-0.1008,0.0,0.0,0.0,0.0,0.0,0.0,0.0,0.0,0.0,0.0,0.0,-0.8662,-0.7,-0.5341,-0.4113,-0.3755,-0.2271,0.1161,0.2164,0.3324,0.0,0.0,0.4148,0.3796,0.136,-0.0352,-0.1068,-0.3922,-0.5625,-0.6065,-0.6956,-0.7577,-0.7749,-0.7749,-0.7749,-0.7749,-0.7749,-0.7749,-0.7749,-0.7749,-0.8444,-0.9492,-0.8532,-1.0346,-1.3626,-1.2253,-1.1719,-1.158,-1.0322,-0.9464,-0.8744,-0.7986,-0.7278,-0.6695,-0.6939,-0.6368,0.0,0.0,0.0,0.0,0.0,0.0,0.0,0.0,0.0,0.0,0.0,0.0,0.0,0.0,0.0,0.0,0.0,0.0,0.0,-0.5967,-0.699,-0.7824,-0.7974,-0.797,-0.7963,-0.7991,-0.7994,-0.7905,-0.7633,-0.6819,-0.5551,-0.3716,-0.2725,-0.1485,-0.0107,0.0,-0.0544,-0.1739,-0.2097,-0.267,-0.3672,-0.4463,-0.5363,-0.6255,-0.5697,0.0,-0.7035,-0.5919,-0.5363,-0.5363,-0.5363,-0.514,-0.4918,-0.525,-0.4246,-0.2682,-0.2904,-0.2125,-0.0784,-0.0224,0.0,0.0,0.0,0.0,0.0,0.0,0.0,0.0,0.0,0.0,0.0,0.0,-0.7065,-0.4966,-0.3446,-0.3209,-0.1731,0.2006,0.354,0.0,0.0,0.5678,0.5175,0.4164,0.2629,0.098,-0.0893,-0.3301,-0.508,-0.6228,-0.6864,-0.7401,-0.8013,-0.6779,-0.6248,-0.6248,-0.5622,-0.5351,-0.5351,-0.5351,-0.6051,-0.7011,-0.6401,-0.7956,-1.0449,-0.9894,-0.9671,-0.9607,-0.9074,-0.8591,-0.8147,-0.7779,-0.7326,-0.7041,-0.6991,-0.659,-0.6134,0.0,0.0,0.0,0.0,0.0,0.0,0.0,0.0,0.0,0.0,0.0,0.0,0.0,0.0,-0.6136,-0.5952,0.0,-0.6953,-0.6869,-0.7439,-0.795,-0.8028,-0.8038,-0.8038,-0.8038,-0.8109,-0.8153,-0.8153,-0.766,-0.6505,-0.4239,-0.3532,-0.227,-0.0109,0.0,-0.0332,-0.1106,-0.1782,-0.2236,-0.2238,-0.3801,-0.4468,-0.4467,-0.4468,-0.4916,-0.5586,-0.4804,-0.447,-0.447,-0.447,-0.4024,-0.3242,-0.2573,-0.2236,-0.2124,-0.1343,-0.0672,0.0,0.0,0.0,0.0,0.0,0.0,0.0,0.0,0.0,0.0,0.0,0.0,0.0,0.0,-0.7168,-0.4762,-0.3112,-0.2932,-0.1365,0.0,0.0,0.0,0.0,0.6067,0.5577,0.4007,0.3482,0.1875,-0.1074,-0.2943,-0.4891,-0.6734,-0.7467,-0.8009,-0.8528,-0.659,-0.5531,-0.5001,-0.4016,-0.357,-0.357,-0.357,-0.4098,-0.497,-0.497,-0.5489,-0.6352,-0.6404,-0.6681,-0.7011,-0.6589,-0.653,-0.6688,-0.6505,-0.6596,-0.6776,-0.6684,-0.6562,-0.6359,-0.5727,-0.5589,0.0,0.0,0.0,0.0,0.0,0.0,0.0,0.0,-0.6198,-0.6229,-0.6268,-0.6454,-0.6671,-0.7034,-0.7217,-0.7434,-0.7797,-0.796,-0.8038,-0.8038,-0.8065,-0.8082,-0.8082,-0.8194,-0.8282,-0.8309,-0.8442,-0.7287,-0.4459,-0.4261,-0.2976,-0.0112,0.0,0.0,0.0,-0.1119,-0.1231,0.0,-0.2461,-0.313,-0.2235,-0.313,-0.3799,-0.4024,-0.3801,-0.3578,-0.3578,-0.3578,-0.2907,-0.1677,-0.0448,-0.0672,-0.1677,-0.0448,0.0,0.0,0.0,0.0,0.0,0.0,0.0,0.0,0.0,0.0,0.0,0.0,0.0,0.0,0.0,0.0,0.0,0.0,0.0,0.0,0.0,0.0,0.0,0.5728,0.5606,0.5409,0.5179,0.3127,0.1789,0.1431,-0.2842,-0.5232,-0.5497,-0.8665,-0.9205,-0.7267,-0.7004,-0.5775,-0.3837,-0.3659,-0.357,-0.357,-0.357,-0.3657,-0.3746,-0.3746,-0.3833,-0.4009,-0.4013,-0.522,-0.6743,-0.4761,-0.4608,-0.5333,-0.4345,-0.4705,-0.578,-0.6688,-0.6819,-0.6576,-0.7115,-0.6285,-0.5098,-0.4599,-0.5711,-0.7292,-0.8659,-0.9244,-0.9516,0.0,-0.9297,-0.8316,-0.7601,-0.7539,-0.7651,-0.7702,-0.7838,-0.7953,-0.8007,-0.8028,-0.8038,-0.8038,-0.816,-0.8245,-0.8245,-0.8258,-0.8319,-0.8445,-0.8598,-0.7385,-0.4463,-0.4419,-0.3124,-0.0112,0.0,0.0,0.0,-0.0112,-0.0112,0.0,-0.0336,-0.112,-0.2235,-0.1008,-0.1231,-0.2459,-0.112,-0.0448,-0.0448,-0.0448,-0.0448,-0.0224,-0.0112,-0.0112,-0.0224,-0.0112,0.0,0.0,0.0,0.0,0.0,0.0,0.0,0.0,0.0,0.0,0.0,0.0,0.0,0.0,0.0,0.0,0.0,0.0,0.0,0.0,0.0,0.0,0.0,0.4787,0.5149,0.4734,0.3396,0.2326,0.1433,0.0807,-0.4932,-0.7854,-0.7854,-1.009,-1.0616,-0.9597,-0.5796,-0.3477,-0.2503,-0.179,-0.1522,-0.1522,-0.1522,-0.1522,-0.1342,0.0706,0.1493,0.1667,0.3676,0.3163,0.0973,-0.1419,-0.2583,0.0,-0.2502,-0.2681,-0.3265,-0.4649,-0.4969,-0.4836,-0.4798,-0.4532,-0.4501,-0.5713,-0.6368,-0.7078,-0.8435,-0.903,-0.9137,-0.8677,-0.8281,-0.7994,-0.7739,-0.7841,-0.7943,-0.7943,-0.7994,-0.8038,-0.8038,-0.8116,-0.8174,-0.8174,-0.8299,-0.8428,-0.8516,-0.8526,-0.855,-0.8608,-0.8754,-0.7624,-0.4643,-0.4453,-0.3131,-0.0112,0.0,0.0,0.0,0.0,0.0,0.0,0.0,-0.0336,-0.0896,-0.0336,-0.0336,-0.0896,-0.0336,0.0,0.0,0.0,0.0,0.0,0.0,0.0,0.0,0.0,0.0,0.0,0.0,0.0,0.0,0.0,0.0,0.0,0.0,0.0,0.0,0.0,0.0,0.0,0.0,0.0,0.0,0.0,0.0,0.0,0.0,0.0,0.0,0.0,0.4649,0.4033,0.1878,0.1478,0.0859,0.0,-0.6801,-1.0666,-1.1353,-1.3273,-1.2861,-1.01,-0.2719,0.0,-0.1198,0.1902,0.3327,0.3327,0.3327,0.3575,0.4342,0.6918,0.762,0.7315,0.9542,0.9677,0.8047,0.3031,0.1022,0.0,0.0797,0.0568,0.0163,-0.1091,-0.1701,-0.1902,-0.1591,-0.1418,-0.1902,-0.4227,-0.5162,-0.5878,-0.7527,-0.8484,-0.8706,-0.7354,-0.7077,-0.6932,-0.6746,-0.7162,-0.7437,-0.7437,-0.7736,-0.8055,-0.8096,-0.8197,-0.8286,-0.8323,-0.8455,-0.8584,-0.8696,-0.8747,-0.8774,-0.8774,-0.843,-0.726,-0.4693,-0.4136,-0.2684,-0.0112,0.0,0.0,0.0,0.0,0.0,0.0,0.0,0.0,0.0,0.0,0.0,0.0,0.0,0.0,0.0,0.0,0.0,0.0,0.0,0.0,0.0,0.0,0.0224,0.056,0.056,0.0336,0.0,0.0,0.0,0.0,0.0,0.0,0.0,0.0,0.0,0.0,0.0,0.0,0.0,0.0,0.0,0.0,0.0,0.0,0.0,0.0,0.4044,0.3336,0.1874,0.0698,0.0049,0.0,-0.7819,-1.3149,-1.5619,-1.9291,-1.6326,-0.6935,0.2577,0.4488,0.0289,0.815,1.1655,1.1655,1.1655,1.2689,1.4407,1.5041,1.4037,1.2093,1.1075,1.1235,1.1742,0.908,0.0,0.0,0.622,0.5557,0.459,0.4038,0.3047,0.2021,0.2068,0.3101,0.3757,0.1372,-0.0882,-0.3287,-0.5992,-0.8099,-0.9143,-0.7818,-0.6763,-0.5676,-0.4407,-0.512,-0.6029,-0.6029,-0.7135,-0.8089,-0.8238,-0.8269,-0.8319,-0.8455,-0.8608,-0.8706,-0.871,-0.8842,-0.893,-0.893,-0.7593,-0.6142,-0.4582,-0.3129,-0.1566,-0.0112,0.0,0.0,0.0,0.0,0.0,0.0,0.0,0.0,0.0,0.0,0.0,0.0,0.0,0.0,0.0,0.0,0.0,0.0,0.0,0.0,0.0,0.0,0.0896,0.2124,0.2124,0.1231,0.0,0.0,0.0,0.0,0.0,0.0,0.0,0.0,0.0,0.0,0.0,0.0,0.0,0.0,0.0,0.0,0.0,0.0,0.0,0.0,0.5186,0.4227,0.0784,0.0221,0.0,0.0,-0.2648,-0.8375,-1.7253,-1.7531,-1.6028,-1.2602,-0.2343,0.5842,1.1851,0.9609,0.9507,1.1079,1.2192,1.3483,1.5096,1.8473,1.8465,1.6769,1.9594,1.9342,1.7445,0.0,0.0,0.0,1.0253,0.9717,0.8847,0.8005,0.7452,0.7264,0.8174,0.889,0.853,0.4507,0.304,0.1518,-0.3453,-0.53,-0.5741,-0.5255,-0.4883,-0.4506,-0.4114,-0.3832,-0.3662,-0.3662,-0.4046,-0.4363,-0.4449,-0.5124,-0.5604,-0.5596,-0.5805,-0.587,-0.587,-0.5899,-0.6033,-0.6033,-0.6366,-0.6144,-0.4582,-0.3017,-0.1566,-0.0112,0.0896,0.1454,0.1454,0.246,0.3019,0.3019,0.3019,0.3019,0.3019,0.3019,0.3019,0.3019,0.3019,0.3019,0.3019,0.3019,0.3019,0.3019,0.3019,0.3019,0.3019,0.3019,0.3242,0.3688,0.3688,0.3465,0.3019,0.0,0.0,0.0,0.0,0.0,0.0,0.0,0.0,0.0,0.0,0.0,0.0,0.0,0.0,0.0,0.0,0.0,0.0,0.0,0.0,0.5125,0.0219,0.0,0.0,0.0,0.0,-0.3801,-1.1583,-1.9273,-1.7731,-0.7475,-0.1508,0.542,1.2783,1.1154,1.1589,1.3667,1.5212,1.6605,1.8101,2.1339,2.1598,2.0365,2.308,2.3077,0.0,0.0,0.0,0.0,1.4601,1.382,1.303,1.2024,1.1493,1.175,1.4443,1.5487,1.5268,1.2988,1.173,0.9818,0.486,0.2495,0.1456,0.1456,0.1463,0.1473,0.0986,0.1044,0.1008,0.0552,-0.0743,-0.159,-0.1213,-0.2278,-0.3127,-0.2974,-0.2791,-0.272,-0.2887,-0.2893,-0.2893,-0.2893,-0.3226,-0.334,-0.2901,-0.1451,0.0,0.1567,0.246,0.3017,0.3017,0.4023,0.447,0.447,0.447,0.447,0.447,0.447,0.447,0.447,0.447,0.447,0.447,0.447,0.447,0.447,0.447,0.447,0.447,0.447,0.4804,0.5252,0.5252,0.5586,0.5919,0.0,0.0,0.0,0.0,0.0,0.0,0.0,0.0,0.0,0.0,0.0,0.0,0.0,0.0,0.0,0.0,0.0,0.0,0.0,0.0,0.0,0.0246,0.0,0.0,0.0,0.0,0.0,-0.0,-2.2791,-1.9928,0.6945,0.4722,0.3712,0.4053,1.2615,1.7342,1.8951,2.0285,2.1717,2.3159,2.3636,2.3454,2.2838,2.1821,0.0,0.0,0.0,0.0,2.1348,1.9062,1.7886,1.7224,1.6375,1.5534,1.5822,2.0783,2.2693,2.3656,2.5802,2.4015,2.0809,1.7941,1.4474,1.1758,1.1716,1.1909,1.1734,1.0315,0.9037,0.7651,0.6409,0.2962,0.0543,0.1394,0.0188,-0.0801,-0.0512,0.0409,0.0833,0.033,0.0221,0.0221,0.0332,0.1552,0.1889,0.0668,0.1674,0.2905,0.447,0.4582,0.4582,0.4582,0.4689,0.4688,0.4688,0.4684,0.4682,0.4682,0.4682,0.4682,0.4682,0.4682,0.4684,0.4688,0.4688,0.4689,0.4693,0.4693,0.4693,0.4693,0.4693,0.5586,0.6813,0.6813,0.7706,0.8491,0.0,0.0,0.0,0.0,0.0,0.0,0.0,0.0,0.0,0.0,0.0,0.0,0.0,0.0,0.0,0.0,0.0,0.0,0.0,0.0,0.0,0.0,0.0,0.0,0.0,0.0,0.0,0.0,0.0,-0.2073,0.5165,0.5197,0.5216,0.5445,1.0467,1.3899,1.6043,1.7645,1.985,2.2339,0.0,2.3809,2.3661,0.0,0.0,0.0,0.0,0.0,2.2617,2.1406,2.1572,2.2529,2.3938,2.4677,2.5473,2.7643,2.8981,2.9283,2.7083,2.6716,2.5917,2.1535,2.0291,1.9957,1.914,1.8992,1.8269,1.5504,1.4843,1.3878,1.1039,0.8408,0.6575,0.6116,0.4201,0.2951,0.3155,0.3384,0.351,0.3337,0.3343,0.3781,0.4869,0.5206,0.6196,0.8044,0.5554,0.4136,0.447,0.5586,0.6144,0.6144,0.7059,0.7669,0.7669,0.757,0.752,0.752,0.752,0.752,0.752,0.752,0.7573,0.7669,0.7669,0.7725,0.7817,0.7817,0.7817,0.7817,0.7817,0.8042,0.8377,0.8377,0.8602,0.8826,0.0,0.0,0.0,0.0,0.0,0.0,0.0,0.0,0.0,0.0,0.0,0.0,0.0,0.0,0.0,0.0,0.0,0.0,0.0,0.0,0.0,0.0,0.0,0.0,0.0,0.0,0.0,0.0,0.0,0.0,0.0,0.5281,0.583,0.6391,0.8933,1.1081,1.2712,1.4365,0.0,0.0,0.0,0.0,0.0,0.0,0.0,0.0,0.0,2.4971,2.5623,2.5668,2.6174,2.6916,2.7749,2.823,2.9026,3.1695,3.2942,3.3492,3.3761,3.3641,3.2762,2.9982,2.877,2.7763,2.5615,2.5146,2.3963,1.9923,1.9111,1.8328,1.5782,1.3369,1.1552,1.0958,0.9362,0.8133,0.7928,0.8319,0.8845,0.9243,0.9265,0.9791,1.1151,1.1254,1.2014,1.3646,0.9798,0.7654,0.832,0.904,0.9338,0.9338,0.9945,1.0286,1.0286,0.9665,0.9309,0.9309,0.8793,0.8482,0.8482,0.8482,0.853,0.8611,0.8611,0.8696,0.8838,0.8838,0.8876,0.894,0.894,0.894,0.894,0.894,0.894,0.894,0.0,0.0,0.0,0.0,0.0,0.0,0.0,0.0,0.0,0.0,0.0,0.0,0.0,0.0,0.0,0.0,0.0,0.0,0.0,0.0,0.0,0.0,0.0,0.0,0.0,0.0,0.0,0.0,0.0,0.0,0.0,0.0,0.0,0.0,0.0,0.0,0.0,0.0,0.0,0.0,0.0,0.0,0.0,0.0,0.0,0.0,2.3772,2.5859,2.8813,3.015,3.0703,3.0737,3.0089,2.9673,3.0257,3.4238,3.552,3.674,4.1586,4.1323,3.9664,3.9664,3.7897,3.5221,3.1697,3.0882,2.9367,2.4223,2.2789,2.1953,2.0127,1.7547,1.556,1.5265,1.4265,1.3391,1.3017,1.3952,1.5038,1.5873,1.5884,1.6298,1.7668,1.7571,1.7571,1.7743,1.4301,1.2573,1.3419,1.3007,1.277,1.274,1.2452,1.2342,1.2312,1.1191,1.0574,1.0574,0.945,0.8938,0.8938,0.8938,0.8949,0.8967,0.8967,0.8955,0.889,0.9101,0.9092,0.891,0.9233,0.9354,0.9265,0.9372,0.9482,0.9482,0.0,0.0,0.0,0.0,0.0,0.0,0.0,0.0,0.0,0.0,-0.9232,-0.6425,0.0,0.0,0.0,0.0,0.0,0.0,0.0,0.0,0.0,0.0,0.0,0.0,0.0,0.0,0.0,0.0,0.0504,0.0,0.0,0.0,0.0,0.0,0.0,0.0,0.0,0.0,0.0,0.0,0.0,0.0,0.0,0.0,0.0,0.0,2.2586,2.498,2.8476,3.0774,3.277,3.4417,3.5312,3.605,3.6708,3.7236,3.8238,3.9519,4.0907,4.1951,4.2648,4.2648,4.2902,4.2117,3.8124,3.7256,3.5553,2.9492,2.768,2.6134,2.2606,1.988,1.7908,1.71,1.567,1.517,1.658,1.7316,1.812,1.9184,1.8814,1.8932,2.0016,1.9184,1.8862,1.985,1.9215,1.761,1.4775,1.3267,1.2372,1.2289,1.2244,1.2144,1.1963,1.1766,1.1668,1.1668,1.1373,1.1274,1.1274,1.1274,1.1364,1.152,1.152,1.103,1.018,1.1318,1.0602,0.8963,1.1189,1.1505,1.0891,1.2077,1.2512,1.2512,0.0,0.0,0.0,0.0,0.0,0.0,0.0,-1.6312,-1.5474,-1.3203,-0.9119,-0.6425,-0.6406,-0.1629,0.1629,0.0,0.0,0.0,0.0,0.0,0.0,0.0,0.0,0.0,0.0,0.0,0.0,0.0,0.0,0.1511,0.4455,0.499,0.5567,0.6204,0.6858,0.7402,0.7877,0.0,0.0,1.4428,1.5715,1.8144,0.0,0.0,0.0,0.0,0.0,2.5046,2.77,2.9093,3.2097,3.5638,3.7771,3.8605,3.8855,3.8996,3.9185,3.9536,4.0582,4.1262,4.1698,4.1698,4.2457,4.1851,3.6834,3.6153,3.4834,2.8551,2.6867,2.5866,2.3728,2.2264,2.0911,1.957,1.9452,1.9519,1.9589,2.0585,2.1672,2.288,2.2793,2.3082,2.4181,2.383,2.3615,2.4156,2.3467,2.143,1.7946,1.6803,1.6226,1.6027,1.6021,1.5953,1.5819,1.5132,1.4836,1.4836,1.4159,1.3504,1.2866,1.2866,1.2554,1.2003,1.2003,1.1725,1.1415,1.2025,1.1644,1.0788,1.2035,1.2375,1.2028,1.2772,1.3163,1.3264,0.0,0.0,0.0,0.0,0.0,0.0,0.0,-1.6461,-1.5557,-1.3527,-0.9238,-0.6425,-0.6406,-0.2587,0.0,0.0,0.0,0.0,0.0,0.0,0.0,0.0,0.0,0.0,0.0,0.0,0.0,0.0,0.2196,0.0,0.0,0.0,0.0,0.0,0.8096,0.8448,0.9138,1.1236,1.3057,0.0,0.0,1.8921,0.0,0.0,0.0,0.0,0.0,2.4707,2.6205,2.6891,2.9975,3.4055,3.6968,3.807,3.8348,3.8621,3.8378,3.8451,4.0339,4.0629,4.0466,4.0466,4.1078,4.0111,3.4313,3.3684,3.2601,2.6516,2.5089,2.4793,2.4332,2.3936,2.3234,2.1879,2.2688,2.3431,2.31,2.4084,2.5562,2.7368,2.7323,2.7509,2.8441,2.8356,2.814,2.8026,2.6886,2.462,2.1105,2.0661,2.0454,2.0172,2.0253,2.0253,2.0253,1.891,1.824,1.824,1.7014,1.5912,1.5012,1.5012,1.4469,1.3555,1.3284,1.3099,1.2974,1.2985,1.273,1.2434,1.3046,1.3183,1.3174,1.3487,1.3852,1.4163,0.0,0.0,0.0,0.0,0.0,0.0,0.0,-1.6977,-1.5841,-1.4618,-0.9753,-0.6425,-0.6406,-0.2587,0.0,0.0,0.0,0.0,0.0,0.0,0.0,0.0,0.0,0.0,0.0,0.0,0.0,0.0,0.9373,0.0,0.0,0.0,0.0,0.0,0.0,0.9533,0.9688,1.0578,0.0,0.0,0.0,0.0,0.0,0.0,0.0,0.0,0.0,2.2773,2.3457,2.5269,2.6583,2.7997,3.0833,3.3373,3.5151,3.4488,3.5155,3.6805,3.9788,4.1092,4.1621,4.1621,4.1715,4.0321,3.4794,3.3636,3.2203,2.6618,2.541,2.523,2.4802,2.4123,2.3578,2.3471,2.3153,2.4243,2.8017,2.8515,2.9821,3.3324,3.2568,3.1667,3.1435,3.0426,2.9613,2.9195,2.9018,2.7035,2.2833,2.2553,2.2515,2.2476,2.2476,2.2476,2.2476,2.1368,2.0766,2.0766,1.9694,1.9099,1.9007,1.9007,1.8915,1.874,1.7662,1.6532,1.5386,1.5452,1.4163,1.2499,1.5004,1.527,1.448,1.5821,1.6514,1.6872,0.0,0.0,0.0,0.0,0.0,0.0,-1.7177,-1.6611,-1.5891,-1.4757,-1.0939,-0.8322,-0.833,-0.5875,-0.314,-0.025,0.0,0.0,0.0,0.0,0.0,0.0,0.0,0.0,0.0,0.0,0.0,0.0,0.4141,0.0,0.0,0.0,0.0,0.0,0.0,1.2493,1.2557,1.3952,0.0,0.0,0.0,0.0,0.0,0.0,0.0,0.0,0.0,0.0,2.1484,2.3105,2.4541,2.5611,2.524,2.7159,3.03,3.4186,3.4804,3.5197,3.9676,4.0506,4.0291,4.1073,3.98,3.7536,3.4316,3.2107,2.9738,2.6222,2.5445,2.534,2.5089,2.4651,2.4265,2.4082,2.4301,2.5077,2.6718,2.8786,3.0731,3.2191,3.3287,3.3829,3.3671,3.3212,3.2695,3.2077,3.1573,3.0533,2.8805,2.6875,2.5864,2.5864,2.529,2.4998,2.4998,2.4577,2.4322,2.4333,2.3927,2.2988,2.1594,2.1594,2.081,1.9488,1.8948,1.8472,1.798,1.8018,1.7059,1.5652,1.6735,1.6449,1.5636,1.6242,1.6633,1.6881,0.0,0.0,0.0,0.0,0.0,-1.8144,-1.6548,-1.5833,-1.5199,-1.4417,-1.1208,-0.9077,-0.9293,-0.7788,-0.5535,-0.2376,-0.2217,0.0,0.0,0.0,0.0,0.0,0.0,0.0,0.0,0.0,-0.3263,0.0,0.0,0.4486,0.0,0.0,1.5028,1.573,0.0,0.0,0.0,0.0,0.0,0.0,0.0,0.0,0.0,0.0,0.0,0.0,0.0,0.0,0.0,0.0,0.0,2.4003,2.1748,2.2459,0.0,3.1259,3.278,3.3514,3.7934,3.9181,3.9496,4.0565,3.8432,3.5678,3.3991,3.1195,2.8278,2.5974,2.5449,2.5363,2.5286,2.5015,2.4723,2.4476,2.4861,2.5433,2.6133,2.8264,3.0029,3.0838,3.2321,3.3584,3.4513,3.5278,3.5548,3.5001,3.4471,3.4167,3.4167,3.1519,2.9694,2.8885,2.8251,2.7752,2.7476,2.7128,2.6964,2.6964,2.6637,2.5597,2.4033,2.4033,2.2988,2.1078,2.072,2.0369,2.0034,1.9679,1.9047,1.8226,1.8226,1.7819,1.7266,1.7266,1.7466,1.7633,0.0,0.0,0.0,0.0,0.0,0.0,-1.6313,-1.4788,-1.3641,-1.3602,-1.0132,-0.789,-0.8532,-0.7097,-0.636,-0.6972,-0.7364,0.0,0.0,0.0,0.0,0.0,0.0,0.0,0.0,0.0,-1.0973,0.0,0.0,0.2652,0.7764,0.7812,1.2273,2.0234,0.0,0.0,0.0,0.0,0.0,0.0,0.0,0.0,0.0,0.0,0.0,0.0,0.0,0.0,0.0,0.0,0.0,0.0,0.0,2.0118,0.0,0.0,2.7997,3.1797,3.3897,3.7045,3.9906,4.0471,3.8307,3.5675,3.4067,3.1355,2.8497,2.6017,2.5443,2.5402,2.5409,2.5072,2.4804,2.4804,2.4462,2.5142,2.7798,2.7508,2.8042,3.07,3.0011,3.0521,3.3516,3.622,3.7748,3.7748,3.7748,3.7748,3.7748,3.6091,3.3907,3.1241,3.1167,3.0696,2.9792,2.8688,2.8084,2.8084,2.7046,2.6483,2.6472,2.6472,2.5797,2.4692,2.3517,2.2309,2.1203,2.0034,1.9488,1.9497,1.9497,1.9497,1.9497,1.9497,1.9635,1.9845,0.0,0.0,0.0,0.0,0.0,0.0,0.0,-1.4631,-1.4109,-1.3676,-1.1755,-1.0358,-1.0155,-1.0108,-1.0058,-0.9983,-0.859,0.0,0.0,0.0,0.0,0.0,0.0,0.0,0.0,0.0,0.0,-0.3762,-0.1235,0.0843,0.2499,0.5505,0.8404,1.1031,1.3851,1.5316,0.0,0.0,0.0,0.0,0.0,0.0,2.1509,0.0,0.0,0.0,0.0,0.0,0.0,0.0,0.0,0.0,0.0,0.0,0.0,2.1047,2.3581,2.6872,3.064,3.2093,3.2948,3.4642,3.2625,3.0395,3.103,2.8657,2.6155,2.5565,2.5375,2.5303,2.5208,2.4984,2.4804,2.4804,2.4461,2.4539,2.5533,2.8449,3.0819,3.167,3.4651,3.7084,3.802,3.8364,3.8525,3.8525,3.76,3.6964,3.6964,3.6009,3.4934,3.3989,3.275,3.1683,3.0771,3.0417,2.9897,2.9275,2.8961,2.8371,2.7602,2.7602,2.6614,2.4787,2.4426,2.3577,2.2492,2.2129,2.1489,2.0747,2.0747,2.0215,1.9497,1.9497,1.9563,1.9662,0.0,0.0,0.0,0.0,0.0,0.0,0.0,-1.3979,-1.3314,-1.2618,-1.1661,-1.088,-1.0478,-1.1067,-1.1535,-1.1515,-1.0401,0.0,0.0,0.0,0.0,0.0,0.0,0.0,0.0,0.0,-1.4718,-0.7275,-0.2377,0.0,0.0066,0.2815,0.5274,0.7473,1.0197,1.251,0.0,0.0,0.0,0.0,0.0,0.0,1.9324,0.0,0.0,0.0,0.0,0.0,0.0,0.0,0.0,0.0,0.0,0.0,0.0,0.0,2.0912,2.3095,2.7218,2.8884,2.9829,3.1428,2.9403,2.7363,2.8702,2.6532,2.4274,2.4366,2.4344,2.4256,2.408,2.4157,2.4216,2.4216,2.4223,2.4593,2.5729,2.864,3.0949,3.1846,3.5882,3.8523,3.8396,3.8957,3.9368,3.9368,3.8209,3.7488,3.7488,3.6294,3.5554,3.54,3.3935,3.2567,3.1347,3.1282,3.079,2.9972,2.9833,2.9443,2.8767,2.8767,2.7775,2.6025,2.6025,2.5368,0.0,2.4392,2.3674,2.26,2.26,2.1906,2.0863,2.0863,2.0863,2.0863,0.0,0.0,0.0,0.0,0.0,0.0,0.0,-1.3022,-1.1616,-1.0914,-1.0261,-0.9814,-0.9762,-1.0359,-1.1081,-1.1694,0.0,0.0,0.0,0.0,0.0,0.0,0.0,0.0,0.0,-1.3365,-1.3295,-0.9934,-0.3561,-0.0329,-0.0067,-0.0067,0.2837,0.7981,0.8161,1.0638,0.0,0.0,0.0,0.0,0.0,0.0,0.0,0.0,0.0,0.0,0.0,0.0,0.0,0.0,0.0,0.0,0.0,0.0,0.0,0.0,0.0,0.0,0.0,2.6815,2.9334,2.992,2.7937,2.6074,2.688,2.494,0.0,2.2709,2.2667,2.2595,2.2331,2.2782,2.3207,2.3191,2.3656,2.4981,2.7709,2.8495,2.9589,3.1731,3.4586,3.6146,3.5599,3.8244,3.9986,3.9935,3.9243,3.8854,3.8854,3.6832,3.5639,3.5639,3.4565,3.3243,3.164,3.1424,3.0857,3.0125,2.9909,2.9743,2.9679,2.9716,2.9135,2.8036,2.8072,2.7533,2.6483,2.6483,2.588,2.4957,2.4957,2.4211,2.3222,2.3222,2.3135,2.3135,0.0,0.0,0.0,0.0,0.0,0.0,0.0,0.0,0.0,0.0,-1.0661,-1.0167,-0.9159,-0.9591,-1.0034,0.0,0.0,0.0,0.0,0.0,0.0,0.0,0.0,0.0,0.0,-1.2109,-1.085,-0.7353,-0.5657,-0.35,-0.0999,-0.0881,0.0173,0.2079,0.3727,0.0,0.0,0.0,0.0,0.0,0.0,0.0,0.0,0.0,0.0,0.0,1.5666,1.5984,0.0,0.0,0.0,0.0,0.0,0.0,0.0,0.0,1.8908,1.9684,2.0489,0.0,2.2667,2.3462,2.3169,2.289,0.0,0.0,0.0,0.0,0.0,0.0,2.2121,2.2204,2.2266,2.2162,2.2278,2.3504,2.6759,3.1268,3.4426,3.5005,3.7519,3.8125,3.5386,3.7653,3.9005,3.8464,3.7686,3.7235,3.7235,3.6238,3.5364,3.4784,3.4496,3.36,3.2031,3.1895,3.1089,2.9592,2.9523,2.9108,2.8511,2.8938,2.8556,2.7513,2.7917,2.7533,2.6483,2.6483,2.6307,2.6141,2.6141,2.5378,2.4372,2.4372,2.3887,2.3135,0.0,0.0,0.0,0.0,0.0,0.0,0.0,0.0,0.0,0.0,0.0,0.0,0.0,0.0,0.0,0.0,0.0,0.0,0.0,0.0,0.0,0.0,0.0,0.0,0.0,-0.9988,-0.9035,-0.7061,-0.5809,-0.447,-0.2907,-0.1344,-0.0561,-0.0393,0.1797,0.0,0.0,0.0,0.0,0.0,1.1023,0.0,0.0,0.0,0.0,0.0,1.4116,1.4178,0.0,1.4943,1.5145,1.5314,0.0,0.0,0.0,0.0,1.8376,1.8843,1.8984,1.9513,2.0131,2.0589,2.0743,2.087,2.1283,0.0,0.0,0.0,0.0,0.0,2.0804,2.2282,2.3027,2.1454,2.4006,2.6772,2.8362,3.1233,3.3645,3.4895,3.6324,3.6968,3.641,3.7611,3.8328,3.7939,3.7181,3.6769,3.6769,3.5707,3.4981,3.458,3.3959,3.3178,3.2302,3.2139,3.1256,2.9591,2.9459,2.8912,2.8109,2.8411,2.8238,2.77,2.8236,2.8156,2.7616,2.7865,2.7706,2.7197,2.7197,2.6543,2.5546,2.4957,2.4713,2.4478,0.0,0.0,0.0,0.0,0.0,0.0,0.0,0.0,0.0,0.0,0.0,0.0,0.0,0.0,0.0,0.0,0.0,0.0,0.0,0.0,0.0,0.0,0.0,-0.8654,-0.7761,-0.7756,-0.7626,-0.7257,-0.5037,-0.4145,-0.4473,-0.1563,-0.0448,-0.0842,0.129,0.2597,0.0,0.0,0.6473,0.6701,0.8031,0.0,0.0,0.0,0.0,0.0,0.0,0.0,0.0,1.3437,1.3826,1.4135,1.5448,0.0,0.0,0.0,0.0,0.0,1.8489,1.9437,2.0225,1.982,1.9755,1.979,1.9774,0.0,0.0,0.0,0.0,1.9648,1.9982,2.2482,2.3712,2.1455,2.6695,3.1091,3.1011,3.1049,3.1774,3.3709,3.4237,3.5147,3.6949,3.7513,3.7686,3.7567,3.6958,3.6603,3.6603,3.5449,3.4688,3.4576,3.3391,3.2699,3.2524,3.217,3.1261,2.9905,2.9484,2.8851,2.8062,2.8006,2.7984,2.8009,2.8561,2.88,2.885,2.9428,2.9073,2.8227,2.8311,2.7695,2.6637,2.5619,2.5797,2.6224,0.0,0.0,0.0,0.0,0.0,0.0,0.0,0.0,0.0,0.0,0.0,0.0,0.0,0.0,0.0,0.0,0.0,0.0,0.0,0.0,0.0,0.0,-0.8585,-0.7734,-0.6692,-0.6655,-0.6233,-0.5321,-0.4207,-0.3414,-0.2863,-0.1556,-0.0667,-0.0112,0.1515,0.2635,0.3408,0.4963,0.6032,0.6673,0.7444,0.0,0.0,0.0,0.0,0.0,0.0,0.0,0.0,1.2914,1.3523,1.4059,1.4944,0.0,0.0,0.0,0.0,0.0,1.8364,2.0657,2.2198,1.9874,1.9543,1.9774,1.9662,0.0,0.0,0.0,1.9335,2.02,2.2941,2.1675,2.0978,2.3254,2.7042,3.0474,3.2647,3.544,3.655,3.4681,3.6114,3.631,3.3825,3.5657,3.6688,3.6028,3.5859,3.5791,3.5791,3.5583,3.5207,3.4624,3.3836,3.3193,3.2592,3.1908,3.1145,3.0215,2.9428,2.8568,2.7758,2.7519,2.7406,2.7444,2.7996,2.8235,2.8285,2.8837,2.89,2.8861,2.9347,2.8858,2.7844,2.7683,2.7116,2.6472,0.0,0.0,0.0,0.0,0.0,0.0,0.0,0.0,0.0,0.0,0.0,0.0,0.0,0.0,0.0,0.0,0.0,0.0,0.0,0.0,0.0,0.0,-0.9074,-0.7159,-0.5755,-0.5623,-0.5346,-0.4802,-0.3566,-0.3183,-0.354,-0.2291,-0.1061,0.0056,0.0729,0.1629,0.2755,0.3403,0.4405,0.5495,0.0,0.0,0.0,0.0,0.0,0.0,0.0,0.0,0.0,0.0,1.296,1.3304,1.4171,0.0,0.0,0.0,0.0,0.0,1.7737,1.9191,2.0678,2.1306,2.3143,2.4763,2.4691,0.0,0.0,2.2317,2.1951,2.2319,2.3544,2.4178,2.619,3.1219,3.044,3.0125,3.2866,3.3085,3.2967,3.2976,3.3865,3.4457,3.432,3.5423,3.6011,3.5639,3.5622,3.5622,3.5622,3.5622,3.547,3.5144,3.4137,3.3443,3.313,3.2048,3.0837,2.9566,2.969,2.9002,2.7683,2.7556,2.755,2.752,2.8061,2.8048,2.778,2.872,2.9068,2.895,2.9227,2.9183,2.9028,2.9028,2.7959,2.6554,0.0,0.0,0.0,0.0,0.0,0.0,0.0,0.0,0.0,0.0,0.0,0.0,0.0,0.0,0.0,0.0,0.0,0.0,0.0,0.0,-1.1461,-1.2456,-0.9538,-0.7163,-0.5682,-0.5148,-0.4802,-0.4632,-0.3345,-0.3067,-0.3691,-0.2298,-0.1066,0.0,0.0168,0.0954,0.2191,0.2391,0.3274,0.4519,0.0,0.0,0.0,0.0,0.0,0.0,0.0,0.0,0.0,0.0,0.0,0.0,0.0,0.0,0.0,1.5315,1.604,1.6653,1.7239,1.8285,1.9882,2.27,2.5041,0.0,0.0,0.0,0.0,2.5515,2.5248,2.5189,2.4793,2.6957,3.0396,3.52,3.2482,3.0731,3.347,3.1702,3.0765,3.2524,3.2625,3.3349,3.5402,3.5622,3.5622,3.5622,3.5622,3.5622,3.5622,3.5622,3.5515,3.5362,3.4202,3.3531,3.3391,3.216,3.0837,2.9566,3.0072,2.9566,2.8298,2.8117,2.7986,2.8012,2.8425,2.8234,2.779,2.9016,2.9235,2.8832,2.9098,2.9416,2.9792,2.9792,2.8712,2.7383,0.0,0.0,0.0,0.0,0.0,0.0,0.0,0.0,0.0,0.0,0.0,0.0,0.0,0.0,0.0,0.0,0.0,0.0,0.0,0.0,-1.2434,-1.1457,-0.9382,-0.7954,-0.7257,-0.555,-0.4632,-0.4519,-0.3727,-0.266,-0.1327,-0.0558,-0.0112,0.0056,0.0729,0.1459,0.2247,0.3007,0.3782,0.4519,0.4519,0.0,0.0,0.0,0.0,0.0,0.0,0.0,0.0,0.0,0.0,0.0,0.0,0.0,1.3524,1.5123,1.5635,1.5982,1.7302,1.9883,2.2387,2.3199,2.1534,0.0,2.6968,2.6327,0.0,2.7468,2.8312,2.8645,2.8604,2.842,2.82,2.7952,3.0269,3.302,3.5774,3.5977,3.5885,3.6028,3.5617,3.5385,3.5588,3.5622,3.5622,3.5622,3.5622,3.5622,3.5622,3.5622,3.5299,3.4688,3.3987,3.3287,3.2695,3.1894,3.1409,3.1278,3.0644,3.0208,3.0072,2.9254,2.8939,2.8876,2.898,2.8931,2.8922,2.9525,2.9255,2.8654,2.9686,2.9992,2.9792,2.9792,2.9714,2.9546,0.0,0.0,0.0,0.0,0.0,0.0,0.0,0.0,0.0,0.0,0.0,0.0,0.0,0.0,0.0,0.0,0.0,0.0,0.0,0.0,-1.229,-1.1825,-0.957,-0.8184,-0.7976,-0.5724,-0.4291,-0.3782,-0.2996,-0.1887,-0.0446,-0.0616,-0.0449,0.0056,0.0785,0.1511,0.2227,0.3056,0.3837,0.4519,0.4974,0.5724,0.0,0.0,0.0,0.0,0.0,0.0,0.0,0.0,1.0338,1.0967,1.1931,1.2639,1.3276,1.4251,1.5056,1.5771,1.6546,1.9356,2.2249,2.2975,2.2224,0.0,0.0,3.0459,2.9296,2.8582,2.9853,3.0539,2.8825,3.1124,3.2774,3.1097,3.3367,3.5606,3.6301,3.6374,3.6266,3.5941,3.5739,3.5622,3.5622,3.5622,3.5622,3.5622,3.5622,3.5622,3.5622,3.5622,3.5299,3.4624,3.3937,3.3287,3.2602,3.1853,3.1482,3.1482,3.1219,3.0777,3.0269,2.995,2.9827,2.9827,2.9827,2.9756,2.9685,3.0444,3.044,2.9989,3.0774,3.1303,3.1564,3.1535,3.1549,3.1549,0.0,0.0,0.0,0.0,0.0,0.0,0.0,0.0,0.0,0.0,0.0,0.0,0.0,0.0,0.0,0.0,0.0,0.0,0.0,-1.1584,-1.142,-1.1605,-0.9139,-0.7741,-0.7787,-0.5376,-0.3837,-0.3274,-0.2332,-0.1335,-0.0335,-0.0392,-0.0112,0.0393,0.1347,0.2066,0.2603,0.3387,0.4006,0.446,0.4916,0.5348,0.0,0.0,0.0,0.0,0.0,0.0,0.0,0.0,0.9661,1.0153,1.1178,1.2045,1.2842,1.3629,1.5212,1.6833,1.7571,1.9662,2.201,2.3745,0.0,0.0,3.1458,3.2059,3.1169,3.1082,3.188,3.1877,2.9763,3.2511,3.4536,3.2786,3.4846,3.6563,3.6224,3.6139,3.6028,3.565,3.5622,3.5622,3.5622,3.5622,3.5622,3.5622,3.5622,3.5622,3.5622,3.5622,3.5299,3.4624,3.4137,3.3479,3.2602,3.2312,3.2048,3.1853,3.2048,3.1736,3.1028,3.1028,3.1115,3.1317,3.1317,3.1243,3.1195,3.1794,3.1802,3.1494,3.1401,3.1914,3.2668,3.2389,3.2441,3.2593,0.0,0.0,0.0,0.0,0.0,0.0,0.0,0.0,0.0,0.0,0.0,0.0,0.0,0.0,0.0,0.0,0.0,0.0,0.0,-1.0405,-0.9978,-1.0461,-0.7961,-0.6582,-0.6598,-0.4405,-0.3274,-0.3274,-0.1788,-0.106,-0.105,0.0447,0.1122,0.1178,0.2645,0.3307,0.3332,0.4177,0.4405,0.4177,0.4229,0.4429,0.4684,0.0,0.0,0.0,0.0,0.0,0.0,0.0,0.9469,0.9677,1.0666,1.1344,1.2081,1.3389,1.6229,1.9287,2.0736,2.1199,2.2114,2.576,0.0,0.0,3.0542,2.9846,2.955,3.5248,3.4624,3.284,3.2057,3.2127,3.2074,3.1329,3.3694,3.5622,3.5622,3.5622,3.5622,3.5622,3.5622,3.5622,3.5622,3.5622,3.5622,3.5622,3.5622,3.5622,3.5622,3.5622,3.5299,3.4624,3.4576,3.3987,3.2641,3.3287,3.3287,3.2641,3.3287,3.3235,3.2602,3.2602,3.2986,3.3582,3.3582,3.3582,3.3582,3.3582,3.3414,3.3003,3.1467,3.1596,3.2663,3.1915,3.2068,3.2664,0.0,0.0,0.0,0.0,0.0,0.0,0.0,0.0,0.0,0.0,0.0,0.0,0.0,0.0,0.0,0.0,0.0,0.0,0.0,-0.926,-0.8944,-0.8562,-0.7278,-0.6342,-0.5839,-0.3638,-0.2294,-0.1733,-0.028,0.0448,0.0447,0.1401,0.1846,0.1889,0.2896,0.3284,0.3332,0.4009,0.4236,0.4255,0.4676,0.4798,0.4735,0.0,0.0,0.0,0.0,0.0,0.0,0.0,0.0,0.0,0.9663,1.0746,1.192,1.2672,1.4289,1.6038,1.6929,2.0707,2.4265,2.372,2.6202,2.921,3.1001,3.1359,3.2239,3.5682,3.3913,3.1768,3.1694,3.3294,3.3949,3.1807,3.3803,3.5739,3.6097,3.6182,3.6291,3.6666,3.6724,3.6563,3.6224,3.6481,3.6563,3.6182,3.6522,3.6563,3.6182,3.6522,3.6079,3.4624,3.4998,3.4541,3.3339,3.3824,3.3824,3.3287,3.3808,3.3824,3.3287,3.3287,3.3391,3.3582,3.3582,3.3887,3.4284,3.4284,3.4529,3.4775,3.3824,3.3975,3.4794,3.5112,3.5292,3.5538,0.0,0.0,0.0,0.0,0.0,0.0,0.0,0.0,0.0,0.0,0.0,0.0,0.0,0.0,0.0,0.0,0.0,0.0,0.0,0.0,-0.8487,-0.7741,-0.7009,-0.5864,-0.4233,-0.2856,-0.1685,-0.0673,0.0505,0.1119,0.1115,0.2178,0.2674,0.2715,0.3442,0.3724,0.3669,0.4064,0.416,0.408,0.4437,0.4454,0.4313,0.0,0.0,0.0,0.0,0.0,0.0,0.0,0.0,0.0,0.9229,1.0225,1.1501,1.327,1.4725,1.6417,1.9364,2.279,2.5759,2.6899,2.933,3.1833,3.3248,3.3737,3.4318,3.6035,3.4881,3.364,3.3793,3.531,3.5936,3.4126,3.5163,3.6357,3.6684,3.6724,3.6843,3.7135,3.719,3.7058,3.6764,3.702,3.7076,3.6724,3.7038,3.7076,3.6724,3.702,3.6711,3.5674,3.5942,3.5633,3.4601,3.515,3.5093,3.43,3.5093,3.52,3.4686,3.4219,3.4137,3.4399,3.4399,3.464,3.4988,3.4988,3.5253,3.552,3.4874,3.5017,3.5643,3.6136,3.6454,3.6805,0.0,0.0,0.0,0.0,0.0,0.0,0.0,0.0,0.0,0.0,0.0,0.0,0.0,0.0,0.0,0.0,0.0,0.0,0.0,0.0,-0.8427,-0.7616,-0.682,-0.5097,-0.227,-0.2181,-0.1459,0.0112,0.0842,0.1228,0.1215,0.2715,0.3442,0.3555,0.4177,0.4349,0.4174,0.4178,0.402,0.3806,0.3806,0.3718,0.3581,0.3581,0.0,0.0,0.0,0.0,0.0,0.0,0.0,0.0,0.909,0.9798,1.0874,1.4333,1.6445,1.8987,2.4914,2.609,2.6982,3.2744,3.3206,3.308,3.6309,3.6316,3.5827,3.6374,3.6882,3.719,3.719,3.7542,3.7685,3.7248,3.719,3.721,3.7266,3.7285,3.7323,3.7323,3.736,3.7342,3.7285,3.7323,3.7342,3.7248,3.7342,3.7342,3.7248,3.7342,3.7342,3.723,3.7324,3.6993,3.6249,3.6935,3.672,3.5615,3.6777,3.7041,3.6464,3.5335,3.5157,3.5739,3.5739,3.5739,3.5739,3.5739,3.5739,3.5677,3.5048,3.5212,3.5762,3.5893,3.6395,3.7035,0.0,0.0,0.0,0.0,0.0,0.0,0.0,0.0,0.0,0.0,0.0,0.0,0.0,0.0,0.0,0.0,0.0,0.0,0.0,0.0,-0.8209,-0.6912,-0.5609,-0.4064,-0.2227,-0.2186,-0.1178,0.0842,0.1628,0.1956,0.1991,0.35,0.4236,0.4291,0.4291,0.4233,0.4204,0.3965,0.3837,0.3806,0.367,0.3626,0.3581,0.3581,0.3581,0.0,0.0,0.0,0.0,0.0,0.0,0.0,0.8683,0.9497,1.0507,1.2162,1.5029,1.8159,2.0216,2.4627,2.9046,3.072,3.3,3.501,3.5788,3.6097,3.6374,3.6921,3.7114,3.719,3.719,3.7285,3.7323,3.7228,3.719,3.7323,3.7685,3.799,3.8186,3.835,3.8554,3.8438,3.7807,3.8314,3.8438,3.779,3.8314,3.8407,3.779,3.8345,3.8334,3.7539,3.8125,3.8089,3.7274,3.7863,3.7796,3.713,3.7796,3.7848,3.731,3.6876,3.6711,3.6865,3.6865,3.6865,3.6865,3.6865,3.6865,3.6825,3.6711,3.6719,3.6923,3.753,3.8235,3.8981,0.0,0.0,0.0,0.0,0.0,0.0,0.0,0.0,0.0,0.0,0.0,0.0,0.0,0.0,0.0,0.0,0.0,0.0,0.0,0.0,0.0,-0.6145,-0.5062,-0.3785,-0.2223,-0.2178,-0.1119,0.1122,0.1845,0.2393,0.0,0.395,0.4519,0.4519,0.4291,0.4141,0.4069,0.3897,0.3899,0.4039,0.3718,0.3762,0.3991,0.3991,0.3991,0.4131,0.5296,0.0,0.0,0.0,0.0,0.0,0.0,0.0,0.9915,1.2003,1.3801,1.6125,2.0643,2.4599,2.8319,3.189,3.4425,3.5968,3.5968,3.6586,3.7193,3.747,3.7542,3.7614,3.7861,3.7913,3.7913,3.7913,3.7913,3.8047,3.8413,3.8619,3.884,3.9082,3.9231,3.9167,3.8746,3.9096,3.9167,3.8746,3.9096,3.9167,3.8746,3.9115,3.9085,3.857,3.8973,3.8973,3.857,3.8841,3.8692,3.8163,3.872,3.8813,3.8541,3.7612,3.719,3.719,3.719,3.719,3.719,3.719,3.719,3.719,3.719,3.719,3.7279,3.8037,3.8797,3.9615,0.0,0.0,0.0,0.0,0.0,0.0,0.0,0.0,0.0,0.0,0.0,0.0,0.0,0.0,0.0,0.0,0.0,0.0,0.0,0.0,0.0,0.0,-0.4838,-0.3782,-0.2216,-0.2225,-0.106,0.129,0.189,0.0,0.0,0.0,0.0,0.446,0.4236,0.408,0.3947,0.381,0.3947,0.422,0.3785,0.388,0.4268,0.4268,0.4256,0.4416,0.5487,0.5901,0.5989,0.6506,0.0,0.0,0.0,0.0,0.8985,1.2036,1.2873,1.4399,2.1656,2.4685,2.7334,3.3793,3.5924,3.6374,3.6374,3.7155,3.7893,3.7893,3.798,3.8183,3.8627,3.8707,3.8738,3.8762,3.8762,3.8873,3.9152,3.9257,3.9339,3.9576,3.9645,3.9668,3.9599,3.9645,3.9671,3.9652,3.9671,3.9671,3.9652,3.9678,3.97,3.97,3.9766,3.9789,3.9726,3.9726,3.9523,3.9081,3.9523,3.9726,3.9686,3.829,3.7644,3.7595,3.7595,3.7595,3.7595,3.7595,3.7595,3.7595,3.7595,3.7595,3.7685,3.8313,3.8992,3.9759,0.0,0.0,0.0,0.0,0.0,0.0,0.0,0.0,0.0,0.0,0.0,0.0,0.0,0.0,0.0,0.0,0.0,0.0,-0.6912,0.0,0.0,-0.5487,-0.4838,-0.3788,-0.2228,-0.2174,-0.0781,0.2079,0.0,0.0,0.0,0.0,0.0,0.4233,0.0,0.3974,0.381,0.367,0.367,0.3707,0.3645,0.3623,0.3718,0.3718,0.3695,0.3779,0.4397,0.4651,0.4721,0.5308,0.5534,0.0,0.0,0.0,0.7694,0.996,1.2478,1.5006,1.7501,2.322,2.9482,3.3691,3.5548,3.6374,3.6374,3.7155,3.7893,3.7893,3.8267,3.8627,3.8676,3.8707,3.8792,3.9027,3.9063,3.9152,3.9505,3.9775,3.988,3.9622,3.9859,3.9922,3.9622,3.9861,3.9946,3.9795,3.9927,3.9946,3.9795,3.9982,4.012,4.012,4.0455,4.0535,4.0295,4.0295,4.0262,4.0191,4.0262,4.0295,4.0295,3.978,3.9425,3.9283,3.9283,3.9283,3.9283,3.9283,3.9283,3.9283,3.9283,3.9283,3.9277,3.9389,3.9741,4.0311,0.0,0.0,0.0,0.0,0.0,0.0,0.0,0.0,0.0,0.0,0.0,0.0,0.0,0.0,0.0,-0.6642,-0.6588,-0.6421,-0.6036,-0.5706,-0.5324,-0.4948,-0.468,-0.379,-0.2232,-0.2174,-0.0949,0.1572,0.0,0.0,0.0,0.3613,0.395,0.0,0.0,0.0,0.3806,0.367,0.3762,0.4031,0.3705,0.3986,0.4502,0.4176,0.4276,0.4587,0.4813,0.4904,0.4952,0.5226,0.5318,0.5458,0.631,0.0,0.0,0.0,1.0736,1.3385,1.8776,2.455,2.991,3.3683,3.5511,3.6498,3.6764,3.7379,3.798,3.83,3.8658,3.8884,3.8719,3.8815,3.8961,3.9072,3.9264,3.9505,3.9819,4.0002,4.0101,4.0101,4.0296,4.0373,4.0238,4.0386,4.0462,4.0378,4.0443,4.0443,4.0378,4.0479,4.0518,4.047,4.0643,4.0647,4.0462,4.0462,4.0462,4.0462,4.0462,4.0462,4.0457,4.0373,4.0127,3.9709,3.9709,3.9662,3.9599,3.9599,3.9599,3.9599,3.9599,3.9599,3.9599,3.9599,4.0032,4.0708,0.0,0.0,0.0,0.0,0.0,0.0,0.0,0.0,0.0,0.0,0.0,0.0,0.0,0.0,0.0,0.0,-0.615,-0.5823,-0.5273,-0.5273,-0.4944,-0.4239,-0.4184,-0.3456,-0.195,-0.1896,-0.0949,0.0,0.0,0.0,0.2221,0.2894,0.3453,0.0,0.3941,0.3899,0.0,0.3626,0.381,0.4176,0.3947,0.4317,0.506,0.4745,0.495,0.5296,0.5154,0.511,0.5061,0.4918,0.4874,0.5012,0.5726,0.6255,0.0,0.0,0.0,1.1806,1.9096,2.369,2.747,3.2055,3.4141,3.5469,3.6728,3.747,3.8013,3.8415,3.8799,3.9036,3.8844,3.9027,3.9238,3.9339,3.9576,3.984,4.0158,4.023,4.0334,4.053,4.0648,4.074,4.074,4.077,4.0809,4.0857,4.0799,4.0786,4.0811,4.0788,4.0742,4.0693,4.0718,4.0684,4.0576,4.0576,4.0576,4.0576,4.0576,4.0576,4.0576,4.0684,4.0471,4.0036,4.0046,3.9998,3.9891,3.9889,3.9868,3.9868,3.9868,3.9846,3.9842,3.9867,4.0182,4.0749,0.0,0.0,0.0,0.0,0.0,0.0,0.0,0.0,0.0,0.0,0.0,0.0,0.0,-0.6465,-0.5597,-0.5542,-0.4948,-0.4574,-0.457,-0.457,-0.4236,-0.3511,-0.34,0.0,-0.1169,-0.1172,0.0,0.0,0.0,0.0,0.2191,0.2813,0.3079,0.2977,0.3697,0.3854,0.3626,0.0,0.3626,0.367,0.4224,0.4498,0.4613,0.5165,0.5339,0.5296,0.4732,0.4546,0.4454,0.3899,0.367,0.3899,0.5012,0.5361,0.5719,0.0,0.0,0.0,1.5464,1.7924,2.0843,2.7636,3.0484,3.2517,3.57,3.7193,3.7893,3.7946,3.8566,3.9099,3.9072,3.9339,3.9668,4.0002,4.0061,4.0177,4.0441,4.0596,4.068,4.068,4.0752,4.0793,4.0793,4.0793,4.0857,4.0988,4.0816,4.0737,4.08,4.0732,4.0695,4.0691,4.0766,4.0777,4.0777,4.0777,4.0777,4.0777,4.0777,4.0777,4.0777,4.0777,4.0739,4.065,4.071,4.0729,4.074,4.0668,4.0636,4.0636,4.0636,4.0563,4.0469,4.0604,4.0431,4.0253,0.0,0.0,0.0,0.0,0.0,0.0,0.0,0.0,0.0,0.0,0.0,0.0,0.0,-0.6799,-0.6036,-0.5542,-0.4893,-0.4294,-0.379,-0.379,-0.3456,-0.2676,-0.2619,-0.2119,-0.1116,-0.1115,0.0,0.0,0.0,0.0505,0.0785,0.1909,0.2296,0.2219,0.3348,0.3762,0.3581,0.3581,0.3581,0.367,0.4268,0.4727,0.5049,0.4917,0.5271,0.5864,0.4823,0.4508,0.4454,0.4268,0.3902,0.3718,0.4498,0.499,0.5629,0.7405,0.9009,1.0956,1.4387,1.6787,1.9464,2.4158,2.7931,3.0969,3.2779,3.539,3.7542,3.7825,3.8707,3.9414,3.9414,3.969,3.9962,4.0081,4.0232,4.0419,4.061,4.0667,4.0718,4.0762,4.085,4.0925,4.0925,4.1019,4.1047,4.0994,4.0934,4.0865,4.0799,4.0785,4.0746,4.0693,4.0723,4.0699,4.0623,4.061,4.061,4.061,4.061,4.061,4.0604,4.0699,4.0723,4.0701,4.0773,4.078,4.0739,4.0766,4.0752,4.0752,4.0752,4.0733,4.0682,4.0696,4.061,4.0588,0.0,0.0,0.0,0.0,0.0,0.0,0.0,0.0,0.0,0.0,0.0,0.0,0.0,0.0,-0.5928,-0.5218,-0.4732,-0.4294,-0.3732,-0.3511,-0.3065,-0.2232,-0.1952,-0.1507,-0.0727,0.0,0.0,0.0,0.0,0.0,0.0,0.11,0.1685,0.1866,0.2943,0.349,0.3581,0.3581,0.3581,0.367,0.4498,0.4944,0.5063,0.5063,0.5462,0.5894,0.5117,0.4803,0.4829,0.4788,0.4546,0.4268,0.4595,0.513,0.5857,0.7216,0.8479,0.9996,1.2575,1.4574,1.6816,2.0602,2.4131,2.7394,3.0269,3.3166,3.5715,3.7345,3.8493,3.9277,3.9534,3.988,4.0139,4.0281,4.0446,4.061,4.071,4.0772,4.0807,4.0857,4.0945,4.0991,4.0991,4.1032,4.1026,4.095,4.0902,4.0855,4.0761,4.0632,4.0482,4.0335,4.0335,4.0342,4.0372,4.0372,4.0406,4.0489,4.0489,4.0489,4.0504,4.0582,4.0636,4.063,4.0752,4.0788,4.0794,4.0797,4.0836,4.0864,4.0864,4.085,4.0793,4.0799,4.0772,4.0798,0.0,0.0,0.0,0.0,0.0,0.0,0.0,0.0,0.0,0.0,0.0,0.0,0.0,0.0,0.0,-0.457,-0.4519,-0.4519,-0.446,-0.379,-0.301,-0.223,-0.1507,-0.0727,0.0,0.0,0.0,0.0,0.0,0.0,0.0,0.0,0.1208,0.1821,0.2448,0.3034,0.3581,0.3581,0.3581,0.3718,0.4918,0.5071,0.4698,0.581,0.5953,0.5438,0.5416,0.5378,0.5409,0.544,0.5404,0.5339,0.5286,0.569,0.6235,0.679,0.7405,0.8203,0.0,0.0,0.0,1.6808,1.8957,2.1728,2.8217,3.0549,3.2441,3.6244,3.7747,3.8604,3.9419,3.984,4.0211,4.0623,4.0692,4.071,4.0785,4.0914,4.0996,4.1016,4.1014,4.0996,4.0996,4.0877,4.0801,4.0793,4.0742,4.0692,4.0692,4.0315,3.9943,3.9622,3.9599,3.9775,4.0101,4.0101,4.0232,4.0489,4.0489,4.0489,4.0489,4.0489,4.0489,4.0519,4.0703,4.0864,4.0976,4.0856,4.0892,4.1016,4.1016,4.092,4.0836,4.0955,4.092,4.0801,0.0,0.0,0.0,0.0,0.0,0.0,0.0,0.0,0.0,0.0,0.0,0.0,0.0,0.0,-0.5218,-0.457,-0.4519,-0.4239,-0.3677,-0.3511,-0.2788,-0.1452,-0.1229,-0.0727,0.0,0.0,0.0,0.0,0.0,0.0,0.0,0.0,0.0,0.0,0.241,0.3034,0.3581,0.3581,0.3581,0.3718,0.4918,0.533,0.5279,0.6024,0.6422,0.6554,0.6177,0.5748,0.5434,0.589,0.5217,0.415,0.4547,0.475,0.5106,0.6132,0.6833,0.7433,0.8297,0.0,0.0,0.0,0.0,0.0,2.1756,2.6419,3.0784,3.2628,3.5509,3.7877,3.8596,3.9283,3.9867,4.0273,4.0539,4.071,4.0785,4.0914,4.1049,4.1128,4.1133,4.1105,4.1019,4.0964,4.0883,4.0742,4.0707,4.0662,4.0559,4.0267,4.0061,3.9963,3.9731,3.9775,4.0101,4.0101,4.0232,4.0489,4.0489,4.0489,4.0489,4.0489,4.0489,4.0504,4.0549,4.069,4.087,4.1025,4.1113,4.1149,4.1149,4.1126,4.108,4.1023,4.0988,4.0914,0.0,0.0,0.0,0.0,0.0,0.0,0.0,0.0,0.0,0.0,0.0,0.0,0.0,0.0,-0.4948,-0.4515,-0.4519,-0.4294,-0.3846,-0.3566,-0.2826,-0.1586,-0.1275,-0.0778,0.0,0.0,0.0,0.0,0.0,0.0,0.0,0.0,0.0,0.0,0.0,0.0,0.3262,0.349,0.3581,0.3718,0.4918,0.5264,0.5129,0.5953,0.6366,0.6371,0.6304,0.611,0.5837,0.6452,0.5584,0.4381,0.4741,0.4639,0.4529,0.5221,0.6016,0.679,0.7363,0.8496,0.9644,1.0108,0.0,0.0,1.9214,2.3345,2.7581,3.1345,3.4213,3.6365,3.7462,3.8435,3.9208,3.9559,4.0015,4.0456,4.0831,4.0955,4.1052,4.1171,4.115,4.1055,4.0925,4.0883,4.079,4.0636,4.0623,4.054,4.0356,4.0177,4.0041,3.9901,3.969,3.9775,4.0101,4.0101,4.0232,4.0489,4.0489,4.0489,4.0489,4.0489,4.0489,4.0504,4.0584,4.0682,4.0816,4.1082,4.1191,4.1191,4.1191,4.1191,4.1171,4.1052,4.0996,4.0983,0.0,0.0,0.0,0.0,0.0,0.0,0.0,0.0,0.0,0.0,0.0,0.0,0.0,0.0,0.0,0.0,-0.4519,-0.4519,-0.4519,-0.3904,-0.3189,-0.2346,-0.1696,-0.0932,-0.016,0.0,0.0,0.0,0.0,0.0,0.0,0.0,0.0,0.0,0.0,0.0,0.2719,0.335,0.3626,0.3806,0.4874,0.5009,0.4705,0.5871,0.5963,0.5692,0.6233,0.6325,0.6382,0.6755,0.6302,0.5455,0.5324,0.4923,0.4502,0.4409,0.5188,0.621,0.667,0.7595,0.8542,0.9032,1.027,0.0,1.8267,2.0429,2.319,3.0017,3.2208,3.3406,3.4969,3.6263,3.7191,3.7506,3.8422,3.9512,4.0747,4.0916,4.098,4.1151,4.1068,4.0949,4.0809,4.0742,4.0655,4.0519,4.0489,4.0389,4.0158,4.012,3.9943,3.9668,3.9622,3.9775,4.0101,4.0101,4.0232,4.0489,4.0489,4.0489,4.0489,4.0519,4.0519,4.0519,4.0713,4.0801,4.0816,4.1077,4.1191,4.1191,4.1191,4.1191,4.1191,4.1077,4.1,4.0988,-1.29,0.0,0.0,0.0,0.0,0.0,0.0,0.0,0.0,0.0,0.0,0.0,0.0,0.0,0.0,0.0,-0.4519,-0.4519,-0.4519,-0.4349,-0.3947,-0.3202,-0.2871,-0.2136,-0.0902,-0.0774,0.0,0.0,0.0,0.0,0.0,0.0,0.0,0.0,0.0,0.0,0.2719,0.335,0.3899,0.4361,0.4591,0.4882,0.5331,0.6051,0.6505,0.6776,0.6868,0.6688,0.6262,0.5849,0.5873,0.5957,0.4992,0.4918,0.511,0.4546,0.49,0.551,0.5626,0.6458,0.7355,0.7425,0.8665,0.0,1.2256,1.4809,1.754,2.0364,2.3371,2.5772,2.67,2.7981,2.9094,2.9682,3.25,3.5976,3.9813,4.0444,4.0641,4.1,4.1016,4.0957,4.0804,4.0796,4.0692,4.05,4.0489,4.0473,4.0422,4.0213,4.0081,4.0002,3.9754,3.9775,4.0101,4.0101,4.0232,4.0489,4.0489,4.0489,4.0504,4.061,4.0596,4.0519,4.0713,4.0801,4.0809,4.0964,4.1103,4.1191,4.1191,4.1191,4.1191,4.1171,4.1082,4.0988,-1.2881,0.0,0.0,0.0,0.0,0.0,0.0,0.0,0.0,0.0,0.0,0.0,0.0,0.0,-0.4842,0.0,0.0,0.0,-0.4362,-0.4355,-0.3965,-0.3203,-0.3046,-0.2509,-0.1458,-0.1383,0.0,0.0,0.0,0.0,0.0,0.0,0.0,0.0,0.0,0.0,0.2313,0.2898,0.349,0.4083,0.4688,0.5292,0.5916,0.6516,0.6868,0.7139,0.7139,0.6959,0.6684,0.6325,0.6054,0.5786,0.5512,0.5177,0.4874,0.4546,0.4874,0.5233,0.4932,0.5503,0.6137,0.6143,0.7176,0.0,0.0,1.2556,1.4835,1.7463,1.9962,2.1873,2.2673,2.4094,2.5362,2.5956,2.9474,3.2513,3.3749,3.7606,4.0409,4.0668,4.0881,4.0933,4.0769,4.0792,4.0723,4.0519,4.0489,4.0489,4.0489,4.0372,4.0304,4.0304,4.0138,4.012,4.0304,4.0304,4.0372,4.0489,4.0489,4.0489,4.0504,4.0649,4.0655,4.061,4.0805,4.0908,4.0914,4.103,4.1149,4.1191,4.1191,4.1191,4.1171,4.1052,4.0959,4.089,-1.2881,0.0,0.0,0.0,0.0,0.0,0.0,0.0,0.0,0.0,0.0,0.0,-0.6946,-0.6483,-0.5921,-0.5126,-0.5067,-0.4858,-0.4429,-0.4338,-0.4012,-0.3349,-0.3152,-0.278,-0.2183,-0.2056,-0.169,0.0,0.0,0.0,0.0,0.0,0.0,0.0,0.0,0.0,0.1647,0.2271,0.2854,0.3534,0.4498,0.53,0.6032,0.6572,0.6868,0.6959,0.7051,0.7139,0.7105,0.6963,0.6366,0.5641,0.5863,0.5447,0.4759,0.4451,0.4777,0.5144,0.4456,0.4696,0.513,0.513,0.5893,0.7251,0.0,0.0,0.0,1.5393,1.6941,1.7949,1.87,2.0155,2.1402,2.2019,2.5619,2.7828,2.6335,3.2627,3.7647,3.8266,3.9827,4.0531,3.9767,3.976,4.0004,4.0501,3.9923,3.9815,4.0469,4.0489,4.0489,4.0489,4.0489,4.0489,4.0489,4.0489,4.0489,4.0489,4.0489,4.0489,4.0504,4.0636,4.0707,4.0715,4.0933,4.1023,4.1019,4.1149,4.1191,4.1191,4.1191,4.1171,4.1149,4.092,4.0801,4.0761,-1.2881,-1.2881,0.0,0.0,0.0,0.0,0.0,0.0,0.0,0.0,0.0,-0.8618,-0.7889,-0.8435,-0.8396,-0.7237,-0.7168,-0.6546,-0.5119,-0.4911,-0.4823,-0.4852,-0.4128,-0.3651,-0.3548,-0.295,-0.2292,-0.1716,0.0,0.0,0.0,0.0,0.0,0.0,0.0656,0.0909,0.1033,0.1649,0.2268,0.2807,0.2943,0.368,0.4797,0.5344,0.5963,0.6416,0.6959,0.7139,0.7066,0.6526,0.6276,0.6,0.5038,0.5319,0.5782,0.4152,0.4522,0.5154,0.3987,0.4092,0.4522,0.4522,0.4995,0.5707,0.6471,0.0,0.7247,0.8659,0.0,0.999,1.0614,0.0,0.0,1.3363,1.6789,1.9733,2.0718,2.4607,2.8233,3.0629,3.6458,3.9189,3.6366,3.6144,3.7433,4.0447,3.7816,3.7353,4.0335,4.0489,4.0489,4.0489,4.0489,4.0489,4.0489,4.0489,4.0489,4.0489,4.0489,4.0489,4.0504,4.0692,4.0762,4.0726,4.1039,4.1105,4.1019,4.1149,4.1191,4.1191,4.1191,4.1128,4.1023,4.0992,4.0855,4.0715,-1.2978,-1.3076,-1.3142,0.0,0.0,0.0,0.0,-1.0217,0.0,0.0,-0.9163,-0.895,-0.7738,-0.7934,-0.7887,-0.7342,-0.7297,-0.6898,-0.6002,-0.5908,-0.544,-0.4372,-0.3992,-0.3774,-0.3689,-0.3361,-0.2907,-0.2328,-0.2057,0.0,0.0,0.0,0.0,0.0,0.0291,0.0599,0.0908,0.1149,0.1611,0.2179,0.217,0.2506,0.3127,0.4805,0.5963,0.6779,0.7051,0.7139,0.7065,0.6817,0.6297,0.5779,0.5932,0.5655,0.5196,0.4768,0.4774,0.4688,0.3854,0.4015,0.4394,0.4017,0.4628,0.526,0.5139,0.5368,0.5754,0.6265,0.0,0.0,0.0,0.0,0.0,0.0,1.3217,1.5619,1.5448,2.0154,2.466,2.7445,3.0997,3.3769,3.5084,3.7246,3.9116,4.048,3.9298,3.9102,4.0427,4.0489,4.0489,4.0489,4.0489,4.0489,4.0489,4.0489,4.0489,4.0489,4.0489,4.053,4.0623,4.0743,4.0828,4.0889,4.1101,4.1113,4.0994,4.1066,4.1049,4.0964,4.0964,4.0988,4.0992,4.0914,4.0807,4.068,-1.334,-1.3467,-1.3517,-1.3038,-1.3004,-1.2584,-1.1125,-1.0243,-0.9686,-0.9686,-0.9893,-0.9605,-0.8426,-0.8728,-0.8842,-0.8419,-0.8613,-0.8508,-0.7812,-0.725,-0.6402,-0.5232,-0.4339,-0.3958,-0.4185,-0.3826,-0.3436,-0.2998,0.0,0.0,0.0,0.0,0.0,0.0,-0.009,0.0247,0.0619,0.0666,0.0917,0.1287,0.1298,0.1486,0.2066,0.4275,0.5786,0.6694,0.6962,0.7139,0.7115,0.6953,0.6363,0.578,0.639,0.5856,0.4992,0.4918,0.4723,0.434,0.3559,0.367,0.3886,0.3444,0.399,0.4444,0.383,0.4029,0.4378,0.4552,0.488,0.0,0.0,0.0,0.6312,0.7414,0.0,1.147,1.0972,1.5082,1.939,2.2731,2.5036,2.8199,3.2793,3.5887,3.8038,3.9043,3.9229,3.9663,4.0516,4.0563,4.0568,4.0504,4.0549,4.0549,4.0489,4.0489,4.0489,4.0489,4.0489,4.0574,4.0703,4.077,4.087,4.1019,4.1149,4.1126,4.0996,4.0996,4.092,4.0801,4.0801,4.0843,4.0916,4.0805,4.0731,4.0636,-1.4048,-1.4048,-1.4058,-1.4058,-1.3521,-1.2584,-1.1125,-1.0243,-0.9686,-0.9686,-1.0421,-1.0949,-1.0883,-1.241,-1.2939,-1.1858,-1.2557,-1.2312,-1.0803,-0.8876,-0.8083,-0.8682,-0.5686,-0.4551,-0.5705,-0.4453,-0.3767,-0.3762,0.0,0.0,0.0,0.0,0.0,0.0,-0.027,0.0,0.0,0.0,0.0,0.0086,0.0058,0.0766,0.1976,0.3827,0.4893,0.5625,0.6694,0.7139,0.7051,0.6481,0.6331,0.6194,0.5628,0.5825,0.5892,0.4157,0.4064,0.426,0.3058,0.2728,0.2754,0.274,0.2773,0.2645,0.201,0.1917,0.2093,0.2662,0.2791,0.2964,0.348,0.3611,0.3995,0.5137,0.5402,0.0,0.0,0.8029,0.9818,1.4279,1.8937,2.3654,2.835,2.9387,3.1391,3.5351,3.5716,3.721,4.051,4.0762,4.0703,4.0504,4.0623,4.0636,4.0504,4.0489,4.0489,4.0489,4.0489,4.0574,4.0703,4.077,4.087,4.1019,4.1149,4.1126,4.0996,4.0996,4.092,4.0801,4.0801,4.0752,4.0715,4.0703,4.0623,4.0504,-1.498,-1.498,-1.4893,-1.4609,-1.4627,-1.4096,-1.2519,-1.1624,-1.1374,-1.221,-1.192,-1.1925,-1.27,-1.2635,-1.25,-1.2518,-1.2801,-1.2685,-1.1993,-1.0144,-0.8861,-0.8317,-0.5605,-0.4445,-0.5203,-0.4379,-0.3938,-0.3925,-0.3597,0.0,0.0,0.0,0.0,0.0,-0.0674,-0.0354,0.0,0.0,0.0,0.0,0.0,0.023,0.0726,0.2176,0.3844,0.5447,0.5805,0.6428,0.7109,0.6909,0.6583,0.6295,0.6481,0.6112,0.5507,0.4461,0.4094,0.3642,0.2416,0.2407,0.2572,0.2208,0.2397,0.2554,0.1923,0.1786,0.1873,0.2049,0.2091,0.218,0.2355,0.2352,0.2615,0.3437,0.3564,0.3983,0.0,0.5741,0.668,0.8613,1.5181,2.0622,2.3365,2.8727,3.2785,3.4564,3.7141,3.9254,4.0623,4.0713,4.0721,4.0703,4.0743,4.0743,4.0692,4.0692,4.0692,4.0692,4.0692,4.0761,4.0903,4.0914,4.1016,4.1128,4.1171,4.1126,4.0992,4.0908,4.0813,4.0721,4.0648,4.059,4.0588,4.0655,4.061,4.0489,-1.5468,-1.541,-1.5322,-1.5049,-1.4753,-1.4213,-1.3191,-1.2328,-1.2251,-1.3531,-1.2909,-1.2767,-1.4043,-1.3346,-1.2964,-1.3408,-1.3705,-1.3641,-1.3163,-1.1714,-1.0479,-0.9466,-0.7015,-0.589,-0.6394,-0.5097,-0.4417,-0.4397,-0.4047,-0.368,0.0,0.0,0.0,0.0,-0.1123,-0.0945,-0.0939,-0.0308,-0.027,-0.0629,-0.018,0.0,0.0081,0.0874,0.2376,0.4201,0.4594,0.5534,0.6517,0.6517,0.6544,0.6555,0.6492,0.6024,0.5118,0.3918,0.3239,0.2747,0.1744,0.179,0.1959,0.1575,0.1778,0.1914,0.1287,0.1167,0.1167,0.1167,0.1164,0.1158,0.1138,0.116,0.1366,0.1968,0.2077,0.2392,0.0,0.3691,0.4227,0.5035,1.1074,1.6203,1.8873,2.5155,3.0211,3.3048,3.6421,3.8994,4.0448,4.0664,4.0734,4.0753,4.0797,4.0805,4.0801,4.0801,4.0801,4.0801,4.0801,4.087,4.0996,4.0996,4.1077,4.1191,4.115,4.1052,4.092,4.0805,4.0721,4.0623,4.053,4.0489,4.0504,4.0492,4.0431,4.0356,-1.5595,-1.5478,-1.5478,-1.5478,-1.4112,-1.3078,-1.3094,-1.2436,-1.2455,-1.3769,-1.3598,-1.3855,-1.5064,-1.4894,-1.467,-1.4583,-1.5351,-1.5357,-1.4249,-1.3423,-1.2717,-1.2238,-0.9697,-0.8586,-0.9126,-0.6539,-0.5182,-0.5139,-0.4355,-0.3997,0.0,0.0,0.0,0.0,-0.1524,-0.162,-0.2593,-0.0771,-0.0629,-0.1619,-0.045,0.0,0.0,0.0,0.0681,0.1904,0.3118,0.4283,0.527,0.527,0.6071,0.6694,0.5625,0.527,0.4823,0.2504,0.179,0.1671,0.1051,0.0868,0.0848,0.0835,0.0881,0.0724,0.0117,0.0,0.0,0.0,0.0,0.0,0.0,0.0,0.0191,0.0759,0.0839,0.1029,0.1606,0.1638,0.2061,0.3187,0.6632,1.0577,1.4853,1.8803,2.3902,3.0621,3.3409,3.6382,3.9971,4.0396,4.0593,4.0698,4.0779,4.0808,4.0804,4.0816,4.0816,4.0816,4.0816,4.0896,4.1019,4.1003,4.1062,4.1171,4.1052,4.0914,4.0766,4.069,4.059,4.0454,4.0473,4.0457,4.0406,4.0177,4.0081,4.0081,-1.6396,-1.6396,-1.6396,-1.6396,-1.4985,-1.4012,-1.4365,-1.4247,-1.489,-1.7107,-1.7096,-1.7294,-1.8278,-1.7507,-1.6494,-1.5584,-1.5698,-1.5705,-1.5398,-1.3849,-1.3136,-1.345,-1.1013,-0.9543,-0.9122,-0.7522,-0.627,-0.5325,-0.4545,-0.4144,-0.4128,0.0,0.0,0.0,-0.2095,-0.215,-0.2736,-0.0848,-0.018,-0.045,-0.009,0.0,0.0,0.0,0.017,0.0635,0.1822,0.3037,0.4105,0.4105,0.4283,0.4461,0.4194,0.4105,0.3749,0.2236,0.179,0.1604,0.0524,0.0261,0.0255,0.0233,0.0227,0.0221,0.0066,0.0,0.0,0.0,0.0,0.0,0.0,0.0,0.0052,0.0193,-0.0138,-0.0402,-0.0223,-0.0578,-0.0443,0.0752,0.4051,0.7424,1.0459,1.718,2.2932,2.6808,3.023,3.437,3.9416,3.7848,3.8004,4.0696,4.0886,4.0943,4.0954,4.1052,4.1103,4.1103,4.1103,4.1126,4.115,4.1052,4.1021,4.103,4.0914,4.0719,4.0497,4.0378,4.0191,3.9966,3.9867,3.9671,3.9515,3.9943,3.9943,3.9731,-1.6792,-1.6665,-1.6665,-1.6665,-1.6056,-1.566,-1.5714,-1.5071,-1.5384,-1.7746,-1.7792,-1.7979,-1.8991,-1.8232,-1.7412,-1.6662,-1.6103,-1.5611,-1.5097,-1.4558,-1.4174,-1.4035,-1.2608,-1.1375,-1.0365,-0.8873,-0.7331,-0.5827,-0.5072,-0.4577,-0.4346,0.0,0.0,0.0,-0.281,-0.277,-0.324,-0.2098,-0.0999,-0.0084,-0.0616,-0.0436,0.0,0.0,0.0,0.0084,0.0793,0.179,0.2771,0.2771,0.3126,0.3481,0.2948,0.2771,0.2592,0.1344,0.0986,0.0897,0.018,0.0,0.0,0.0,0.0,0.0,0.0,0.0,0.0,0.0,0.0,0.0,0.0,0.0,0.0,0.0,-0.0493,-0.0895,-0.0895,-0.1652,-0.1738,-0.0535,0.1795,0.4202,0.6441,1.4485,2.073,2.3488,2.6722,3.0208,3.4076,3.4585,3.5835,3.8179,3.982,4.0735,4.0914,4.0992,4.1023,4.1023,4.1023,4.1023,4.1023,4.0955,4.0914,4.0908,4.0645,4.0447,4.0287,4.0036,3.9852,3.9709,3.9724,3.9502,3.9227,3.9604,3.959,3.9364,-1.7022,-1.6904,-1.6904,-1.6904,-1.7326,-1.7622,-1.7392,-1.6061,-1.574,-1.7813,-1.7826,-1.7893,-1.8696,-1.8257,-1.7777,-1.7505,-1.648,-1.5398,-1.4382,-1.5264,-1.5378,-1.4362,-1.4247,-1.3494,-1.2237,-1.0529,-0.8602,-0.6563,-0.597,-0.523,0.0,0.0,0.0,0.0,-0.3442,-0.3358,-0.3708,-0.3715,-0.2488,-0.0542,-0.1463,-0.1165,-0.018,-0.009,0.0,0.0,0.0,0.0718,0.1522,0.1522,0.2236,0.2948,0.1879,0.1522,0.1344,0.0269,0.0,0.0,0.0,0.0,0.0,0.0,0.0,0.0,0.0,0.0,0.0,0.0,0.0,0.0,0.0,0.0,0.0,0.0,-0.0518,-0.0906,-0.0906,-0.1854,-0.2168,-0.1019,0.0278,0.0,0.3116,1.1251,1.7517,2.026,2.2647,2.5143,2.7834,3.1182,3.378,3.5454,3.8454,4.0246,4.0655,4.0673,4.0682,4.0682,4.0729,4.071,4.0682,4.0721,4.0712,4.0636,4.0222,3.9996,3.9925,3.9494,3.9327,3.9377,3.9527,3.9447,3.9231,3.9231,3.9156,3.9064,-1.7917,-1.7783,-1.7783,-1.7783,-1.8695,-1.9676,-2.0333,-2.023,-2.056,-2.1864,-2.2351,-2.182,-1.9996,-1.9412,-1.8403,-1.6292,-1.592,-1.5745,-1.5538,-1.5718,-1.5738,-1.5531,-1.5523,-1.4854,-1.359,-1.2785,-1.0842,-0.7842,-0.7238,-0.6099,0.0,0.0,0.0,-0.4405,-0.3613,-0.3213,-0.3114,-0.3992,-0.3805,-0.2866,-0.213,-0.17,-0.1344,-0.0359,0.0,0.0,0.0,0.018,0.0359,0.0359,0.0449,0.0628,0.0359,0.0359,0.0269,0.009,0.0,0.0,0.0,0.0,0.0,0.0,0.0,0.0,0.0,0.0,0.0,0.0,0.0,0.0,0.0,0.0,0.0,0.0,-0.0533,-0.0886,-0.0886,-0.1516,-0.1703,-0.0984,0.0998,0.2239,0.209,0.8174,1.3178,1.5837,1.725,2.1492,2.9541,2.8959,3.136,3.7928,3.8829,3.9448,3.9976,4.0038,4.0053,4.0053,4.0331,4.0331,4.0053,4.0226,4.0177,3.9942,3.9305,3.8906,3.8683,3.8175,3.799,3.8043,3.8061,3.8366,3.8834,3.8834,3.878,3.8779,-1.8076,-1.8008,-1.8223,-1.8877,-2.0078,-2.1299,-2.2393,-2.3121,-2.3281,-2.2508,-2.2593,-2.2165,-2.0755,-2.0759,-1.9979,-1.7863,-1.7117,-1.648,-1.5825,-1.5832,-1.5832,-1.5832,-1.5832,-1.5242,-1.3974,-1.3582,-1.1757,-0.8219,-0.7911,-0.6658,0.0,-0.4519,-0.4519,-0.4467,-0.3923,-0.3564,-0.3552,-0.4538,-0.443,-0.3521,-0.2985,-0.2325,-0.17,-0.0449,0.0,0.0,0.0,0.0,0.0,0.0,0.0,0.0,0.0,0.0,0.0,0.0,0.0,0.0,0.0,0.0,0.0,0.0,0.0,0.0,0.0,0.0,0.0,0.0,0.0,0.0,0.0,0.0,-0.0199,-0.0811,-0.0923,-0.1316,-0.2593,-0.275,-0.2496,-0.1923,-0.0548,0.0693,0.1685,0.4782,0.8314,1.2148,1.4159,1.8209,2.5106,2.5542,2.8485,3.4762,3.6772,3.8135,3.8921,3.9173,3.9326,3.9326,3.9489,3.9488,3.9326,3.9192,3.9048,3.8896,3.8393,3.8107,3.798,3.7739,3.7668,3.7739,3.807,3.8421,3.8567,3.7479,3.7114,3.7155,-1.8695,-1.8814,-1.9294,-2.0822,-2.218,-2.3362,-2.4058,-2.5258,-2.5225,-2.285,-2.2507,-2.2193,-2.1502,-2.178,-2.1204,-1.9255,-1.8234,-1.7131,-1.592,-1.5832,-1.5832,-1.5832,-1.5832,-1.5337,-1.4364,-1.4262,-1.2608,-0.9247,-0.8832,-0.7411,-0.5053,-0.4671,-0.4587,-0.466,-0.4348,-0.4353,-0.4596,-0.53,-0.5134,-0.4293,-0.4082,-0.3304,-0.2057,-0.0807,-0.018,0.0,0.0,0.0,0.0,0.0,0.0,0.0,0.0,0.0,0.0,0.0,0.0,0.0,0.0,0.0,0.0,0.0,0.0,0.0,0.0,-0.018,-0.0269,-0.009,-0.018,-0.035,-0.0399,-0.06,-0.0929,-0.1325,-0.1448,-0.2079,-0.3688,-0.3518,-0.3132,-0.2918,-0.2049,-0.0777,0.0875,0.1792,0.4203,0.8784,1.1674,1.5253,2.0035,2.2251,2.5544,3.0285,3.3523,3.5597,3.6472,3.7497,3.8016,3.8016,3.8088,3.8166,3.821,3.7763,3.7602,3.7642,3.7131,3.6889,3.6893,3.6977,3.7084,3.7322,3.7855,3.7699,3.6983,3.5318,3.511,3.5701,-2.0976,-2.1434,-2.2164,-2.4588,-2.6071,-2.6598,-2.5633,-2.6595,-2.6873,-2.5508,-2.5042,-2.4239,-2.2665,-2.2188,-2.0836,-1.8087,-1.7785,-1.7131,-1.592,-1.5832,-1.5832,-1.5832,-1.5832,-1.573,-1.5635,-1.5635,-1.4636,-1.2548,-1.0863,-0.8962,-0.6846,-0.522,-0.481,-0.5332,-0.4964,-0.545,-0.6438,-0.6257,-0.6404,-0.6708,-0.5606,-0.4552,-0.3303,-0.2057,-0.0986,0.0,0.0,0.0,0.0,0.0,0.0,0.0,0.0,0.0,0.0,0.0,0.0,0.0,0.0,0.0,0.0,0.0,0.0,0.0,0.0,-0.0807,-0.1344,-0.0269,-0.0897,-0.1658,-0.1596,-0.2496,-0.2551,-0.0471,-0.1975,-0.3025,-0.2182,-0.201,-0.2375,-0.3428,-0.1533,-0.0515,-0.14,0.0065,0.2326,0.536,0.8664,1.2937,1.8345,2.0167,2.2987,2.7272,2.9367,3.0687,3.1192,3.4035,3.5455,3.5437,3.5752,3.6077,3.6317,3.5981,3.6016,3.6214,3.5093,3.4627,3.4603,3.4603,3.5078,3.5824,3.5862,3.4367,3.2173,3.1949,3.3475,3.5628,-2.3835,-2.4022,-2.4567,-2.637,-2.7118,-2.7566,-2.7843,-2.7768,-2.741,-2.6945,-2.6038,-2.5005,-2.3822,-2.3511,-2.2483,-2.0085,-1.9222,-1.8588,-1.8033,-1.6655,-1.6109,-1.6943,-1.6204,-1.5832,-1.5832,-1.5832,-1.4878,-1.296,-1.154,-0.957,-0.7186,-0.6137,-0.6039,-0.682,-0.6207,-0.6583,-0.7539,-0.7054,-0.6922,-0.6962,-0.5894,-0.4643,-0.3481,-0.2236,-0.1076,0.0,0.0,0.0,0.0,0.0,0.0,0.0,0.0,0.0,0.0,0.0,0.0,0.0,0.0,0.0,0.0,0.0,0.0,0.0,0.0,-0.0359,-0.0807,-0.0986,-0.2057,-0.2918,-0.2905,-0.3262,-0.349,-0.3301,-0.3427,-0.3954,-0.4872,-0.4376,-0.3881,-0.3663,-0.2752,-0.1618,-0.0296,0.014,0.1272,0.3499,0.5871,0.9914,1.5902,1.7809,2.0633,2.4906,2.7608,2.9297,2.9955,3.2038,3.3126,3.3126,3.3275,3.3388,3.3502,3.3028,3.2892,3.3019,3.2531,3.268,3.3228,3.2583,3.3644,3.5264,3.1575,2.9442,2.8732,3.0762,3.2216,3.3131,-2.6907,-2.6792,-2.7149,-2.8867,-2.9136,-2.9328,-2.9873,-2.8866,-2.8049,-2.7683,-2.6355,-2.5254,-2.4492,-2.4414,-2.3587,-2.1454,-2.0486,-1.9852,-1.9497,-1.7848,-1.7124,-1.7692,-1.685,-1.6204,-1.5832,-1.5832,-1.514,-1.3787,-1.2419,-1.0761,-0.892,-0.7898,-0.7868,-0.8598,-0.77,-0.7694,-0.84,-0.7451,-0.7139,-0.7051,-0.6248,-0.4996,-0.3481,-0.2681,-0.1344,0.0,0.0,0.0,0.0,0.0,0.0,0.0,0.0,0.0,0.0,0.0,0.0,0.0,0.0,0.0,0.0,0.0,-0.0269,-0.0449,-0.009,-0.0808,-0.1792,-0.2683,-0.2949,-0.3215,-0.357,-0.3908,-0.4322,-0.4775,-0.4751,-0.5077,-0.6373,-0.5894,-0.5132,-0.4484,-0.3741,-0.2501,-0.0391,-0.0221,0.0352,0.1825,0.3728,0.7367,1.3177,1.5337,1.7841,2.1212,2.3991,2.5861,2.6742,2.8651,2.9943,3.052,3.0233,3.0547,3.1268,3.0872,3.0572,3.0441,3.0588,3.1014,3.15,3.1258,3.1874,3.2489,2.8193,2.6478,2.6812,2.9175,3.004,3.019,-3.0341,-2.9955,-3.0056,-3.2571,-3.3043,-3.2587,-3.14,-3.0135,-2.8947,-2.7778,-2.6178,-2.4912,-2.4463,-2.4414,-2.3587,-2.1454,-2.1293,-2.0755,-1.9579,-1.9488,-1.8948,-1.7777,-1.7692,-1.7131,-1.5832,-1.5832,-1.5818,-1.5812,-1.3913,-1.2878,-1.2656,-1.0732,-1.0111,-1.0512,-0.9147,-0.8802,-0.9041,-0.7638,-0.7139,-0.7139,-0.7051,-0.5708,-0.357,-0.357,-0.2057,0.0,0.0,0.0,0.0,0.0,0.0,0.0,0.0,0.0,0.0,0.0,0.0,0.0,0.0,0.0,0.0,0.0,-0.0897,-0.1433,-0.0269,-0.2773,-0.5359,-0.5359,-0.3486,-0.2147,-0.3392,-0.4548,-0.4994,-0.3837,-0.5526,-0.6688,-0.5536,-0.5447,-0.5628,-0.6182,-0.4146,-0.266,-0.266,-0.1564,-0.0626,0.0,0.2293,0.5597,1.0188,1.259,1.4387,1.5581,1.736,1.8868,1.999,2.301,2.5524,2.7551,2.6601,2.7483,2.9995,3.0009,2.9657,2.9066,2.9582,2.955,2.9157,3.0793,2.9567,2.6577,2.6496,2.6528,2.6477,2.6516,2.6534,2.7033,-3.3365,-3.2631,-3.2187,-3.298,-3.3081,-3.2982,-3.2525,-3.1412,-3.0368,-2.9576,-2.7694,-2.6054,-2.5194,-2.4426,-2.357,-2.2627,-2.1756,-2.148,-2.1952,-2.0404,-1.967,-2.0124,-1.8596,-1.7505,-1.7131,-1.6197,-1.5832,-1.5832,-1.4386,-1.3256,-1.2289,-1.0969,-1.1006,-1.2109,-0.9939,-0.9354,-1.0012,-0.7944,-0.7139,-0.7139,-0.7139,-0.6157,-0.4732,-0.3927,-0.2592,-0.1076,-0.0269,0.0,0.0,0.0,-0.0539,-0.1076,-0.0269,0.0,0.0,0.0,0.0,0.0,0.0,0.0,0.0,0.0,-0.0269,-0.0449,-0.009,-0.1523,-0.3217,-0.4016,-0.3571,-0.3126,-0.357,-0.4554,-0.527,-0.491,-0.6068,-0.6962,-0.6605,-0.6517,-0.6364,-0.5766,-0.4287,-0.3345,-0.3345,-0.1461,-0.0588,-0.1182,0.1046,0.3359,0.5583,0.9407,1.2107,1.323,1.5947,1.8024,1.9158,2.0818,2.2293,2.3701,2.3413,2.407,2.5546,2.5546,2.5815,2.6271,2.6483,2.6858,2.7369,2.7865,2.7449,2.6508,2.6531,2.6481,2.6498,2.649,2.7943,3.008,-3.5855,-3.4664,-3.3713,-3.3713,-3.3398,-3.3006,-3.278,-3.1747,-3.0735,-3.0126,-2.7878,-2.6062,-2.5487,-2.4323,-2.3437,-2.3164,-2.2403,-2.2306,-2.3047,-2.1676,-2.1033,-2.1293,-1.9405,-1.8141,-1.7692,-1.648,-1.5832,-1.5832,-1.5097,-1.4229,-1.3309,-1.2703,-1.278,-1.3416,-1.1,-1.0112,-1.0438,-0.8097,-0.7139,-0.7139,-0.7139,-0.6428,-0.5359,-0.4552,-0.3217,-0.1701,-0.0986,-0.0718,-0.0718,-0.0718,-0.1523,-0.2236,-0.1076,-0.0718,-0.0628,-0.009,0.0,-0.009,-0.0539,-0.0359,-0.018,-0.1165,-0.1344,-0.1433,-0.1881,-0.2237,-0.2592,-0.2858,-0.2948,-0.2948,-0.2948,-0.3573,-0.4198,-0.4643,-0.5354,-0.5977,-0.6425,-0.6068,-0.5733,-0.5726,-0.4255,-0.3403,-0.3912,-0.1791,-0.0931,-0.2396,-0.0247,0.1202,0.1501,0.5943,0.9271,1.0891,1.2881,1.4714,1.633,1.6926,1.8005,1.9399,2.0205,2.1045,2.1772,2.2147,2.2657,2.3352,2.4891,2.5901,2.6485,2.6528,2.6503,2.6491,2.6507,2.6527,2.6534,2.6467,2.8648,3.1326,-3.7829,-3.6094,-3.4664,-3.4664,-3.3759,-3.283,-3.2303,-3.1211,-3.0286,-2.9761,-2.7309,-2.5577,-2.5459,-2.4139,-2.3222,-2.3144,-2.3135,-2.3135,-2.3135,-2.3135,-2.2589,-2.1471,-2.0215,-1.8948,-1.787,-1.648,-1.5818,-1.5798,-1.5798,-1.5651,-1.5364,-1.5344,-1.5044,-1.4429,-1.2087,-1.0891,-1.0438,-0.8097,-0.7139,-0.7139,-0.7139,-0.6425,-0.5536,-0.5447,-0.402,-0.2058,-0.1969,-0.1969,-0.1969,-0.1969,-0.2771,-0.3482,-0.2236,-0.1879,-0.17,-0.0359,0.0,-0.0269,-0.1344,-0.0897,-0.0539,-0.2769,-0.3392,-0.3838,-0.509,-0.4374,-0.3215,-0.2147,-0.179,-0.17,-0.17,-0.1701,-0.2147,-0.3303,-0.357,-0.4016,-0.509,-0.4285,-0.4245,-0.5905,-0.4027,-0.3081,-0.4337,-0.2289,-0.1552,-0.3345,-0.1325,-0.0529,-0.1586,0.2433,0.5888,0.8356,0.8463,0.9488,1.1798,1.1889,1.3002,1.5124,1.7192,1.8301,1.8461,1.9425,1.9947,2.0312,2.4189,2.6052,2.63,2.643,2.6359,2.6056,2.6104,2.6257,2.6528,2.6477,2.8498,3.0748,-3.7829,-3.6094,-3.4664,-3.4664,-3.3412,-3.2365,-3.2227,-3.1589,-3.0964,-3.0443,-2.9046,-2.763,-2.6351,-2.5115,-2.4049,-2.3135,-2.3135,-2.3135,-2.3135,-2.3135,-2.296,-2.2677,-2.0674,-1.9405,-1.9039,-1.6929,-1.5718,-1.5498,-1.5498,-1.5351,-1.5064,-1.4836,-1.4649,-1.4422,-1.1821,-1.0661,-1.0438,-0.8097,-0.7139,-0.7139,-0.7139,-0.6962,-0.6605,-0.5714,-0.5001,-0.4465,-0.3482,-0.3215,-0.3215,-0.3215,-0.4016,-0.4643,-0.2504,-0.2413,-0.2769,-0.0628,0.0,-0.009,-0.0359,-0.018,-0.018,-0.0718,-0.1522,-0.2771,-0.4912,-0.3751,-0.2413,-0.3037,-0.1701,-0.0449,-0.0449,-0.1165,-0.1879,-0.2147,-0.3037,-0.3659,-0.4016,-0.3748,-0.3721,-0.4167,-0.2948,-0.2517,-0.3723,-0.165,-0.0768,-0.2113,-0.081,-0.0162,-0.0405,-0.0237,0.1376,0.4646,0.4747,0.5883,0.8245,0.9139,1.0766,1.2937,1.4317,1.4981,1.51,1.5323,1.6275,1.7961,1.9413,2.1675,2.4344,2.5875,2.4754,2.2023,2.2018,2.3863,2.6527,2.6521,2.7026,2.7916,-3.8077,-3.6538,-3.5269,-3.5269,-3.3675,-3.2354,-3.2179,-3.1521,-3.0846,-3.0306,-2.9205,-2.8162,-2.7313,-2.6213,-2.5305,-2.4723,-2.3724,-2.3135,-2.3135,-2.3135,-2.3135,-2.3135,-2.1311,-2.0305,-2.0305,-1.794,-1.6241,-1.5398,-1.5264,-1.505,-1.4756,-1.4596,-1.4449,-1.4223,-1.2227,-1.1381,-1.1209,-0.8882,-0.7929,-0.7841,-0.7316,-0.7139,-0.7051,-0.6425,-0.5894,-0.5359,-0.4641,-0.4463,-0.4463,-0.4463,-0.5176,-0.5802,-0.3395,-0.3037,-0.3126,-0.0718,0.0,-0.009,-0.0628,-0.0449,-0.009,-0.0718,-0.1701,-0.286,-0.3575,-0.3127,-0.2503,-0.2057,-0.1344,-0.0628,-0.009,-0.0539,-0.0986,-0.0986,-0.156,-0.2137,-0.2666,-0.2333,-0.2394,-0.3466,-0.2057,-0.17,-0.3392,-0.1433,-0.0704,-0.251,-0.1502,-0.1086,-0.1585,-0.225,-0.1272,0.1765,0.1324,0.2205,0.4588,0.5838,0.7323,0.9035,1.0233,1.1091,1.1606,1.2143,1.3316,1.4957,1.5837,1.7418,1.9434,2.2531,2.2562,2.0777,2.2571,2.4612,2.6516,2.6476,2.8277,3.0854,-3.8242,-3.6978,-3.587,-3.5726,-3.4046,-3.2463,-3.19,-3.1046,-3.0319,-2.9854,-2.8949,-2.8267,-2.8096,-2.729,-2.6637,-2.6472,-2.4553,-2.3387,-2.3387,-2.3387,-2.3299,-2.3135,-2.1933,-2.1293,-2.1293,-1.8899,-1.6878,-1.5264,-1.5017,-1.4743,-1.4456,-1.4456,-1.4322,-1.4082,-1.2851,-1.2328,-1.2151,-0.9836,-0.889,-0.8803,-0.7577,-0.7139,-0.7139,-0.7139,-0.6517,-0.5625,-0.5625,-0.5625,-0.5625,-0.5625,-0.6337,-0.6694,-0.4372,-0.3748,-0.3393,-0.0718,-0.009,-0.0449,-0.1254,-0.0807,-0.0269,-0.1522,-0.2592,-0.3126,-0.2236,-0.2681,-0.2769,-0.0718,-0.0987,-0.1254,-0.018,0.0,0.0,0.0,0.0,-0.0328,-0.1394,-0.0668,-0.0742,-0.2835,-0.1254,-0.0807,-0.2858,-0.1165,-0.0807,-0.2858,-0.2147,-0.1969,-0.3037,-0.3215,-0.2408,-0.0356,-0.1245,-0.0622,0.1779,0.2853,0.392,0.5058,0.6298,0.7351,0.8305,0.973,1.0859,1.1969,1.3109,1.3808,1.4448,1.8772,2.0566,2.0931,2.4283,2.5935,2.6493,2.6469,3.0072,3.4833,-3.7569,-3.667,-3.5639,-3.479,-3.3238,-3.1862,-3.0991,-3.0284,-2.9892,-2.9804,-2.9624,-2.9197,-2.8176,-2.7924,-2.7533,-2.6554,-2.5305,-2.4542,-2.4542,-2.4542,-2.4135,-2.3135,-2.1933,-2.1293,-2.1293,-1.8635,-1.6422,-1.4656,-1.4609,-1.4436,-1.4155,-1.4155,-1.4128,-1.4082,-1.2851,-1.2328,-1.2151,-0.9836,-0.889,-0.8803,-0.7577,-0.7139,-0.7139,-0.7139,-0.6962,-0.6871,-0.6871,-0.6871,-0.6871,-0.6871,-0.6962,-0.6694,-0.4372,-0.4283,-0.4465,-0.0987,-0.0718,-0.1344,-0.0539,-0.018,-0.0269,-0.1522,-0.1969,-0.2324,-0.3126,-0.2681,-0.1969,-0.1612,-0.0897,-0.018,0.0,0.0,0.0,0.0,0.0,-0.0086,-0.0243,-0.0085,-0.0177,-0.0538,-0.0269,-0.018,-0.0539,-0.018,-0.018,-0.0539,-0.0359,-0.0359,-0.0539,-0.1522,-0.1878,-0.152,-0.1699,-0.0625,0.1788,0.1968,0.268,0.3922,0.5082,0.5797,0.5971,0.8177,0.947,0.9938,1.0826,1.2242,1.4448,1.8772,2.0566,2.0663,2.1261,2.3561,2.6464,2.6502,2.8685,3.2065,-3.6911,-3.6259,-3.5517,-3.5074,-3.3931,-3.2949,-3.2527,-3.1365,-3.0558,-3.0558,-3.0139,-2.9624,-2.9106,-2.8426,-2.7924,-2.736,-2.6378,-2.5462,-2.4872,-2.4211,-2.3627,-2.3135,-2.237,-2.1516,-2.0575,-1.923,-1.7431,-1.5347,-1.5184,-1.4789,-1.4088,-1.4088,-1.4088,-1.4088,-1.3555,-1.3288,-1.3118,-1.0788,-0.9836,-0.9662,-0.7837,-0.7139,-0.7139,-0.7139,-0.7139,-0.7139,-0.7139,-0.7139,-0.7139,-0.7139,-0.7139,-0.6782,-0.5087,-0.4463,-0.4018,-0.1612,-0.0897,-0.0718,-0.018,0.0,-0.009,-0.0718,-0.0807,-0.0986,-0.1522,-0.1254,-0.0807,-0.0807,-0.0359,0.0,0.0,0.0,0.0,0.0,0.0,0.0,0.0,0.0588,0.0767,0.0089,0.0539,0.0718,0.009,0.0,0.0,0.0,0.0,0.0,0.0,-0.0539,-0.0807,-0.0807,-0.1433,-0.1253,-0.0179,0.1163,0.2057,0.2681,0.4554,0.5359,0.5447,0.783,0.9126,0.9502,1.0293,1.1958,1.4624,2.1125,2.3744,2.3754,2.3784,2.485,2.6659,2.7735,2.9687,3.2116,-3.6252,-3.5848,-3.5439,-3.5213,-3.4327,-3.3602,-3.338,-3.196,-3.0908,-3.0908,-3.0279,-2.9792,-2.9792,-2.9028,-2.8518,-2.8518,-2.7428,-2.6211,-2.5134,-2.388,-2.313,-2.2988,-2.2598,-2.1625,-1.991,-1.9696,-1.8402,-1.5985,-1.5823,-1.5137,-1.4088,-1.4088,-1.4088,-1.4088,-1.4088,-1.4088,-1.3913,-1.1563,-1.0611,-1.0438,-0.8009,-0.7139,-0.7139,-0.7139,-0.7139,-0.7139,-0.7139,-0.7139,-0.7139,-0.7139,-0.7139,-0.6871,-0.5716,-0.4732,-0.3749,-0.2236,-0.0986,0.0,0.0,-0.018,-0.0359,-0.009,0.0,0.0,0.0,0.0,0.0,0.0,0.0,0.0,0.0,0.0,0.0089,0.035,0.0419,0.0495,0.0779,0.1671,0.1911,0.0979,0.1612,0.1879,0.0897,0.0807,0.0718,0.0449,0.0718,0.0718,0.0449,0.0449,0.0269,0.0,-0.0897,-0.1254,-0.0984,0.0895,0.1969,0.2236,0.4376,0.5359,0.5447,0.7906,0.9291,0.9856,1.0905,1.3004,1.6212,2.3495,2.6529,2.6476,2.6492,2.6801,2.737,2.8903,3.0909,3.2874,-3.5579,-3.5534,-3.5213,-3.4245,-3.331,-3.2393,-3.1536,-3.0558,-2.9934,-2.9934,-2.9856,-2.9792,-2.9792,-2.9714,-2.9702,-2.9702,-2.8149,-2.6811,-2.5777,-2.4223,-2.3074,-2.2539,-2.2158,-2.1205,-1.967,-1.9634,-1.8357,-1.5733,-1.5711,-1.5137,-1.4088,-1.4088,-1.4088,-1.4088,-1.4088,-1.4088,-1.3913,-1.1563,-1.0611,-1.0438,-0.8009,-0.7139,-0.7139,-0.7139,-0.7139,-0.7139,-0.7139,-0.7139,-0.7139,-0.7139,-0.7139,-0.6871,-0.5716,-0.5359,-0.4823,-0.2504,-0.0986,0.0,0.0,-0.0807,-0.1433,-0.0269,0.0,0.0,0.0,0.0,0.0,0.0,0.0,0.0,0.0,0.0,0.035,0.1447,0.1691,0.2074,0.3195,0.3379,0.3457,0.3301,0.3392,0.3392,0.3303,0.3303,0.2858,0.1791,0.2681,0.2858,0.1701,0.17,0.1165,0.0,-0.009,0.0449,0.1522,0.17,0.2325,0.3481,0.4821,0.5359,0.5536,0.8222,0.9875,1.0595,1.2859,1.6207,2.0447,2.4715,2.6482,2.6513,2.6535,2.7673,2.9309,2.9485,3.1084,3.3326,-3.5619,-3.5504,-3.5359,-3.4986,-3.4624,-3.4274,-3.3919,-3.3045,-3.2191,-3.1623,-3.1057,-3.0419,-2.9856,-2.9197,-2.8633,-2.8305,-2.7027,-2.5905,-2.5206,-2.3788,-2.2531,-2.1709,-2.1572,-2.1099,-2.0239,-1.9583,-1.8368,-1.6683,-1.6026,-1.5137,-1.4088,-1.4088,-1.4088,-1.4088,-1.4088,-1.3646,-1.2857,-1.13,-1.0183,-0.9405,-0.7749,-0.7139,-0.7139,-0.7139,-0.7139,-0.7139,-0.7139,-0.7139,-0.7139,-0.7139,-0.7139,-0.7051,-0.6605,-0.5442,-0.384,-0.1433,-0.0897,-0.0986,-0.018,-0.0359,-0.0539,-0.009,0.0,0.0,0.0,0.0,0.0,0.0,0.0628,0.1076,0.1076,0.1701,0.2389,0.2824,0.2887,0.309,0.3503,0.4287,0.4463,0.3659,0.4283,0.4463,0.3659,0.357,0.3392,0.2948,0.3303,0.3392,0.2948,0.2948,0.2681,0.2236,0.2236,0.2057,0.179,0.2503,0.3482,0.4732,0.5891,0.6413,0.6565,0.8554,0.9081,0.8598,1.2425,1.5061,1.7063,2.3746,2.6542,2.6615,2.7546,2.839,2.9282,3.1153,3.2678,3.405,-3.5946,-3.5638,-3.5504,-3.5504,-3.5225,-3.502,-3.5037,-3.4177,-3.331,-3.2664,-3.1742,-3.0904,-3.0049,-2.8991,-2.8125,-2.7593,-2.6677,-2.5804,-2.5153,-2.3448,-2.2066,-2.1016,-2.1323,-2.1174,-2.0576,-1.952,-1.8638,-1.7827,-1.6764,-1.5621,-1.4573,-1.4573,-1.4412,-1.4088,-1.4088,-1.347,-1.2242,-1.1037,-0.9923,-0.8803,-0.7577,-0.7139,-0.7139,-0.7139,-0.7139,-0.7139,-0.7139,-0.7139,-0.7139,-0.7139,-0.7139,-0.7139,-0.7139,-0.5531,-0.3213,-0.1165,-0.0897,-0.1076,-0.0269,0.0,0.0,0.0,0.0,0.0,0.0,0.0269,0.0539,0.0539,0.1522,0.2325,0.2325,0.3037,0.3748,0.4105,0.4194,0.4283,0.4639,0.5445,0.5622,0.4816,0.5445,0.5625,0.4816,0.4727,0.455,0.4194,0.4461,0.455,0.4194,0.4194,0.4016,0.357,0.4263,0.4086,0.2949,0.3749,0.5164,0.7007,0.7082,0.7574,0.848,0.8674,0.8131,0.7405,1.3534,1.6843,1.8473,2.5146,2.7754,2.7566,2.9108,3.0045,3.0728,3.3001,3.4418,3.552,-3.658,-3.6011,-3.5504,-3.5504,-3.4703,-3.4025,-3.4023,-3.3241,-3.2593,-3.2593,-3.1815,-3.0969,-3.0487,-2.9497,-2.8699,-2.8147,-2.7595,-2.6887,-2.5888,-2.3464,-2.1593,-2.0634,-2.1517,-2.1517,-2.0644,-1.952,-1.9036,-1.9036,-1.7827,-1.6764,-1.5696,-1.5696,-1.5137,-1.4088,-1.4088,-1.347,-1.2242,-1.1123,-0.9923,-0.8803,-0.7577,-0.7139,-0.7139,-0.7139,-0.7139,-0.7139,-0.7139,-0.7139,-0.7139,-0.7139,-0.7139,-0.7139,-0.7051,-0.5442,-0.3393,-0.2147,-0.0986,0.0,0.0,0.0,0.0,0.0,0.0,0.0,0.0,0.0897,0.179,0.179,0.2769,0.357,0.357,0.3659,0.4016,0.5179,0.5447,0.5802,0.6962,0.7139,0.7139,0.7139,0.7139,0.7139,0.7139,0.7139,0.6694,0.5536,0.6514,0.6691,0.5534,0.5447,0.491,0.3748,0.5799,0.6505,0.5445,0.5445,0.7179,1.0439,0.8173,0.8704,1.146,0.8457,0.7137,0.773,1.6708,2.2882,2.6793,2.976,3.0439,2.9713,3.1233,3.2774,3.4159,3.4718,3.6133,3.7886,-3.593,-3.5638,-3.5504,-3.5504,-3.5225,-3.502,-3.5037,-3.4839,-3.4409,-3.3671,-3.2444,-3.1284,-3.0519,-2.9151,-2.8134,-2.7582,-2.7381,-2.6739,-2.5326,-2.5218,-2.4385,-2.2702,-2.1603,-2.0867,-2.0644,-1.952,-1.9036,-1.9036,-1.7082,-1.6026,-1.5696,-1.4894,-1.4412,-1.4088,-1.4088,-1.347,-1.2242,-1.1901,-1.0697,-0.889,-0.854,-0.7841,-0.7139,-0.7139,-0.7139,-0.7139,-0.7139,-0.7139,-0.7139,-0.7139,-0.7139,-0.6962,-0.616,-0.4819,-0.3393,-0.2147,-0.0986,0.0,0.0,0.0,0.0,0.0,0.0,0.0,0.0,0.0897,0.179,0.179,0.3395,0.4821,0.4821,0.5531,0.6157,0.6514,0.6605,0.7295,0.9178,0.952,1.011,1.1702,1.1866,1.1538,1.0797,1.0716,1.0211,0.9122,1.0043,1.0867,1.1335,1.1335,1.124,1.0879,1.1455,1.1635,1.1335,1.0519,0.9464,0.817,0.9569,0.9614,0.837,0.7491,1.0536,1.6893,2.2355,2.784,3.2727,3.0741,3.091,3.2465,3.3163,3.3919,3.4834,3.6378,3.7507,3.8409,-3.6063,-3.5721,-3.5504,-3.5504,-3.5504,-3.5504,-3.5504,-3.5265,-3.4877,-3.4296,-3.2892,-3.1593,-3.0815,-2.9528,-2.8552,-2.8046,-2.7994,-2.7156,-2.5099,-2.5906,-2.5521,-2.3588,-2.1962,-2.1155,-2.1155,-1.9747,-1.9204,-1.9599,-1.7407,-1.6355,-1.6273,-1.522,-1.4496,-1.4088,-1.4088,-1.347,-1.2242,-1.1809,-1.0611,-0.889,-0.8364,-0.7753,-0.7139,-0.7139,-0.7139,-0.7139,-0.7139,-0.7139,-0.7139,-0.7139,-0.7139,-0.6962,-0.6251,-0.5267,-0.4105,-0.286,-0.1701,-0.0628,-0.009,0.0,0.0,0.0,0.0,0.009,0.0628,0.1612,0.2681,0.3129,0.4732,0.6071,0.6071,0.7044,0.7921,0.8333,0.8848,0.978,1.1617,1.1866,1.2367,1.3708,1.3868,1.3625,1.2974,1.2884,1.28,1.2457,1.3092,1.3884,1.4976,1.5057,1.5057,1.5057,1.5882,1.5971,1.5057,1.5847,1.4349,1.0688,1.1893,1.2487,1.2406,1.2406,1.7611,2.6688,2.9052,3.1898,3.4699,3.3031,3.2936,3.3921,3.5309,3.5924,3.6249,3.7988,3.8816,3.9127,-3.6767,-3.6029,-3.5549,-3.5504,-3.5504,-3.5489,-3.5415,-3.4876,-3.4457,-3.4397,-3.2986,-3.1824,-3.1281,-3.0347,-2.9532,-2.9044,-2.8939,-2.7815,-2.5288,-2.5857,-2.553,-2.3734,-2.2702,-2.2103,-2.2027,-2.0119,-1.9599,-2.0566,-1.847,-1.7423,-1.7423,-1.6355,-1.5304,-1.425,-1.425,-1.3548,-1.2419,-1.1214,-1.0096,-0.8978,-0.7753,-0.7228,-0.7139,-0.7139,-0.7139,-0.7139,-0.7139,-0.7139,-0.7139,-0.7139,-0.7139,-0.7051,-0.6962,-0.616,-0.5001,-0.3749,-0.2592,-0.1433,-0.0269,0.0,0.0,0.009,0.0269,0.0538,0.1612,0.286,0.4105,0.5265,0.6422,0.7312,0.7482,0.8444,0.9557,1.0615,1.1629,1.2806,1.4041,1.4276,1.4434,1.4606,1.4674,1.4757,1.4592,1.451,1.4885,1.5851,1.5924,1.6357,1.7371,1.7562,1.7622,1.7622,1.9771,1.9893,1.7595,2.1093,2.0548,1.5896,1.4964,1.7095,2.1951,2.1959,2.6822,3.5193,3.537,3.4865,3.4121,3.5877,3.5793,3.4803,3.7528,3.8319,3.8079,3.9407,3.9879,3.9842,-3.6755,-3.6468,-3.617,-3.5629,-3.5504,-3.531,-3.4775,-3.4595,-3.4292,-3.3784,-3.2376,-3.1382,-3.1238,-2.9968,-2.914,-2.9016,-2.8363,-2.7471,-2.6233,-2.6358,-2.5918,-2.4707,-2.3745,-2.2776,-2.2027,-2.0837,-2.0401,-2.0566,-1.9274,-1.863,-1.863,-1.7496,-1.6355,-1.5379,-1.5379,-1.472,-1.3646,-1.2419,-1.1295,-1.0096,-0.8973,-0.7929,-0.7139,-0.7139,-0.7139,-0.7139,-0.7139,-0.7139,-0.7139,-0.7139,-0.7139,-0.6962,-0.6071,-0.491,-0.3749,-0.2503,-0.1344,-0.0359,-0.009,0.0,0.0269,0.1165,0.2051,0.258,0.1967,0.3486,0.5351,0.6486,0.7639,0.9048,1.0802,1.131,1.181,1.2956,1.3374,1.4207,1.6199,1.7183,1.8276,2.0043,2.0964,2.1075,2.0254,1.9388,1.9378,2.0387,2.0463,2.0939,2.1977,2.3225,2.3851,2.3851,2.5923,2.5929,2.3709,2.5011,2.1886,1.4409,1.7585,2.3792,3.2344,3.237,3.2232,3.206,3.3467,3.5009,3.6612,3.6023,3.6672,3.8159,3.8783,3.9025,3.9042,3.9661,3.9706,3.9369,-3.6764,-3.6292,-3.5969,-3.5549,-3.5259,-3.4886,-3.4542,-3.3967,-3.3425,-3.308,-3.2048,-3.1306,-3.1306,-3.0638,-3.0011,-2.9628,-2.9566,-2.9002,-2.7802,-2.7219,-2.6735,-2.6308,-2.4517,-2.3514,-2.3441,-2.2038,-2.1078,-2.0566,-1.952,-1.9036,-1.8957,-1.7334,-1.6273,-1.5696,-1.5137,-1.4657,-1.3997,-1.2248,-1.1123,-1.0438,-0.8707,-0.7665,-0.7139,-0.7139,-0.7139,-0.7139,-0.7139,-0.7139,-0.7139,-0.7139,-0.6782,-0.616,-0.5625,-0.4552,-0.3393,-0.2147,-0.1344,-0.0718,-0.018,0.0806,0.1784,0.2494,0.4341,0.5747,0.4619,0.5684,0.7358,0.8495,0.9707,1.0818,1.198,1.3445,1.49,1.6025,1.7062,1.8276,1.9947,2.0619,2.1408,2.2606,2.3147,2.3272,2.2689,2.3066,2.3712,2.4764,2.5465,2.6388,2.7397,2.7958,2.8415,2.8643,2.9899,2.9718,2.7966,2.8442,2.5739,1.9945,2.3694,2.9972,3.8214,3.7316,3.6206,3.502,3.5916,3.6809,3.7622,3.713,3.7452,3.8287,3.8688,3.8892,3.8943,3.912,3.8926,3.8518,-3.6967,-3.631,-3.5799,-3.5379,-3.4871,-3.444,-3.4213,-3.3231,-3.2482,-3.2362,-3.1884,-3.1482,-3.1482,-3.1482,-3.1161,-3.0389,-3.0896,-3.0644,-2.9129,-2.8048,-2.7525,-2.7445,-2.5075,-2.3963,-2.4492,-2.285,-2.1593,-2.0867,-1.9756,-1.9195,-1.8957,-1.7082,-1.6026,-1.5703,-1.4734,-1.4159,-1.3646,-1.1477,-1.0524,-1.0091,-0.7921,-0.7139,-0.7139,-0.7139,-0.7139,-0.7051,-0.6874,-0.6694,-0.6514,-0.6782,-0.6071,-0.509,-0.4823,-0.4107,-0.3037,-0.1879,-0.1522,-0.1164,0.0179,0.2049,0.3631,0.4246,0.6789,0.8909,0.8134,0.8731,0.9688,1.0935,1.2008,1.2981,1.3464,1.5805,1.8048,1.9301,2.0979,2.2519,2.3356,2.3672,2.3868,2.4089,2.4625,2.4963,2.5042,2.6608,2.7972,2.876,2.995,3.1083,3.2002,3.1862,3.2024,3.253,3.3222,3.3008,3.1871,3.2309,3.135,2.9044,3.151,3.5642,4.1142,3.944,3.8789,3.9037,3.9064,3.8623,3.7954,3.8351,3.8118,3.7593,3.8237,3.8446,3.8365,3.8241,3.7849,3.7344,-3.7886,-3.7584,-3.6919,-3.4996,-3.455,-3.4137,-3.2985,-3.2645,-3.2302,-3.1676,-3.1541,-3.1482,-3.1482,-3.1482,-3.1161,-3.0389,-3.0389,-3.0072,-2.9066,-2.8155,-2.7352,-2.6493,-2.538,-2.4047,-2.2403,-2.2103,-2.1952,-2.1811,-2.0847,-1.9923,-1.8957,-1.8709,-1.7496,-1.5696,-1.5538,-1.4357,-1.2504,-1.1123,-1.0009,-0.8973,-0.7665,-0.7139,-0.7139,-0.7139,-0.7139,-0.6962,-0.5983,-0.4999,-0.4194,-0.5267,-0.4821,-0.366,-0.2592,-0.2148,-0.179,-0.0628,-0.0269,0.0269,0.2401,0.328,0.4246,0.7323,0.9238,1.0545,1.1445,1.1673,1.207,1.3296,1.4358,1.5963,1.8786,1.9674,2.0621,2.2552,2.3103,2.3345,2.3514,2.4264,2.532,2.6629,2.9057,3.0845,3.1312,3.1597,3.182,3.197,3.219,3.2498,3.2967,3.4226,3.5062,3.5507,3.7303,3.7972,3.7349,3.8248,3.8873,3.9215,3.9611,4.0314,4.1151,4.0163,3.908,3.8003,3.8064,3.8213,3.8414,3.8475,3.8667,3.8903,3.8536,3.8202,3.7831,3.7492,3.6679,3.5703,-3.8019,-3.7451,-3.6763,-3.5365,-3.4802,-3.4337,-3.3779,-3.3357,-3.3006,-3.2711,-3.2664,-3.2516,-3.2176,-3.1739,-3.1351,-3.1029,-3.097,-3.0837,-3.0389,-2.9122,-2.8397,-2.8525,-2.7181,-2.6046,-2.5238,-2.4661,-2.4184,-2.3672,-2.2113,-2.0837,-1.9923,-1.9797,-1.8982,-1.7496,-1.6846,-1.5335,-1.3146,-1.2026,-1.0494,-0.8803,-0.7577,-0.7139,-0.7139,-0.7139,-0.7492,-0.7925,-0.676,-0.5161,-0.3659,-0.4196,-0.3573,-0.2503,-0.1969,-0.1344,-0.0718,-0.018,0.0,0.0538,0.2841,0.493,0.7083,0.9957,1.2542,1.4441,1.4989,1.5993,1.6589,1.5904,1.7553,1.9521,2.0974,2.2158,2.3548,2.5347,2.6126,2.6841,2.7966,2.8552,2.9192,3.0127,3.1451,3.2352,3.259,3.3617,3.4353,3.4588,3.5402,3.6076,3.6538,3.6904,3.7224,3.7433,3.8581,3.9207,3.9252,4.0155,4.0356,3.979,3.8637,3.8912,4.0474,4.0231,3.9697,3.8951,3.8734,3.8428,3.8118,3.8109,3.7902,3.7603,3.7374,3.6774,3.6018,3.6132,3.543,3.4397]}]]